Time,TemperatureF,DewpointF,PressureIn,WindDirection,WindDirectionDegrees,WindSpeedMPH,WindSpeedGustMPH,Humidity,HourlyPrecipIn,Conditions,Clouds,dailyrainin,SoftwareType,DateUTC
2013-03-27 00:00:00,43.5,20.8,30.27,WNW,292,0.0,0.0,40,0.00,,---,0.00,VWS V14.01,2013-03-27 04:00:00,
2013-03-27 00:01:00,43.5,20.8,30.27,WNW,292,0.0,0.0,40,0.00,,---,0.00,VWS V14.01,2013-03-27 04:01:00,
2013-03-27 00:02:00,43.5,21.4,30.27,WNW,292,0.0,0.0,41,0.00,,---,0.00,VWS V14.01,2013-03-27 04:02:00,
2013-03-27 00:03:00,43.5,21.4,30.27,WNW,292,0.0,0.0,41,0.00,,---,0.00,VWS V14.01,2013-03-27 04:03:00,
2013-03-27 00:04:00,43.5,21.4,30.27,WNW,292,0.0,0.0,41,0.00,,---,0.00,VWS V14.01,2013-03-27 04:04:00,
2013-03-27 00:05:00,43.5,21.4,30.27,WNW,292,0.0,0.0,41,0.00,,---,0.00,VWS V14.01,2013-03-27 04:05:00,
2013-03-27 00:06:00,43.5,21.4,30.27,WNW,292,0.0,0.0,41,0.00,,---,0.00,VWS V14.01,2013-03-27 04:06:00,
2013-03-27 00:07:00,43.5,21.4,30.27,WNW,292,0.0,0.0,41,0.00,,---,0.00,VWS V14.01,2013-03-27 04:07:00,
2013-03-27 00:08:00,43.5,21.4,30.27,WNW,292,0.0,0.0,41,0.00,,---,0.00,VWS V14.01,2013-03-27 04:08:00,
2013-03-27 00:09:00,44.8,20.7,30.27,WNW,292,0.0,0.0,38,0.00,,---,0.00,VWS V14.01,2013-03-27 04:09:00,
2013-03-27 00:10:00,43.7,21.6,30.27,WNW,292,0.0,0.0,41,0.00,,---,0.00,VWS V14.01,2013-03-27 04:10:00,
2013-03-27 00:11:00,43.5,21.4,30.27,WNW,292,0.0,0.0,41,0.00,,---,0.00,VWS V14.01,2013-03-27 04:11:00,
2013-03-27 00:12:00,43.7,21.6,30.27,WNW,292,0.0,0.0,41,0.00,,---,0.00,VWS V14.01,2013-03-27 04:12:00,
2013-03-27 00:13:00,43.7,21.6,30.27,WNW,292,0.0,0.0,41,0.00,,---,0.00,VWS V14.01,2013-03-27 04:13:00,
2013-03-27 00:14:00,43.7,21.6,30.27,WNW,292,0.0,0.0,41,0.00,,---,0.00,VWS V14.01,2013-03-27 04:14:00,
2013-03-27 00:15:00,43.5,21.4,30.27,WNW,292,0.0,0.0,41,0.00,,---,0.00,VWS V14.01,2013-03-27 04:15:00,
2013-03-27 00:16:00,43.5,21.4,30.27,WNW,292,0.0,0.0,41,0.00,,---,0.00,VWS V14.01,2013-03-27 04:16:00,
2013-03-27 00:17:00,43.5,21.4,30.27,WNW,292,0.0,0.0,41,0.00,,---,0.00,VWS V14.01,2013-03-27 04:17:00,
2013-03-27 00:18:00,43.5,21.4,30.27,WNW,292,0.0,0.0,41,0.00,,---,0.00,VWS V14.01,2013-03-27 04:18:00,
2013-03-27 00:19:00,43.3,21.2,30.27,WNW,292,0.0,0.0,41,0.00,,---,0.00,VWS V14.01,2013-03-27 04:19:00,
2013-03-27 00:20:00,43.3,21.2,30.27,WNW,292,0.0,0.0,41,0.00,,---,0.00,VWS V14.01,2013-03-27 04:20:00,
2013-03-27 00:21:00,43.3,21.8,30.27,WNW,292,0.0,0.0,42,0.00,,---,0.00,VWS V14.01,2013-03-27 04:21:00,
2013-03-27 00:22:00,43.3,21.2,30.27,WNW,292,0.0,0.0,41,0.00,,---,0.00,VWS V14.01,2013-03-27 04:22:00,
2013-03-27 00:23:00,43.3,21.2,30.27,WNW,292,0.0,0.0,41,0.00,,---,0.00,VWS V14.01,2013-03-27 04:23:00,
2013-03-27 00:24:00,43.3,21.2,30.27,WNW,292,0.0,0.0,41,0.00,,---,0.00,VWS V14.01,2013-03-27 04:24:00,
2013-03-27 00:25:00,43.3,21.2,30.27,WNW,292,0.0,0.0,41,0.00,,---,0.00,VWS V14.01,2013-03-27 04:25:00,
2013-03-27 00:26:00,43.3,21.8,30.27,WNW,292,0.0,0.0,42,0.00,,---,0.00,VWS V14.01,2013-03-27 04:26:00,
2013-03-27 00:27:00,43.2,21.6,30.27,WNW,292,0.0,0.0,42,0.00,,---,0.00,VWS V14.01,2013-03-27 04:27:00,
2013-03-27 00:28:00,43.2,21.6,30.27,WNW,292,0.0,0.0,42,0.00,,---,0.00,VWS V14.01,2013-03-27 04:28:00,
2013-03-27 00:29:00,43.2,21.6,30.27,WNW,292,0.0,0.0,42,0.00,,---,0.00,VWS V14.01,2013-03-27 04:29:00,
2013-03-27 00:30:00,43.0,21.5,30.27,WNW,292,0.0,0.0,42,0.00,,---,0.00,VWS V14.01,2013-03-27 04:30:00,
2013-03-27 00:31:00,43.0,21.5,30.27,WNW,292,0.0,0.0,42,0.00,,---,0.00,VWS V14.01,2013-03-27 04:31:00,
2013-03-27 00:32:00,42.8,21.3,30.27,WNW,292,0.0,0.0,42,0.00,,---,0.00,VWS V14.01,2013-03-27 04:32:00,
2013-03-27 00:33:00,42.8,21.3,30.27,WNW,292,0.0,0.0,42,0.00,,---,0.00,VWS V14.01,2013-03-27 04:33:00,
2013-03-27 00:34:00,42.8,21.3,30.27,WNW,292,0.0,0.0,42,0.00,,---,0.00,VWS V14.01,2013-03-27 04:34:00,
2013-03-27 00:35:00,42.8,21.9,30.27,WNW,292,0.0,0.0,43,0.00,,---,0.00,VWS V14.01,2013-03-27 04:35:00,
2013-03-27 00:36:00,42.6,21.7,30.27,WNW,292,0.0,0.0,43,0.00,,---,0.00,VWS V14.01,2013-03-27 04:36:00,
2013-03-27 00:37:00,42.6,21.7,30.27,WNW,292,0.0,0.0,43,0.00,,---,0.00,VWS V14.01,2013-03-27 04:37:00,
2013-03-27 00:38:00,42.6,21.7,30.27,WNW,292,0.0,0.0,43,0.00,,---,0.00,VWS V14.01,2013-03-27 04:38:00,
2013-03-27 00:39:00,42.6,21.7,30.27,WNW,292,0.0,0.0,43,0.00,,---,0.00,VWS V14.01,2013-03-27 04:39:00,
2013-03-27 00:40:00,42.6,21.7,30.27,WNW,292,0.0,0.0,43,0.00,,---,0.00,VWS V14.01,2013-03-27 04:40:00,
2013-03-27 00:41:00,42.6,21.7,30.27,WNW,292,0.0,0.0,43,0.00,,---,0.00,VWS V14.01,2013-03-27 04:41:00,
2013-03-27 00:42:00,42.6,21.7,30.27,WNW,292,0.0,0.0,43,0.00,,---,0.00,VWS V14.01,2013-03-27 04:42:00,
2013-03-27 00:43:00,42.6,21.7,30.27,WNW,292,0.0,0.0,43,0.00,,---,0.00,VWS V14.01,2013-03-27 04:43:00,
2013-03-27 00:44:00,42.6,22.2,30.27,WNW,292,0.0,0.0,44,0.00,,---,0.00,VWS V14.01,2013-03-27 04:44:00,
2013-03-27 00:45:00,42.6,22.2,30.27,WNW,292,0.0,0.0,44,0.00,,---,0.00,VWS V14.01,2013-03-27 04:45:00,
2013-03-27 00:46:00,42.8,22.4,30.27,WNW,292,0.0,0.0,44,0.00,,---,0.00,VWS V14.01,2013-03-27 04:46:00,
2013-03-27 00:47:00,42.8,22.4,30.27,WNW,292,0.0,0.0,44,0.00,,---,0.00,VWS V14.01,2013-03-27 04:47:00,
2013-03-27 00:48:00,42.8,22.4,30.27,WNW,292,0.0,0.0,44,0.00,,---,0.00,VWS V14.01,2013-03-27 04:48:00,
2013-03-27 00:49:00,42.8,23.0,30.27,North,0,2.2,2.2,45,0.00,,---,0.00,VWS V14.01,2013-03-27 04:49:00,
2013-03-27 00:50:00,42.8,23.0,30.27,ENE,68,0.0,2.2,45,0.00,,---,0.00,VWS V14.01,2013-03-27 04:50:00,
2013-03-27 00:51:00,42.8,23.0,30.27,ENE,68,0.0,0.0,45,0.00,,---,0.00,VWS V14.01,2013-03-27 04:51:00,
2013-03-27 00:52:00,42.8,23.5,30.27,WNW,292,0.0,0.0,46,0.00,,---,0.00,VWS V14.01,2013-03-27 04:52:00,
2013-03-27 00:53:00,43.0,23.1,30.27,WNW,292,0.0,0.0,45,0.00,,---,0.00,VWS V14.01,2013-03-27 04:53:00,
2013-03-27 00:54:00,43.0,23.1,30.27,WNW,292,0.0,0.0,45,0.00,,---,0.00,VWS V14.01,2013-03-27 04:54:00,
2013-03-27 00:55:00,43.0,23.6,30.27,WNW,292,0.0,0.0,46,0.00,,---,0.00,VWS V14.01,2013-03-27 04:55:00,
2013-03-27 00:56:00,43.2,23.8,30.27,WNW,292,0.0,0.0,46,0.00,,---,0.00,VWS V14.01,2013-03-27 04:56:00,
2013-03-27 00:57:00,43.3,24.0,30.27,ESE,112,0.0,0.0,46,0.00,,---,0.00,VWS V14.01,2013-03-27 04:57:00,
2013-03-27 00:58:00,43.3,24.0,30.27,ESE,112,0.0,0.0,46,0.00,,---,0.00,VWS V14.01,2013-03-27 04:58:00,
2013-03-27 00:59:00,43.3,24.0,30.27,NNE,22,0.0,0.0,46,0.00,,---,0.00,VWS V14.01,2013-03-27 04:59:00,
2013-03-27 01:00:00,43.3,24.0,30.27,NNE,22,0.0,0.0,46,0.00,,---,0.00,VWS V14.01,2013-03-27 05:00:00,
2013-03-27 01:01:00,43.3,24.0,30.27,NNE,22,0.0,0.0,46,0.00,,---,0.00,VWS V14.01,2013-03-27 05:01:00,
2013-03-27 01:02:00,43.3,24.0,30.27,NNE,22,0.0,0.0,46,0.00,,---,0.00,VWS V14.01,2013-03-27 05:02:00,
2013-03-27 01:03:00,43.3,24.0,30.27,NNE,22,0.0,0.0,46,0.00,,---,0.00,VWS V14.01,2013-03-27 05:03:00,
2013-03-27 01:04:00,43.3,23.4,30.27,WNW,292,0.0,0.0,45,0.00,,---,0.00,VWS V14.01,2013-03-27 05:04:00,
2013-03-27 01:05:00,43.3,23.4,30.27,WNW,292,0.0,0.0,45,0.00,,---,0.00,VWS V14.01,2013-03-27 05:05:00,
2013-03-27 01:06:00,43.3,23.4,30.27,ENE,68,0.0,0.0,45,0.00,,---,0.00,VWS V14.01,2013-03-27 05:06:00,
2013-03-27 01:07:00,43.3,23.4,30.27,WNW,292,0.0,0.0,45,0.00,,---,0.00,VWS V14.01,2013-03-27 05:07:00,
2013-03-27 01:08:00,43.5,23.6,30.27,WNW,292,0.0,0.0,45,0.00,,---,0.00,VWS V14.01,2013-03-27 05:08:00,
2013-03-27 01:09:00,43.5,23.6,30.27,NNW,338,0.0,0.0,45,0.00,,---,0.00,VWS V14.01,2013-03-27 05:09:00,
2013-03-27 01:10:00,43.5,23.6,30.27,NNW,338,0.0,0.0,45,0.00,,---,0.00,VWS V14.01,2013-03-27 05:10:00,
2013-03-27 01:11:00,43.7,23.2,30.27,NNW,338,0.0,0.0,44,0.00,,---,0.00,VWS V14.01,2013-03-27 05:11:00,
2013-03-27 01:12:00,43.7,23.2,30.27,NNW,338,0.0,0.0,44,0.00,,---,0.00,VWS V14.01,2013-03-27 05:12:00,
2013-03-27 01:13:00,43.7,23.2,30.30,NNW,338,0.0,0.0,44,0.00,,---,99.99,VWS V14.01,2013-03-27 05:13:00,
2013-03-27 01:14:00,43.0,21.5,30.27,WNW,292,0.0,0.0,42,0.00,,---,0.00,VWS V14.01,2013-03-27 05:14:00,
2013-03-27 01:15:00,43.7,23.2,30.30,North,0,0.0,0.0,44,0.00,,---,99.99,VWS V14.01,2013-03-27 05:15:00,
2013-03-27 01:16:00,43.7,23.2,30.30,ESE,112,0.0,0.0,44,0.00,,---,99.99,VWS V14.01,2013-03-27 05:16:00,
2013-03-27 01:17:00,43.7,23.2,30.30,NNE,22,0.0,0.0,44,0.00,,---,99.99,VWS V14.01,2013-03-27 05:17:00,
2013-03-27 01:18:00,43.9,22.9,30.30,NNE,22,0.0,0.0,43,0.00,,---,99.99,VWS V14.01,2013-03-27 05:18:00,
2013-03-27 01:19:00,43.9,22.9,30.30,NNE,22,0.0,0.0,43,0.00,,---,99.99,VWS V14.01,2013-03-27 05:19:00,
2013-03-27 01:20:00,43.9,22.9,30.30,NNW,338,0.9,0.9,43,0.00,,---,99.99,VWS V14.01,2013-03-27 05:20:00,
2013-03-27 01:21:00,43.9,22.9,30.30,SE,135,0.0,0.9,43,0.00,,---,99.99,VWS V14.01,2013-03-27 05:21:00,
2013-03-27 01:22:00,44.1,23.0,30.30,North,0,0.0,1.1,43,0.00,,---,99.99,VWS V14.01,2013-03-27 05:22:00,
2013-03-27 01:23:00,44.1,23.0,30.30,North,0,0.0,1.1,43,0.00,,---,99.99,VWS V14.01,2013-03-27 05:23:00,
2013-03-27 01:24:00,44.1,23.0,30.30,North,0,0.0,0.0,43,0.00,,---,99.99,VWS V14.01,2013-03-27 05:24:00,
2013-03-27 01:25:00,44.1,22.5,30.30,WNW,292,1.1,2.7,42,0.00,,---,99.99,VWS V14.01,2013-03-27 05:25:00,
2013-03-27 01:26:00,44.1,22.5,30.30,WNW,292,0.9,0.9,42,0.00,,---,99.99,VWS V14.01,2013-03-27 05:26:00,
2013-03-27 01:27:00,44.1,22.5,30.30,WNW,292,0.0,0.0,42,0.00,,---,99.99,VWS V14.01,2013-03-27 05:27:00,
2013-03-27 01:28:00,44.1,22.5,30.27,NNE,22,0.0,0.0,42,0.00,,---,99.99,VWS V14.01,2013-03-27 05:28:00,
2013-03-27 01:29:00,44.1,22.5,30.27,NNE,22,0.0,0.0,42,0.00,,---,99.99,VWS V14.01,2013-03-27 05:29:00,
2013-03-27 01:30:00,44.1,22.5,30.27,NNE,22,0.0,0.0,42,0.00,,---,99.99,VWS V14.01,2013-03-27 05:30:00,
2013-03-27 01:31:00,43.9,21.7,30.27,North,0,0.9,0.9,41,0.00,,---,99.99,VWS V14.01,2013-03-27 05:31:00,
2013-03-27 01:32:00,43.9,21.7,30.27,North,0,0.0,0.0,41,0.00,,---,99.99,VWS V14.01,2013-03-27 05:32:00,
2013-03-27 01:33:00,43.9,21.7,30.27,North,0,0.0,0.0,41,0.00,,---,99.99,VWS V14.01,2013-03-27 05:33:00,
2013-03-27 01:34:00,43.9,21.7,30.27,North,0,0.0,0.0,41,0.00,,---,99.99,VWS V14.01,2013-03-27 05:34:00,
2013-03-27 01:35:00,43.9,21.7,30.27,North,0,0.0,0.0,41,0.00,,---,99.99,VWS V14.01,2013-03-27 05:35:00,
2013-03-27 01:36:00,43.9,21.7,30.27,ESE,112,0.0,0.0,41,0.00,,---,99.99,VWS V14.01,2013-03-27 05:36:00,
2013-03-27 01:37:00,43.9,21.7,30.27,ESE,112,0.0,0.0,41,0.00,,---,99.99,VWS V14.01,2013-03-27 05:37:00,
2013-03-27 01:38:00,43.7,21.6,30.27,East,90,0.0,0.0,41,0.00,,---,99.99,VWS V14.01,2013-03-27 05:38:00,
2013-03-27 01:39:00,43.7,21.6,30.27,East,90,0.0,0.0,41,0.00,,---,99.99,VWS V14.01,2013-03-27 05:39:00,
2013-03-27 01:40:00,43.7,21.6,30.27,East,90,0.0,0.0,41,0.00,,---,99.99,VWS V14.01,2013-03-27 05:40:00,
2013-03-27 01:41:00,43.7,21.6,30.27,East,90,0.0,0.0,41,0.00,,---,99.99,VWS V14.01,2013-03-27 05:41:00,
2013-03-27 01:42:00,43.5,21.4,30.27,NNE,22,1.1,1.1,41,0.00,,---,99.99,VWS V14.01,2013-03-27 05:42:00,
2013-03-27 01:43:00,43.5,21.4,30.27,NNE,22,0.0,1.1,41,0.00,,---,99.99,VWS V14.01,2013-03-27 05:43:00,
2013-03-27 01:44:00,43.5,21.4,30.27,NNE,22,0.0,0.0,41,0.00,,---,99.99,VWS V14.01,2013-03-27 05:44:00,
2013-03-27 01:45:00,43.5,21.4,30.27,NNE,22,0.0,0.0,41,0.00,,---,99.99,VWS V14.01,2013-03-27 05:45:00,
2013-03-27 01:46:00,43.5,21.4,30.27,NE,45,0.0,0.0,41,0.00,,---,99.99,VWS V14.01,2013-03-27 05:46:00,
2013-03-27 01:47:00,43.5,21.4,30.27,ENE,68,0.0,0.0,41,0.00,,---,99.99,VWS V14.01,2013-03-27 05:47:00,
2013-03-27 01:48:00,43.5,21.4,30.27,ENE,68,0.0,0.0,41,0.00,,---,99.99,VWS V14.01,2013-03-27 05:48:00,
2013-03-27 01:49:00,43.5,21.4,30.27,ENE,68,0.0,0.0,41,0.00,,---,99.99,VWS V14.01,2013-03-27 05:49:00,
2013-03-27 01:50:00,43.3,20.6,30.27,ENE,68,0.0,0.0,40,0.00,,---,99.99,VWS V14.01,2013-03-27 05:50:00,
2013-03-27 01:51:00,43.3,20.6,30.27,ENE,68,0.0,0.0,40,0.00,,---,99.99,VWS V14.01,2013-03-27 05:51:00,
2013-03-27 01:52:00,43.3,20.6,30.27,ENE,68,0.0,0.0,40,0.00,,---,99.99,VWS V14.01,2013-03-27 05:52:00,
2013-03-27 01:53:00,43.3,20.6,30.27,NNE,22,0.0,0.0,40,0.00,,---,99.99,VWS V14.01,2013-03-27 05:53:00,
2013-03-27 01:54:00,43.5,23.6,30.27,NNW,338,0.0,0.0,45,0.00,,---,0.00,VWS V14.01,2013-03-27 05:54:00,
2013-03-27 01:55:00,43.3,21.2,30.27,NNE,22,0.0,0.0,41,0.00,,---,99.99,VWS V14.01,2013-03-27 05:55:00,
2013-03-27 01:56:00,43.3,20.6,30.27,NNE,22,0.0,0.0,40,0.00,,---,99.99,VWS V14.01,2013-03-27 05:56:00,
2013-03-27 01:57:00,43.3,20.6,30.27,NNE,22,0.0,0.0,40,0.00,,---,99.99,VWS V14.01,2013-03-27 05:57:00,
2013-03-27 01:58:00,43.3,20.6,30.27,NNE,22,0.0,0.0,40,0.00,,---,99.99,VWS V14.01,2013-03-27 05:58:00,
2013-03-27 01:59:00,43.2,20.5,30.27,NNE,22,0.0,0.0,40,0.00,,---,99.99,VWS V14.01,2013-03-27 05:59:00,
2013-03-27 02:00:00,43.2,20.5,30.27,NNE,22,0.0,0.0,40,0.00,,---,99.99,VWS V14.01,2013-03-27 06:00:00,
2013-03-27 02:01:00,43.2,20.5,30.27,NNE,22,0.0,0.0,40,0.00,,---,99.99,VWS V14.01,2013-03-27 06:01:00,
2013-03-27 02:02:00,43.2,21.1,30.27,East,90,0.0,0.0,41,0.00,,---,99.99,VWS V14.01,2013-03-27 06:02:00,
2013-03-27 02:03:00,43.2,21.1,30.27,East,90,0.0,0.0,41,0.00,,---,99.99,VWS V14.01,2013-03-27 06:03:00,
2013-03-27 02:04:00,43.0,20.9,30.27,East,90,0.0,0.0,41,0.00,,---,99.99,VWS V14.01,2013-03-27 06:04:00,
2013-03-27 02:05:00,43.0,20.9,30.27,East,90,0.0,0.0,41,0.00,,---,99.99,VWS V14.01,2013-03-27 06:05:00,
2013-03-27 02:06:00,42.8,20.8,30.27,East,90,0.0,0.0,41,0.00,,---,99.99,VWS V14.01,2013-03-27 06:06:00,
2013-03-27 02:07:00,42.8,20.2,30.27,East,90,0.0,0.0,40,0.00,,---,99.99,VWS V14.01,2013-03-27 06:07:00,
2013-03-27 02:08:00,42.8,20.2,30.27,East,90,0.0,0.0,40,0.00,,---,99.99,VWS V14.01,2013-03-27 06:08:00,
2013-03-27 02:09:00,42.8,20.2,30.27,East,90,0.0,0.0,40,0.00,,---,99.99,VWS V14.01,2013-03-27 06:09:00,
2013-03-27 02:10:00,42.6,20.6,30.27,East,90,0.0,0.0,41,0.00,,---,99.99,VWS V14.01,2013-03-27 06:10:00,
2013-03-27 02:11:00,42.6,20.6,30.27,East,90,0.0,0.0,41,0.00,,---,99.99,VWS V14.01,2013-03-27 06:11:00,
2013-03-27 02:12:00,42.4,20.4,30.27,NNW,338,0.0,0.0,41,0.00,,---,99.99,VWS V14.01,2013-03-27 06:12:00,
2013-03-27 02:13:00,42.4,20.4,30.27,NNW,338,0.0,0.0,41,0.00,,---,99.99,VWS V14.01,2013-03-27 06:13:00,
2013-03-27 02:14:00,42.4,20.4,30.27,NNW,338,0.0,0.0,41,0.00,,---,99.99,VWS V14.01,2013-03-27 06:14:00,
2013-03-27 02:15:00,42.4,20.4,30.27,NNW,338,0.0,0.0,41,0.00,,---,99.99,VWS V14.01,2013-03-27 06:15:00,
2013-03-27 02:16:00,42.4,20.4,30.27,NNW,338,0.0,0.0,41,0.00,,---,99.99,VWS V14.01,2013-03-27 06:16:00,
2013-03-27 02:17:00,42.4,20.4,30.27,NNW,338,0.0,0.0,41,0.00,,---,99.99,VWS V14.01,2013-03-27 06:17:00,
2013-03-27 02:18:00,42.4,20.4,30.27,NNW,338,0.0,0.0,41,0.00,,---,99.99,VWS V14.01,2013-03-27 06:18:00,
2013-03-27 02:19:00,42.4,20.4,30.27,NNW,338,0.0,0.0,41,0.00,,---,99.99,VWS V14.01,2013-03-27 06:19:00,
2013-03-27 02:20:00,42.4,20.4,30.27,NNW,338,0.0,0.0,41,0.00,,---,99.99,VWS V14.01,2013-03-27 06:20:00,
2013-03-27 02:21:00,42.4,20.4,30.27,NNW,338,0.0,0.0,41,0.00,,---,99.99,VWS V14.01,2013-03-27 06:21:00,
2013-03-27 02:22:00,42.3,20.3,30.27,NNW,338,0.0,0.0,41,0.00,,---,99.99,VWS V14.01,2013-03-27 06:22:00,
2013-03-27 02:23:00,42.3,20.3,30.27,NNW,338,0.0,0.0,41,0.00,,---,99.99,VWS V14.01,2013-03-27 06:23:00,
2013-03-27 02:24:00,42.3,20.3,30.27,NNW,338,0.0,0.0,41,0.00,,---,99.99,VWS V14.01,2013-03-27 06:24:00,
2013-03-27 02:25:00,42.3,20.3,30.27,NNW,338,0.0,0.0,41,0.00,,---,99.99,VWS V14.01,2013-03-27 06:25:00,
2013-03-27 02:26:00,42.1,20.1,30.27,NNW,338,0.0,0.0,41,0.00,,---,99.99,VWS V14.01,2013-03-27 06:26:00,
2013-03-27 02:27:00,42.1,20.1,30.27,NE,45,0.0,0.0,41,0.00,,---,99.99,VWS V14.01,2013-03-27 06:27:00,
2013-03-27 02:28:00,42.3,20.3,30.27,NE,45,0.0,0.0,41,0.00,,---,99.99,VWS V14.01,2013-03-27 06:28:00,
2013-03-27 02:29:00,42.3,20.3,30.27,NNE,22,0.0,0.0,41,0.00,,---,99.99,VWS V14.01,2013-03-27 06:29:00,
2013-03-27 02:30:00,42.3,20.3,30.27,NNE,22,0.0,0.0,41,0.00,,---,99.99,VWS V14.01,2013-03-27 06:30:00,
2013-03-27 02:31:00,42.3,20.3,30.27,NNE,22,0.0,0.0,41,0.00,,---,99.99,VWS V14.01,2013-03-27 06:31:00,
2013-03-27 02:32:00,42.3,20.3,30.27,NE,45,0.0,0.0,41,0.00,,---,99.99,VWS V14.01,2013-03-27 06:32:00,
2013-03-27 02:33:00,42.3,20.3,30.27,NNE,22,0.0,0.0,41,0.00,,---,99.99,VWS V14.01,2013-03-27 06:33:00,
2013-03-27 02:34:00,42.3,20.3,30.27,NNE,22,0.0,0.0,41,0.00,,---,99.99,VWS V14.01,2013-03-27 06:34:00,
2013-03-27 02:35:00,42.1,20.1,30.27,NNE,22,0.0,0.0,41,0.00,,---,99.99,VWS V14.01,2013-03-27 06:35:00,
2013-03-27 02:36:00,42.1,20.1,30.27,NNE,22,0.0,0.0,41,0.00,,---,99.99,VWS V14.01,2013-03-27 06:36:00,
2013-03-27 02:37:00,42.1,20.1,30.27,NNE,22,0.0,0.0,41,0.00,,---,99.99,VWS V14.01,2013-03-27 06:37:00,
2013-03-27 02:38:00,42.1,20.1,30.27,NNE,22,0.0,0.0,41,0.00,,---,99.99,VWS V14.01,2013-03-27 06:38:00,
2013-03-27 02:39:00,42.1,20.1,30.27,NNE,22,0.0,0.0,41,0.00,,---,99.99,VWS V14.01,2013-03-27 06:39:00,
2013-03-27 02:40:00,42.1,20.1,30.27,NNE,22,0.0,0.0,41,0.00,,---,99.99,VWS V14.01,2013-03-27 06:40:00,
2013-03-27 02:41:00,42.1,20.1,30.27,NNE,22,0.0,0.0,41,0.00,,---,99.99,VWS V14.01,2013-03-27 06:41:00,
2013-03-27 02:42:00,42.1,20.1,30.27,NNE,22,0.0,0.0,41,0.00,,---,99.99,VWS V14.01,2013-03-27 06:42:00,
2013-03-27 02:43:00,42.1,20.1,30.27,NNE,22,0.0,0.0,41,0.00,,---,99.99,VWS V14.01,2013-03-27 06:43:00,
2013-03-27 02:44:00,42.1,20.1,30.27,NNE,22,0.0,0.0,41,0.00,,---,99.99,VWS V14.01,2013-03-27 06:44:00,
2013-03-27 02:45:00,42.1,20.1,30.27,NNE,22,0.0,0.0,41,0.00,,---,99.99,VWS V14.01,2013-03-27 06:45:00,
2013-03-27 02:46:00,41.9,19.9,30.27,NNE,22,0.0,0.0,41,0.00,,---,99.99,VWS V14.01,2013-03-27 06:46:00,
2013-03-27 02:47:00,41.9,19.9,30.27,NNE,22,0.0,0.0,41,0.00,,---,99.99,VWS V14.01,2013-03-27 06:47:00,
2013-03-27 02:48:00,41.9,19.9,30.27,NNE,22,0.0,0.0,41,0.00,,---,99.99,VWS V14.01,2013-03-27 06:48:00,
2013-03-27 02:49:00,41.9,19.9,30.27,NNE,22,0.0,0.0,41,0.00,,---,99.99,VWS V14.01,2013-03-27 06:49:00,
2013-03-27 02:50:00,41.9,19.9,30.27,NNE,22,0.0,0.0,41,0.00,,---,99.99,VWS V14.01,2013-03-27 06:50:00,
2013-03-27 02:51:00,41.9,19.9,30.27,NNE,22,0.0,0.0,41,0.00,,---,99.99,VWS V14.01,2013-03-27 06:51:00,
2013-03-27 02:52:00,41.9,19.9,30.27,NNE,22,0.0,0.0,41,0.00,,---,99.99,VWS V14.01,2013-03-27 06:52:00,
2013-03-27 02:53:00,41.9,19.9,30.27,ENE,68,0.0,0.0,41,0.00,,---,99.99,VWS V14.01,2013-03-27 06:53:00,
2013-03-27 02:54:00,41.9,19.9,30.27,ESE,112,0.0,0.0,41,0.00,,---,99.99,VWS V14.01,2013-03-27 06:54:00,
2013-03-27 02:55:00,42.1,20.1,30.27,ESE,112,0.0,0.0,41,0.00,,---,99.99,VWS V14.01,2013-03-27 06:55:00,
2013-03-27 02:56:00,42.1,20.1,30.27,NNE,22,1.1,2.2,41,0.00,,---,99.99,VWS V14.01,2013-03-27 06:56:00,
2013-03-27 02:57:00,42.1,20.1,30.27,NNW,338,0.0,2.0,41,0.00,,---,99.99,VWS V14.01,2013-03-27 06:57:00,
2013-03-27 02:58:00,42.1,20.1,30.24,NNW,338,0.0,0.0,41,0.00,,---,99.99,VWS V14.01,2013-03-27 06:58:00,
2013-03-27 02:59:00,42.1,19.5,30.24,NNW,338,0.0,0.0,40,0.00,,---,99.99,VWS V14.01,2013-03-27 06:59:00,
2013-03-27 03:00:00,42.1,19.5,30.24,NNW,338,0.0,0.0,40,0.00,,---,99.99,VWS V14.01,2013-03-27 07:00:00,
2013-03-27 03:01:00,42.1,19.5,30.24,ENE,68,0.0,0.0,40,0.00,,---,99.99,VWS V14.01,2013-03-27 07:01:00,
2013-03-27 03:02:00,42.1,19.5,30.24,ENE,68,0.0,0.0,40,0.00,,---,99.99,VWS V14.01,2013-03-27 07:02:00,
2013-03-27 03:03:00,42.1,19.5,30.24,ENE,68,0.0,0.0,40,0.00,,---,99.99,VWS V14.01,2013-03-27 07:03:00,
2013-03-27 03:04:00,42.1,19.5,30.24,ENE,68,0.0,0.0,40,0.00,,---,99.99,VWS V14.01,2013-03-27 07:04:00,
2013-03-27 03:05:00,42.1,19.5,30.24,ENE,68,0.0,0.0,40,0.00,,---,99.99,VWS V14.01,2013-03-27 07:05:00,
2013-03-27 03:06:00,42.1,19.5,30.24,ENE,68,0.0,0.0,40,0.00,,---,99.99,VWS V14.01,2013-03-27 07:06:00,
2013-03-27 03:07:00,42.1,19.5,30.24,ENE,68,0.0,0.0,40,0.00,,---,99.99,VWS V14.01,2013-03-27 07:07:00,
2013-03-27 03:08:00,42.1,19.5,30.24,ENE,68,0.0,0.0,40,0.00,,---,99.99,VWS V14.01,2013-03-27 07:08:00,
2013-03-27 03:09:00,42.1,19.5,30.24,NNE,22,0.0,0.0,40,0.00,,---,99.99,VWS V14.01,2013-03-27 07:09:00,
2013-03-27 03:10:00,42.1,19.5,30.24,North,0,0.9,2.2,40,0.00,,---,99.99,VWS V14.01,2013-03-27 07:10:00,
2013-03-27 03:11:00,42.1,19.5,30.24,NNE,22,0.0,1.3,40,0.00,,---,99.99,VWS V14.01,2013-03-27 07:11:00,
2013-03-27 03:12:00,42.1,19.5,30.24,NNW,338,0.0,1.6,40,0.00,,---,99.99,VWS V14.01,2013-03-27 07:12:00,
2013-03-27 03:13:00,42.3,19.7,30.24,North,0,0.0,0.9,40,0.00,,---,99.99,VWS V14.01,2013-03-27 07:13:00,
2013-03-27 03:14:00,42.3,19.7,30.24,North,0,0.0,0.9,40,0.00,,---,99.99,VWS V14.01,2013-03-27 07:14:00,
2013-03-27 03:15:00,42.3,19.7,30.24,North,0,2.0,2.5,40,0.00,,---,99.99,VWS V14.01,2013-03-27 07:15:00,
2013-03-27 03:16:00,42.3,19.7,30.24,NNW,338,1.6,1.6,40,0.00,,---,99.99,VWS V14.01,2013-03-27 07:16:00,
2013-03-27 03:17:00,42.3,19.7,30.24,NNW,338,0.0,0.0,40,0.00,,---,99.99,VWS V14.01,2013-03-27 07:17:00,
2013-03-27 03:18:00,42.3,19.7,30.24,NNW,338,0.0,0.0,40,0.00,,---,99.99,VWS V14.01,2013-03-27 07:18:00,
2013-03-27 03:19:00,42.3,19.7,30.24,NNW,338,0.0,0.0,40,0.00,,---,99.99,VWS V14.01,2013-03-27 07:19:00,
2013-03-27 03:20:00,42.3,19.7,30.24,ESE,112,0.0,0.0,40,0.00,,---,99.99,VWS V14.01,2013-03-27 07:20:00,
2013-03-27 03:21:00,42.3,19.7,30.24,ESE,112,0.0,0.0,40,0.00,,---,99.99,VWS V14.01,2013-03-27 07:21:00,
2013-03-27 03:22:00,42.3,19.1,30.24,ENE,68,0.0,0.0,39,0.00,,---,99.99,VWS V14.01,2013-03-27 07:22:00,
2013-03-27 03:23:00,42.3,19.1,30.24,NE,45,2.2,2.2,39,0.00,,---,99.99,VWS V14.01,2013-03-27 07:23:00,
2013-03-27 03:24:00,42.3,19.1,30.24,ENE,68,1.1,2.2,39,0.00,,---,99.99,VWS V14.01,2013-03-27 07:24:00,
2013-03-27 03:25:00,42.3,19.1,30.24,North,0,1.3,1.3,39,0.00,,---,99.99,VWS V14.01,2013-03-27 07:25:00,
2013-03-27 03:26:00,42.3,19.1,30.24,NNE,22,0.0,1.3,39,0.00,,---,99.99,VWS V14.01,2013-03-27 07:26:00,
2013-03-27 03:27:00,42.3,19.1,30.24,North,0,0.0,0.0,39,0.00,,---,99.99,VWS V14.01,2013-03-27 07:27:00,
2013-03-27 03:28:00,42.3,19.1,30.24,ENE,68,0.0,1.1,39,0.00,,---,99.99,VWS V14.01,2013-03-27 07:28:00,
2013-03-27 03:29:00,42.3,19.1,30.24,ENE,68,0.0,0.0,39,0.00,,---,99.99,VWS V14.01,2013-03-27 07:29:00,
2013-03-27 03:30:00,42.3,19.1,30.24,North,0,0.0,0.0,39,0.00,,---,99.99,VWS V14.01,2013-03-27 07:30:00,
2013-03-27 03:31:00,42.3,19.1,30.24,ENE,68,0.0,0.0,39,0.00,,---,99.99,VWS V14.01,2013-03-27 07:31:00,
2013-03-27 03:32:00,42.3,19.1,30.24,ENE,68,0.0,0.0,39,0.00,,---,99.99,VWS V14.01,2013-03-27 07:32:00,
2013-03-27 03:33:00,42.1,18.9,30.24,ENE,68,0.0,0.0,39,0.00,,---,99.99,VWS V14.01,2013-03-27 07:33:00,
2013-03-27 03:34:00,42.1,18.9,30.24,NNE,22,0.0,1.1,39,0.00,,---,99.99,VWS V14.01,2013-03-27 07:34:00,
2013-03-27 03:35:00,42.1,18.9,30.24,NNE,22,0.0,1.1,39,0.00,,---,99.99,VWS V14.01,2013-03-27 07:35:00,
2013-03-27 03:36:00,42.1,18.9,30.24,NNE,22,0.0,0.9,39,0.00,,---,99.99,VWS V14.01,2013-03-27 07:36:00,
2013-03-27 03:37:00,42.1,18.9,30.24,North,0,1.6,2.2,39,0.00,,---,99.99,VWS V14.01,2013-03-27 07:37:00,
2013-03-27 03:38:00,42.1,18.9,30.24,North,0,0.0,0.0,39,0.00,,---,99.99,VWS V14.01,2013-03-27 07:38:00,
2013-03-27 03:39:00,42.1,18.9,30.24,SSE,158,0.0,0.0,39,0.00,,---,99.99,VWS V14.01,2013-03-27 07:39:00,
2013-03-27 03:40:00,42.1,18.9,30.24,NNE,22,0.0,1.3,39,0.00,,---,99.99,VWS V14.01,2013-03-27 07:40:00,
2013-03-27 03:41:00,42.1,18.9,30.24,NNE,22,0.0,0.0,39,0.00,,---,99.99,VWS V14.01,2013-03-27 07:41:00,
2013-03-27 03:42:00,42.1,18.9,30.24,NNE,22,0.0,0.0,39,0.00,,---,99.99,VWS V14.01,2013-03-27 07:42:00,
2013-03-27 03:43:00,42.1,18.9,30.24,NNW,338,0.9,0.9,39,0.00,,---,99.99,VWS V14.01,2013-03-27 07:43:00,
2013-03-27 03:44:00,42.1,18.9,30.24,North,0,0.0,0.0,39,0.00,,---,99.99,VWS V14.01,2013-03-27 07:44:00,
2013-03-27 03:45:00,42.1,18.9,30.24,North,0,1.6,1.6,39,0.00,,---,99.99,VWS V14.01,2013-03-27 07:45:00,
2013-03-27 03:46:00,42.1,18.9,30.24,North,0,0.0,1.6,39,0.00,,---,99.99,VWS V14.01,2013-03-27 07:46:00,
2013-03-27 03:47:00,42.1,18.9,30.24,NNE,22,1.6,1.6,39,0.00,,---,99.99,VWS V14.01,2013-03-27 07:47:00,
2013-03-27 03:48:00,42.1,18.9,30.24,NNE,22,0.9,1.6,39,0.00,,---,99.99,VWS V14.01,2013-03-27 07:48:00,
2013-03-27 03:49:00,42.1,18.9,30.24,NNE,22,0.0,0.0,39,0.00,,---,99.99,VWS V14.01,2013-03-27 07:49:00,
2013-03-27 03:50:00,42.1,18.9,30.24,NNE,22,0.0,0.0,39,0.00,,---,99.99,VWS V14.01,2013-03-27 07:50:00,
2013-03-27 03:51:00,41.9,18.8,30.24,NNE,22,0.0,0.0,39,0.00,,---,99.99,VWS V14.01,2013-03-27 07:51:00,
2013-03-27 03:52:00,41.9,18.8,30.24,NNW,338,2.0,2.0,39,0.00,,---,99.99,VWS V14.01,2013-03-27 07:52:00,
2013-03-27 03:53:00,41.9,18.8,30.24,NNW,338,1.1,1.1,39,0.00,,---,99.99,VWS V14.01,2013-03-27 07:53:00,
2013-03-27 03:54:00,41.9,18.8,30.24,NNW,338,0.0,1.1,39,0.00,,---,99.99,VWS V14.01,2013-03-27 07:54:00,
2013-03-27 03:55:00,41.9,18.8,30.24,NNE,22,0.0,0.0,39,0.00,,---,99.99,VWS V14.01,2013-03-27 07:55:00,
2013-03-27 03:56:00,41.9,18.8,30.24,NNE,22,0.0,0.0,39,0.00,,---,99.99,VWS V14.01,2013-03-27 07:56:00,
2013-03-27 03:57:00,41.7,18.6,30.24,NE,45,0.0,0.0,39,0.00,,---,99.99,VWS V14.01,2013-03-27 07:57:00,
2013-03-27 03:58:00,41.7,18.6,30.24,NNW,338,1.3,2.5,39,0.00,,---,99.99,VWS V14.01,2013-03-27 07:58:00,
2013-03-27 03:59:00,41.7,18.6,30.24,East,90,0.9,1.3,39,0.00,,---,99.99,VWS V14.01,2013-03-27 07:59:00,
2013-03-27 04:00:00,41.7,18.6,30.24,ESE,112,0.0,1.3,39,0.00,,---,99.99,VWS V14.01,2013-03-27 08:00:00,
2013-03-27 04:01:00,41.7,18.6,30.24,ESE,112,0.0,0.0,39,0.00,,---,99.99,VWS V14.01,2013-03-27 08:01:00,
2013-03-27 04:02:00,41.7,18.6,30.24,NNE,22,0.0,0.0,39,0.00,,---,99.99,VWS V14.01,2013-03-27 08:02:00,
2013-03-27 04:03:00,41.7,18.6,30.24,NNE,22,0.0,0.0,39,0.00,,---,99.99,VWS V14.01,2013-03-27 08:03:00,
2013-03-27 04:04:00,41.7,18.6,30.24,NNW,338,1.3,1.3,39,0.00,,---,99.99,VWS V14.01,2013-03-27 08:04:00,
2013-03-27 04:05:00,41.7,18.6,30.24,North,0,0.0,0.0,39,0.00,,---,99.99,VWS V14.01,2013-03-27 08:05:00,
2013-03-27 04:06:00,41.7,18.6,30.24,North,0,0.0,0.0,39,0.00,,---,99.99,VWS V14.01,2013-03-27 08:06:00,
2013-03-27 04:07:00,41.7,18.6,30.24,North,0,0.0,0.0,39,0.00,,---,99.99,VWS V14.01,2013-03-27 08:07:00,
2013-03-27 04:08:00,41.7,18.6,30.24,ENE,68,0.0,0.0,39,0.00,,---,99.99,VWS V14.01,2013-03-27 08:08:00,
2013-03-27 04:09:00,41.5,18.4,30.24,ENE,68,0.0,0.0,39,0.00,,---,99.99,VWS V14.01,2013-03-27 08:09:00,
2013-03-27 04:10:00,41.5,18.4,30.24,ENE,68,0.0,0.0,39,0.00,,---,99.99,VWS V14.01,2013-03-27 08:10:00,
2013-03-27 04:11:00,41.5,18.4,30.24,ENE,68,0.0,0.0,39,0.00,,---,99.99,VWS V14.01,2013-03-27 08:11:00,
2013-03-27 04:12:00,41.5,18.4,30.24,ENE,68,0.9,0.9,39,0.00,,---,99.99,VWS V14.01,2013-03-27 08:12:00,
2013-03-27 04:13:00,41.5,18.4,30.24,ENE,68,0.0,0.0,39,0.00,,---,99.99,VWS V14.01,2013-03-27 08:13:00,
2013-03-27 04:14:00,41.5,18.4,30.24,NE,45,1.1,1.1,39,0.00,,---,99.99,VWS V14.01,2013-03-27 08:14:00,
2013-03-27 04:15:00,41.5,18.4,30.24,ESE,112,0.9,0.9,39,0.00,,---,99.99,VWS V14.01,2013-03-27 08:15:00,
2013-03-27 04:16:00,41.5,18.4,30.24,NNE,22,1.1,1.1,39,0.00,,---,99.99,VWS V14.01,2013-03-27 08:16:00,
2013-03-27 04:17:00,41.5,18.4,30.24,North,0,2.7,2.7,39,0.00,,---,99.99,VWS V14.01,2013-03-27 08:17:00,
2013-03-27 04:18:00,41.5,18.4,30.24,NNW,338,1.3,1.3,39,0.00,,---,99.99,VWS V14.01,2013-03-27 08:18:00,
2013-03-27 04:19:00,41.5,18.4,30.24,NNW,338,0.0,1.3,39,0.00,,---,99.99,VWS V14.01,2013-03-27 08:19:00,
2013-03-27 04:20:00,41.5,18.4,30.24,NNW,338,0.0,1.3,39,0.00,,---,99.99,VWS V14.01,2013-03-27 08:20:00,
2013-03-27 04:21:00,41.4,18.3,30.24,NNE,22,0.0,1.3,39,0.00,,---,99.99,VWS V14.01,2013-03-27 08:21:00,
2013-03-27 04:22:00,41.4,18.3,30.24,East,90,0.0,0.0,39,0.00,,---,99.99,VWS V14.01,2013-03-27 08:22:00,
2013-03-27 04:23:00,41.4,18.3,30.24,East,90,0.0,0.0,39,0.00,,---,99.99,VWS V14.01,2013-03-27 08:23:00,
2013-03-27 04:24:00,41.2,18.1,30.24,East,90,0.0,0.0,39,0.00,,---,99.99,VWS V14.01,2013-03-27 08:24:00,
2013-03-27 04:25:00,41.2,18.1,30.24,ENE,68,0.0,0.0,39,0.00,,---,99.99,VWS V14.01,2013-03-27 08:25:00,
2013-03-27 04:26:00,41.2,18.7,30.24,ENE,68,0.0,0.0,40,0.00,,---,99.99,VWS V14.01,2013-03-27 08:26:00,
2013-03-27 04:27:00,41.2,18.7,30.24,ENE,68,0.0,0.0,40,0.00,,---,99.99,VWS V14.01,2013-03-27 08:27:00,
2013-03-27 04:28:00,41.2,18.7,30.27,NNE,22,0.0,0.0,40,0.00,,---,99.99,VWS V14.01,2013-03-27 08:28:00,
2013-03-27 04:29:00,41.0,18.5,30.27,NNE,22,0.0,0.0,40,0.00,,---,99.99,VWS V14.01,2013-03-27 08:29:00,
2013-03-27 04:30:00,41.0,18.5,30.27,NE,45,0.0,0.0,40,0.00,,---,99.99,VWS V14.01,2013-03-27 08:30:00,
2013-03-27 04:31:00,41.0,18.5,30.27,ENE,68,0.0,0.0,40,0.00,,---,99.99,VWS V14.01,2013-03-27 08:31:00,
2013-03-27 04:32:00,41.0,18.5,30.27,ENE,68,0.0,0.0,40,0.00,,---,99.99,VWS V14.01,2013-03-27 08:32:00,
2013-03-27 04:33:00,40.8,18.4,30.27,ENE,68,0.0,0.0,40,0.00,,---,99.99,VWS V14.01,2013-03-27 08:33:00,
2013-03-27 04:34:00,40.8,18.4,30.27,ENE,68,0.0,0.0,40,0.00,,---,99.99,VWS V14.01,2013-03-27 08:34:00,
2013-03-27 04:35:00,40.8,18.4,30.27,ENE,68,0.0,0.0,40,0.00,,---,99.99,VWS V14.01,2013-03-27 08:35:00,
2013-03-27 04:36:00,40.6,18.2,30.27,ENE,68,0.0,0.0,40,0.00,,---,99.99,VWS V14.01,2013-03-27 08:36:00,
2013-03-27 04:37:00,40.6,18.2,30.27,ENE,68,0.0,0.0,40,0.00,,---,99.99,VWS V14.01,2013-03-27 08:37:00,
2013-03-27 04:38:00,40.6,18.2,30.27,ENE,68,0.0,0.0,40,0.00,,---,99.99,VWS V14.01,2013-03-27 08:38:00,
2013-03-27 04:39:00,40.6,18.2,30.27,ENE,68,0.0,0.0,40,0.00,,---,99.99,VWS V14.01,2013-03-27 08:39:00,
2013-03-27 04:40:00,40.6,18.2,30.27,ENE,68,0.0,0.0,40,0.00,,---,99.99,VWS V14.01,2013-03-27 08:40:00,
2013-03-27 04:41:00,40.6,18.2,30.27,NNW,338,0.0,0.9,40,0.00,,---,99.99,VWS V14.01,2013-03-27 08:41:00,
2013-03-27 04:42:00,40.5,18.1,30.27,NNW,338,0.0,0.0,40,0.00,,---,99.99,VWS V14.01,2013-03-27 08:42:00,
2013-03-27 04:43:00,40.5,18.1,30.27,NNW,338,0.0,0.0,40,0.00,,---,99.99,VWS V14.01,2013-03-27 08:43:00,
2013-03-27 04:44:00,40.6,18.2,30.27,NNW,338,0.0,0.0,40,0.00,,---,99.99,VWS V14.01,2013-03-27 08:44:00,
2013-03-27 04:45:00,40.6,18.2,30.27,NNW,338,0.0,0.0,40,0.00,,---,99.99,VWS V14.01,2013-03-27 08:45:00,
2013-03-27 04:46:00,40.6,18.2,30.27,NNW,338,0.0,0.0,40,0.00,,---,99.99,VWS V14.01,2013-03-27 08:46:00,
2013-03-27 04:47:00,40.6,18.2,30.27,NNW,338,0.0,0.0,40,0.00,,---,99.99,VWS V14.01,2013-03-27 08:47:00,
2013-03-27 04:48:00,40.6,18.2,30.27,NNW,338,0.0,0.0,40,0.00,,---,99.99,VWS V14.01,2013-03-27 08:48:00,
2013-03-27 04:49:00,40.6,18.2,30.27,NNW,338,0.0,0.0,40,0.00,,---,99.99,VWS V14.01,2013-03-27 08:49:00,
2013-03-27 04:50:00,40.5,18.1,30.27,NNW,338,0.0,0.0,40,0.00,,---,99.99,VWS V14.01,2013-03-27 08:50:00,
2013-03-27 04:51:00,40.5,18.1,30.27,NNW,338,0.0,0.0,40,0.00,,---,99.99,VWS V14.01,2013-03-27 08:51:00,
2013-03-27 04:52:00,40.5,18.1,30.27,NNW,338,0.0,0.0,40,0.00,,---,99.99,VWS V14.01,2013-03-27 08:52:00,
2013-03-27 04:53:00,40.5,18.1,30.27,NNW,338,0.0,0.0,40,0.00,,---,99.99,VWS V14.01,2013-03-27 08:53:00,
2013-03-27 04:54:00,40.5,18.1,30.27,NNW,338,0.0,0.0,40,0.00,,---,99.99,VWS V14.01,2013-03-27 08:54:00,
2013-03-27 04:55:00,40.5,18.1,30.27,NNW,338,0.0,0.0,40,0.00,,---,99.99,VWS V14.01,2013-03-27 08:55:00,
2013-03-27 04:56:00,40.5,18.6,30.27,NNE,22,1.1,1.1,41,0.00,,---,99.99,VWS V14.01,2013-03-27 08:56:00,
2013-03-27 04:57:00,40.5,18.6,30.27,NNE,22,1.1,1.1,41,0.00,,---,99.99,VWS V14.01,2013-03-27 08:57:00,
2013-03-27 04:58:00,40.5,18.6,30.27,NNW,338,0.0,0.0,41,0.00,,---,99.99,VWS V14.01,2013-03-27 08:58:00,
2013-03-27 04:59:00,40.6,18.8,30.27,North,0,0.9,2.2,41,0.00,,---,99.99,VWS V14.01,2013-03-27 08:59:00,
2013-03-27 05:00:00,40.6,18.8,30.27,North,0,0.9,2.2,41,0.00,,---,0.08,VWS V14.01,2013-03-27 09:00:00,
2013-03-27 05:01:00,40.6,18.8,30.27,North,0,1.3,2.9,41,0.00,,---,99.99,VWS V14.01,2013-03-27 09:01:00,
2013-03-27 05:02:00,40.6,18.8,30.27,ENE,68,0.0,0.0,41,0.00,,---,99.99,VWS V14.01,2013-03-27 09:02:00,
2013-03-27 05:03:00,40.6,18.8,30.27,ENE,68,0.0,0.0,41,0.00,,---,99.99,VWS V14.01,2013-03-27 09:03:00,
2013-03-27 05:04:00,40.6,18.8,30.27,NNE,22,0.9,1.3,41,0.00,,---,99.99,VWS V14.01,2013-03-27 09:04:00,
2013-03-27 05:05:00,40.6,18.8,30.27,NNE,22,0.9,1.3,41,0.00,,---,99.99,VWS V14.01,2013-03-27 09:05:00,
2013-03-27 05:06:00,40.6,18.8,30.27,North,0,0.9,0.9,41,0.00,,---,99.99,VWS V14.01,2013-03-27 09:06:00,
2013-03-27 05:07:00,40.6,18.8,30.27,NNW,338,0.9,0.9,41,0.00,,---,99.99,VWS V14.01,2013-03-27 09:07:00,
2013-03-27 05:08:00,40.6,18.8,30.27,WNW,292,0.0,0.9,41,0.00,,---,99.99,VWS V14.01,2013-03-27 09:08:00,
2013-03-27 05:09:00,40.6,18.8,30.27,WNW,292,2.2,2.2,41,0.00,,---,99.99,VWS V14.01,2013-03-27 09:09:00,
2013-03-27 05:10:00,40.6,18.8,30.27,WNW,292,2.2,2.2,41,0.00,,---,99.99,VWS V14.01,2013-03-27 09:10:00,
2013-03-27 05:11:00,40.6,18.8,30.27,WNW,292,2.2,2.2,41,0.00,,---,99.99,VWS V14.01,2013-03-27 09:11:00,
2013-03-27 05:12:00,40.6,18.8,30.27,WNW,292,2.2,2.2,41,0.00,,---,99.99,VWS V14.01,2013-03-27 09:12:00,
2013-03-27 05:13:00,40.6,18.8,30.30,NNE,22,0.9,2.2,41,0.00,,---,99.99,VWS V14.01,2013-03-27 09:13:00,
2013-03-27 05:14:00,40.5,18.1,30.30,East,90,1.3,1.3,40,0.00,,---,99.99,VWS V14.01,2013-03-27 09:14:00,
2013-03-27 05:15:00,40.5,18.1,30.30,East,90,1.3,1.3,40,0.00,,---,99.99,VWS V14.01,2013-03-27 09:15:00,
2013-03-27 05:16:00,40.5,18.1,30.30,East,90,1.3,1.3,40,0.00,,---,99.99,VWS V14.01,2013-03-27 09:16:00,
2013-03-27 05:17:00,40.5,18.1,30.30,East,90,1.3,1.3,40,0.00,,---,99.99,VWS V14.01,2013-03-27 09:17:00,
2013-03-27 05:18:00,40.6,18.2,30.30,North,0,0.0,1.3,40,0.00,,---,99.99,VWS V14.01,2013-03-27 09:18:00,
2013-03-27 05:19:00,40.6,18.8,30.30,North,0,0.0,1.3,41,0.00,,---,99.99,VWS V14.01,2013-03-27 09:19:00,
2013-03-27 05:20:00,40.6,18.8,30.30,North,0,0.0,0.0,41,0.00,,---,99.99,VWS V14.01,2013-03-27 09:20:00,
2013-03-27 05:21:00,40.6,18.2,30.30,NNW,338,0.0,0.0,40,0.00,,---,99.99,VWS V14.01,2013-03-27 09:21:00,
2013-03-27 05:22:00,40.6,18.8,30.30,NNW,338,0.0,0.0,41,0.00,,---,99.99,VWS V14.01,2013-03-27 09:22:00,
2013-03-27 05:23:00,40.8,18.4,30.30,NNW,338,0.0,0.0,40,0.00,,---,99.99,VWS V14.01,2013-03-27 09:23:00,
2013-03-27 05:24:00,40.8,18.4,30.30,NNW,338,0.0,0.0,40,0.00,,---,99.99,VWS V14.01,2013-03-27 09:24:00,
2013-03-27 05:25:00,40.8,18.4,30.30,NNW,338,0.0,0.0,40,0.00,,---,99.99,VWS V14.01,2013-03-27 09:25:00,
2013-03-27 05:26:00,40.8,18.4,30.30,NNW,338,0.0,0.0,40,0.00,,---,99.99,VWS V14.01,2013-03-27 09:26:00,
2013-03-27 05:27:00,40.8,18.4,30.30,NNW,338,0.0,0.0,40,0.00,,---,99.99,VWS V14.01,2013-03-27 09:27:00,
2013-03-27 05:28:00,40.8,18.4,30.27,NNW,338,0.0,0.0,40,0.00,,---,99.99,VWS V14.01,2013-03-27 09:28:00,
2013-03-27 05:29:00,40.8,18.4,30.27,NNE,22,1.3,1.3,40,0.00,,---,99.99,VWS V14.01,2013-03-27 09:29:00,
2013-03-27 05:30:00,40.8,18.4,30.27,NNE,22,1.3,1.3,40,0.00,,---,99.99,VWS V14.01,2013-03-27 09:30:00,
2013-03-27 05:31:00,40.8,18.4,30.27,NNE,22,1.3,1.3,40,0.00,,---,99.99,VWS V14.01,2013-03-27 09:31:00,
2013-03-27 05:32:00,40.6,18.2,30.27,East,90,0.0,0.0,40,0.00,,---,99.99,VWS V14.01,2013-03-27 09:32:00,
2013-03-27 05:33:00,40.6,18.2,30.27,East,90,0.0,0.0,40,0.00,,---,99.99,VWS V14.01,2013-03-27 09:33:00,
2013-03-27 05:34:00,40.8,18.4,30.27,East,90,0.0,0.0,40,0.00,,---,99.99,VWS V14.01,2013-03-27 09:34:00,
2013-03-27 05:35:00,40.8,18.4,30.27,East,90,0.0,0.0,40,0.00,,---,99.99,VWS V14.01,2013-03-27 09:35:00,
2013-03-27 05:36:00,40.8,18.4,30.27,East,90,0.0,0.0,40,0.00,,---,99.99,VWS V14.01,2013-03-27 09:36:00,
2013-03-27 05:37:00,40.8,18.4,30.27,ENE,68,3.1,3.1,40,0.00,,---,99.99,VWS V14.01,2013-03-27 09:37:00,
2013-03-27 05:38:00,40.8,18.4,30.27,ENE,68,3.1,3.1,40,0.00,,---,99.99,VWS V14.01,2013-03-27 09:38:00,
2013-03-27 05:39:00,40.8,18.4,30.27,ENE,68,3.1,3.1,40,0.00,,---,99.99,VWS V14.01,2013-03-27 09:39:00,
2013-03-27 05:40:00,40.8,18.4,30.27,ENE,68,3.1,3.1,40,0.00,,---,99.99,VWS V14.01,2013-03-27 09:40:00,
2013-03-27 05:41:00,40.6,18.2,30.27,ENE,68,3.1,3.1,40,0.00,,---,99.99,VWS V14.01,2013-03-27 09:41:00,
2013-03-27 05:42:00,40.6,18.2,30.27,ENE,68,3.1,3.1,40,0.00,,---,99.99,VWS V14.01,2013-03-27 09:42:00,
2013-03-27 05:43:00,40.6,18.2,30.27,ENE,68,3.1,3.1,40,0.00,,---,99.99,VWS V14.01,2013-03-27 09:43:00,
2013-03-27 05:44:00,40.6,18.2,30.27,ENE,68,3.1,3.1,40,0.00,,---,99.99,VWS V14.01,2013-03-27 09:44:00,
2013-03-27 05:45:00,40.6,18.2,30.27,ENE,68,3.1,3.1,40,0.00,,---,99.99,VWS V14.01,2013-03-27 09:45:00,
2013-03-27 05:46:00,40.6,18.2,30.27,ENE,68,3.1,3.1,40,0.00,,---,99.99,VWS V14.01,2013-03-27 09:46:00,
2013-03-27 05:47:00,40.6,18.2,30.27,WSW,248,1.1,3.1,40,0.00,,---,99.99,VWS V14.01,2013-03-27 09:47:00,
2013-03-27 05:48:00,40.6,18.2,30.27,WSW,248,1.1,1.1,40,0.00,,---,99.99,VWS V14.01,2013-03-27 09:48:00,
2013-03-27 05:49:00,40.6,18.2,30.27,WSW,248,1.1,1.1,40,0.00,,---,99.99,VWS V14.01,2013-03-27 09:49:00,
2013-03-27 05:50:00,40.5,18.1,30.27,WSW,248,1.1,1.1,40,0.00,,---,99.99,VWS V14.01,2013-03-27 09:50:00,
2013-03-27 05:51:00,40.5,18.1,30.27,WSW,248,1.1,1.1,40,0.00,,---,99.99,VWS V14.01,2013-03-27 09:51:00,
2013-03-27 05:52:00,40.5,18.1,30.27,WSW,248,1.1,1.1,40,0.00,,---,99.99,VWS V14.01,2013-03-27 09:52:00,
2013-03-27 05:53:00,40.5,18.1,30.27,WSW,248,1.1,1.1,40,0.00,,---,99.99,VWS V14.01,2013-03-27 09:53:00,
2013-03-27 05:54:00,40.5,18.1,30.27,WSW,248,1.1,1.1,40,0.00,,---,99.99,VWS V14.01,2013-03-27 09:54:00,
2013-03-27 05:55:00,40.5,18.1,30.27,WSW,248,1.1,1.1,40,0.00,,---,99.99,VWS V14.01,2013-03-27 09:55:00,
2013-03-27 05:56:00,40.5,18.1,30.27,WSW,248,1.1,1.1,40,0.00,,---,99.99,VWS V14.01,2013-03-27 09:56:00,
2013-03-27 05:57:00,40.5,18.1,30.27,WSW,248,1.1,1.1,40,0.00,,---,99.99,VWS V14.01,2013-03-27 09:57:00,
2013-03-27 05:58:00,40.5,18.1,30.27,WSW,248,1.1,1.1,40,0.00,,---,99.99,VWS V14.01,2013-03-27 09:58:00,
2013-03-27 05:59:00,40.3,17.9,30.27,WSW,248,1.1,1.1,40,0.00,,---,99.99,VWS V14.01,2013-03-27 09:59:00,
2013-03-27 06:00:00,40.3,17.9,30.27,WSW,248,1.1,1.1,40,0.00,,---,99.99,VWS V14.01,2013-03-27 10:00:00,
2013-03-27 06:01:00,40.3,17.9,30.27,WSW,248,1.1,1.1,40,0.00,,---,99.99,VWS V14.01,2013-03-27 10:01:00,
2013-03-27 06:02:00,40.3,17.9,30.27,WSW,248,1.1,1.1,40,0.00,,---,99.99,VWS V14.01,2013-03-27 10:02:00,
2013-03-27 06:03:00,40.3,17.9,30.27,WSW,248,1.1,1.1,40,0.00,,---,99.99,VWS V14.01,2013-03-27 10:03:00,
2013-03-27 06:04:00,40.3,17.9,30.27,WSW,248,1.1,1.1,40,0.00,,---,99.99,VWS V14.01,2013-03-27 10:04:00,
2013-03-27 06:05:00,40.3,17.9,30.27,WSW,248,1.1,1.1,40,0.00,,---,99.99,VWS V14.01,2013-03-27 10:05:00,
2013-03-27 06:06:00,40.3,17.9,30.27,WSW,248,1.1,1.1,40,0.00,,---,99.99,VWS V14.01,2013-03-27 10:06:00,
2013-03-27 06:07:00,40.1,17.7,30.27,WSW,248,1.1,1.1,40,0.00,,---,99.99,VWS V14.01,2013-03-27 10:07:00,
2013-03-27 06:08:00,40.1,17.7,30.27,WSW,248,1.1,1.1,40,0.00,,---,99.99,VWS V14.01,2013-03-27 10:08:00,
2013-03-27 06:09:00,40.1,17.7,30.27,WSW,248,1.1,1.1,40,0.00,,---,99.99,VWS V14.01,2013-03-27 10:09:00,
2013-03-27 06:10:00,40.1,17.7,30.27,WSW,248,1.1,1.1,40,0.00,,---,99.99,VWS V14.01,2013-03-27 10:10:00,
2013-03-27 06:11:00,40.1,17.7,30.27,WSW,248,1.1,1.1,40,0.00,,---,99.99,VWS V14.01,2013-03-27 10:11:00,
2013-03-27 06:12:00,40.1,17.7,30.27,WSW,248,1.1,1.1,40,0.00,,---,99.99,VWS V14.01,2013-03-27 10:12:00,
2013-03-27 06:13:00,40.1,17.7,30.30,NNE,22,1.3,1.3,40,0.00,,---,99.99,VWS V14.01,2013-03-27 10:13:00,
2013-03-27 06:14:00,39.9,17.6,30.30,NNE,22,1.3,1.3,40,0.00,,---,99.99,VWS V14.01,2013-03-27 10:14:00,
2013-03-27 06:15:00,39.9,17.6,30.30,NNE,22,1.3,1.3,40,0.00,,---,99.99,VWS V14.01,2013-03-27 10:15:00,
2013-03-27 06:16:00,39.9,17.6,30.30,NNE,22,1.3,1.3,40,0.00,,---,99.99,VWS V14.01,2013-03-27 10:16:00,
2013-03-27 06:17:00,39.7,17.4,30.30,NNE,22,1.3,1.3,40,0.00,,---,99.99,VWS V14.01,2013-03-27 10:17:00,
2013-03-27 06:18:00,39.7,17.4,30.30,NNE,22,1.3,1.3,40,0.00,,---,99.99,VWS V14.01,2013-03-27 10:18:00,
2013-03-27 06:19:00,39.7,17.4,30.30,North,0,0.0,1.3,40,0.00,,---,99.99,VWS V14.01,2013-03-27 10:19:00,
2013-03-27 06:20:00,39.7,17.4,30.30,ENE,68,1.1,1.1,40,0.00,,---,99.99,VWS V14.01,2013-03-27 10:20:00,
2013-03-27 06:21:00,39.7,17.4,30.30,ENE,68,1.1,1.1,40,0.00,,---,99.99,VWS V14.01,2013-03-27 10:21:00,
2013-03-27 06:22:00,39.7,17.4,30.30,NNE,22,0.9,1.1,40,0.00,,---,99.99,VWS V14.01,2013-03-27 10:22:00,
2013-03-27 06:23:00,39.7,17.4,30.30,NNE,22,0.9,0.9,40,0.00,,---,99.99,VWS V14.01,2013-03-27 10:23:00,
2013-03-27 06:24:00,39.7,17.4,30.30,NNE,22,0.9,0.9,40,0.00,,---,99.99,VWS V14.01,2013-03-27 10:24:00,
2013-03-27 06:25:00,39.7,17.4,30.30,NNE,22,0.9,0.9,40,0.00,,---,99.99,VWS V14.01,2013-03-27 10:25:00,
2013-03-27 06:26:00,39.7,17.4,30.30,NNE,22,0.9,0.9,40,0.00,,---,99.99,VWS V14.01,2013-03-27 10:26:00,
2013-03-27 06:27:00,39.7,17.4,30.30,NNE,22,0.9,0.9,40,0.00,,---,99.99,VWS V14.01,2013-03-27 10:27:00,
2013-03-27 06:28:00,39.6,17.2,30.30,NNE,22,0.9,0.9,40,0.00,,---,99.99,VWS V14.01,2013-03-27 10:28:00,
2013-03-27 06:29:00,39.6,17.2,30.30,NNE,22,0.9,0.9,40,0.00,,---,99.99,VWS V14.01,2013-03-27 10:29:00,
2013-03-27 06:30:00,39.6,17.2,30.30,NNE,22,0.9,0.9,40,0.00,,---,99.99,VWS V14.01,2013-03-27 10:30:00,
2013-03-27 06:31:00,39.6,17.2,30.30,NNE,22,0.9,0.9,40,0.00,,---,99.99,VWS V14.01,2013-03-27 10:31:00,
2013-03-27 06:32:00,39.6,17.2,30.30,NNE,22,0.9,0.9,40,0.00,,---,99.99,VWS V14.01,2013-03-27 10:32:00,
2013-03-27 06:33:00,39.4,17.1,30.30,NNE,22,0.9,0.9,40,0.00,,---,99.99,VWS V14.01,2013-03-27 10:33:00,
2013-03-27 06:34:00,39.4,17.1,30.30,NNE,22,0.9,0.9,40,0.00,,---,99.99,VWS V14.01,2013-03-27 10:34:00,
2013-03-27 06:35:00,39.4,17.1,30.30,NNE,22,0.9,0.9,40,0.00,,---,99.99,VWS V14.01,2013-03-27 10:35:00,
2013-03-27 06:36:00,39.4,17.1,30.30,NNE,22,0.9,0.9,40,0.00,,---,99.99,VWS V14.01,2013-03-27 10:36:00,
2013-03-27 06:37:00,39.4,17.1,30.30,NNE,22,0.9,0.9,40,0.00,,---,99.99,VWS V14.01,2013-03-27 10:37:00,
2013-03-27 06:38:00,39.4,17.7,30.30,NNE,22,0.9,0.9,41,0.00,,---,99.99,VWS V14.01,2013-03-27 10:38:00,
2013-03-27 06:39:00,39.4,17.7,30.30,ENE,68,1.1,1.1,41,0.00,,---,99.99,VWS V14.01,2013-03-27 10:39:00,
2013-03-27 06:40:00,39.6,17.8,30.30,ENE,68,1.1,1.1,41,0.00,,---,99.99,VWS V14.01,2013-03-27 10:40:00,
2013-03-27 06:41:00,39.6,17.8,30.30,ENE,68,1.1,1.1,41,0.00,,---,99.99,VWS V14.01,2013-03-27 10:41:00,
2013-03-27 06:42:00,39.4,17.7,30.30,ENE,68,1.1,1.1,41,0.00,,---,99.99,VWS V14.01,2013-03-27 10:42:00,
2013-03-27 06:43:00,39.4,17.7,30.30,ENE,68,1.1,1.1,41,0.00,,---,99.99,VWS V14.01,2013-03-27 10:43:00,
2013-03-27 06:44:00,39.4,17.7,30.30,ENE,68,1.1,1.1,41,0.00,,---,99.99,VWS V14.01,2013-03-27 10:44:00,
2013-03-27 06:45:00,39.4,17.7,30.30,ENE,68,1.1,1.1,41,0.00,,---,99.99,VWS V14.01,2013-03-27 10:45:00,
2013-03-27 06:46:00,39.4,17.7,30.30,ESE,112,3.4,3.4,41,0.00,,---,99.99,VWS V14.01,2013-03-27 10:46:00,
2013-03-27 06:47:00,39.4,17.7,30.30,ESE,112,3.4,3.4,41,0.00,,---,99.99,VWS V14.01,2013-03-27 10:47:00,
2013-03-27 06:48:00,39.4,17.7,30.30,ESE,112,3.4,3.4,41,0.00,,---,99.99,VWS V14.01,2013-03-27 10:48:00,
2013-03-27 06:49:00,39.4,17.7,30.30,ESE,112,3.4,3.4,41,0.00,,---,99.99,VWS V14.01,2013-03-27 10:49:00,
2013-03-27 06:50:00,39.4,17.7,30.30,ESE,112,3.4,3.4,41,0.00,,---,99.99,VWS V14.01,2013-03-27 10:50:00,
2013-03-27 06:51:00,39.4,17.7,30.30,ESE,112,3.4,3.4,41,0.00,,---,99.99,VWS V14.01,2013-03-27 10:51:00,
2013-03-27 06:52:00,39.6,17.8,30.30,ESE,112,3.4,3.4,41,0.00,,---,99.99,VWS V14.01,2013-03-27 10:52:00,
2013-03-27 06:53:00,39.4,17.7,30.30,North,0,2.2,3.4,41,0.00,,---,99.99,VWS V14.01,2013-03-27 10:53:00,
2013-03-27 06:54:00,39.6,17.8,30.30,North,0,2.2,2.2,41,0.00,,---,99.99,VWS V14.01,2013-03-27 10:54:00,
2013-03-27 06:55:00,39.6,17.8,30.30,North,0,2.2,2.2,41,0.00,,---,99.99,VWS V14.01,2013-03-27 10:55:00,
2013-03-27 06:56:00,39.6,17.8,30.30,North,0,2.2,2.2,41,0.00,,---,99.99,VWS V14.01,2013-03-27 10:56:00,
2013-03-27 06:57:00,39.6,17.8,30.30,North,0,2.2,2.2,41,0.00,,---,99.99,VWS V14.01,2013-03-27 10:57:00,
2013-03-27 06:58:00,39.6,17.8,30.30,North,0,2.2,2.2,41,0.00,,---,99.99,VWS V14.01,2013-03-27 10:58:00,
2013-03-27 06:59:00,39.6,17.8,30.30,North,0,2.2,2.2,41,0.00,,---,99.99,VWS V14.01,2013-03-27 10:59:00,
2013-03-27 07:00:00,39.6,17.8,30.30,North,0,2.2,2.2,41,0.00,,---,99.99,VWS V14.01,2013-03-27 11:00:00,
2013-03-27 07:01:00,39.7,18.0,30.30,North,0,2.2,2.2,41,0.00,,---,99.99,VWS V14.01,2013-03-27 11:01:00,
2013-03-27 07:02:00,39.7,18.0,30.30,North,0,2.2,2.2,41,0.00,,---,99.99,VWS V14.01,2013-03-27 11:02:00,
2013-03-27 07:03:00,39.7,18.0,30.30,North,0,2.2,2.2,41,0.00,,---,99.99,VWS V14.01,2013-03-27 11:03:00,
2013-03-27 07:04:00,39.7,18.0,30.30,North,0,2.2,2.2,41,0.00,,---,99.99,VWS V14.01,2013-03-27 11:04:00,
2013-03-27 07:05:00,39.7,18.0,30.30,North,0,2.2,2.2,41,0.00,,---,99.99,VWS V14.01,2013-03-27 11:05:00,
2013-03-27 07:06:00,39.7,18.0,30.30,NE,45,2.0,2.2,41,0.00,,---,99.99,VWS V14.01,2013-03-27 11:06:00,
2013-03-27 07:07:00,39.7,18.0,30.30,NE,45,2.0,2.0,41,0.00,,---,99.99,VWS V14.01,2013-03-27 11:07:00,
2013-03-27 07:08:00,39.7,18.0,30.30,NE,45,2.0,2.0,41,0.00,,---,99.99,VWS V14.01,2013-03-27 11:08:00,
2013-03-27 07:09:00,39.7,18.0,30.30,NE,45,2.0,2.0,41,0.00,,---,99.99,VWS V14.01,2013-03-27 11:09:00,
2013-03-27 07:10:00,39.7,18.0,30.30,NE,45,2.0,2.0,41,0.00,,---,99.99,VWS V14.01,2013-03-27 11:10:00,
2013-03-27 07:11:00,39.9,18.1,30.30,NE,45,2.0,2.0,41,0.00,,---,99.99,VWS V14.01,2013-03-27 11:11:00,
2013-03-27 07:12:00,39.9,18.1,30.30,NE,45,2.0,2.0,41,0.00,,---,99.99,VWS V14.01,2013-03-27 11:12:00,
2013-03-27 07:13:00,39.9,18.1,30.33,NE,45,2.0,2.0,41,0.00,,---,99.99,VWS V14.01,2013-03-27 11:13:00,
2013-03-27 07:14:00,39.9,18.1,30.33,NE,45,2.0,2.0,41,0.00,,---,99.99,VWS V14.01,2013-03-27 11:14:00,
2013-03-27 07:15:00,39.9,18.1,30.33,NE,45,2.0,2.0,41,0.00,,---,99.99,VWS V14.01,2013-03-27 11:15:00,
2013-03-27 07:16:00,40.1,18.3,30.33,NE,45,2.0,2.0,41,0.00,,---,99.99,VWS V14.01,2013-03-27 11:16:00,
2013-03-27 07:17:00,40.1,18.3,30.33,NNE,22,1.1,2.0,41,0.00,,---,99.99,VWS V14.01,2013-03-27 11:17:00,
2013-03-27 07:18:00,40.1,18.3,30.33,NNE,22,1.1,1.1,41,0.00,,---,99.99,VWS V14.01,2013-03-27 11:18:00,
2013-03-27 07:19:00,40.3,18.5,30.33,NNE,22,1.1,1.1,41,0.00,,---,99.99,VWS V14.01,2013-03-27 11:19:00,
2013-03-27 07:20:00,40.5,18.6,30.33,ESE,112,1.6,1.6,41,0.00,,---,99.99,VWS V14.01,2013-03-27 11:20:00,
2013-03-27 07:21:00,40.5,18.6,30.33,NNE,22,1.3,1.6,41,0.00,,---,99.99,VWS V14.01,2013-03-27 11:21:00,
2013-03-27 07:22:00,40.5,18.6,30.33,NNE,22,1.1,1.6,41,0.00,,---,99.99,VWS V14.01,2013-03-27 11:22:00,
2013-03-27 07:23:00,40.6,18.8,30.33,NNE,22,1.1,1.1,41,0.00,,---,99.99,VWS V14.01,2013-03-27 11:23:00,
2013-03-27 07:24:00,40.6,18.8,30.33,NE,45,1.1,1.1,41,0.00,,---,99.99,VWS V14.01,2013-03-27 11:24:00,
2013-03-27 07:25:00,40.6,18.8,30.33,NE,45,1.1,1.1,41,0.00,,---,99.99,VWS V14.01,2013-03-27 11:25:00,
2013-03-27 07:26:00,40.8,19.0,30.33,NE,45,1.1,1.1,41,0.00,,---,99.99,VWS V14.01,2013-03-27 11:26:00,
2013-03-27 07:27:00,41.0,18.5,30.33,NE,45,1.1,1.1,40,0.00,,---,99.99,VWS V14.01,2013-03-27 11:27:00,
2013-03-27 07:28:00,41.0,18.5,30.33,NNW,338,4.7,4.7,40,0.00,,---,99.99,VWS V14.01,2013-03-27 11:28:00,
2013-03-27 07:29:00,41.0,18.5,30.33,NNW,338,4.7,4.7,40,0.00,,---,99.99,VWS V14.01,2013-03-27 11:29:00,
2013-03-27 07:30:00,41.0,18.5,30.33,NNW,338,4.7,4.7,40,0.00,,---,99.99,VWS V14.01,2013-03-27 11:30:00,
2013-03-27 07:31:00,41.0,18.5,30.33,NNW,338,4.7,4.7,40,0.00,,---,99.99,VWS V14.01,2013-03-27 11:31:00,
2013-03-27 07:32:00,41.2,18.7,30.33,East,90,0.0,0.0,40,0.00,,---,99.99,VWS V14.01,2013-03-27 11:32:00,
2013-03-27 07:33:00,41.2,18.7,30.33,East,90,0.0,0.0,40,0.00,,---,99.99,VWS V14.01,2013-03-27 11:33:00,
2013-03-27 07:34:00,41.2,18.7,30.33,East,90,0.0,0.0,40,0.00,,---,99.99,VWS V14.01,2013-03-27 11:34:00,
2013-03-27 07:35:00,41.2,18.7,30.33,ENE,68,0.0,0.0,40,0.00,,---,99.99,VWS V14.01,2013-03-27 11:35:00,
2013-03-27 07:36:00,41.2,18.7,30.33,ENE,68,0.0,0.0,40,0.00,,---,99.99,VWS V14.01,2013-03-27 11:36:00,
2013-03-27 07:37:00,41.2,18.7,30.33,ENE,68,0.0,0.0,40,0.00,,---,99.99,VWS V14.01,2013-03-27 11:37:00,
2013-03-27 07:38:00,41.2,18.7,30.33,ENE,68,0.0,0.0,40,0.00,,---,99.99,VWS V14.01,2013-03-27 11:38:00,
2013-03-27 07:39:00,41.2,18.7,30.33,WNW,292,0.9,0.9,40,0.00,,---,99.99,VWS V14.01,2013-03-27 11:39:00,
2013-03-27 07:40:00,41.4,18.9,30.33,WNW,292,0.0,0.0,40,0.00,,---,99.99,VWS V14.01,2013-03-27 11:40:00,
2013-03-27 07:41:00,41.4,18.9,30.33,WNW,292,0.0,0.0,40,0.00,,---,99.99,VWS V14.01,2013-03-27 11:41:00,
2013-03-27 07:42:00,41.4,18.9,30.33,North,0,2.5,2.5,40,0.00,,---,99.99,VWS V14.01,2013-03-27 11:42:00,
2013-03-27 07:43:00,41.4,18.9,30.33,North,0,2.5,2.5,40,0.00,,---,99.99,VWS V14.01,2013-03-27 11:43:00,
2013-03-27 07:44:00,41.4,18.9,30.33,North,0,2.5,2.5,40,0.00,,---,99.99,VWS V14.01,2013-03-27 11:44:00,
2013-03-27 07:45:00,41.4,18.3,30.33,NNW,338,3.8,3.8,39,0.00,,---,99.99,VWS V14.01,2013-03-27 11:45:00,
2013-03-27 07:46:00,41.5,18.4,30.33,SSW,202,1.6,2.5,39,0.00,,---,99.99,VWS V14.01,2013-03-27 11:46:00,
2013-03-27 07:47:00,41.5,18.4,30.33,NNE,22,2.5,2.5,39,0.00,,---,99.99,VWS V14.01,2013-03-27 11:47:00,
2013-03-27 07:48:00,41.5,18.4,30.33,NNE,22,2.5,2.5,39,0.00,,---,99.99,VWS V14.01,2013-03-27 11:48:00,
2013-03-27 07:49:00,41.5,18.4,30.33,NNW,338,2.7,2.7,39,0.00,,---,99.99,VWS V14.01,2013-03-27 11:49:00,
2013-03-27 07:50:00,41.7,18.6,30.33,East,90,2.0,2.9,39,0.00,,---,99.99,VWS V14.01,2013-03-27 11:50:00,
2013-03-27 07:51:00,41.7,18.6,30.33,NNE,22,6.7,6.7,39,0.00,,---,99.99,VWS V14.01,2013-03-27 11:51:00,
2013-03-27 07:52:00,41.7,18.6,30.33,SSW,202,2.2,2.7,39,0.00,,---,99.99,VWS V14.01,2013-03-27 11:52:00,
2013-03-27 07:53:00,41.7,18.6,30.33,NNW,338,0.0,2.7,39,0.00,,---,99.99,VWS V14.01,2013-03-27 11:53:00,
2013-03-27 07:54:00,41.7,18.6,30.33,NNW,338,0.0,0.0,39,0.00,,---,99.99,VWS V14.01,2013-03-27 11:54:00,
2013-03-27 07:55:00,41.9,18.8,30.33,NNW,338,0.0,0.0,39,0.00,,---,99.99,VWS V14.01,2013-03-27 11:55:00,
2013-03-27 07:56:00,41.9,18.8,30.33,NNW,338,2.9,2.9,39,0.00,,---,99.99,VWS V14.01,2013-03-27 11:56:00,
2013-03-27 07:57:00,42.1,18.9,30.33,East,90,4.7,4.7,39,0.00,,---,99.99,VWS V14.01,2013-03-27 11:57:00,
2013-03-27 07:58:00,42.1,18.9,30.33,East,90,4.7,4.7,39,0.00,,---,99.99,VWS V14.01,2013-03-27 11:58:00,
2013-03-27 07:59:00,42.1,18.3,30.33,ENE,68,5.6,5.6,38,0.00,,---,99.99,VWS V14.01,2013-03-27 11:59:00,
2013-03-27 08:00:00,42.3,18.5,30.33,NNE,22,2.7,2.7,38,0.00,,---,99.99,VWS V14.01,2013-03-27 12:00:00,
2013-03-27 08:01:00,42.3,18.5,30.33,ESE,112,3.6,3.8,38,0.00,,---,99.99,VWS V14.01,2013-03-27 12:01:00,
2013-03-27 08:02:00,42.3,18.5,30.33,NNE,22,0.0,3.6,38,0.00,,---,99.99,VWS V14.01,2013-03-27 12:02:00,
2013-03-27 08:03:00,42.3,18.5,30.33,ESE,112,2.5,2.5,38,0.00,,---,99.99,VWS V14.01,2013-03-27 12:03:00,
2013-03-27 08:04:00,42.4,18.6,30.33,ESE,112,0.0,2.5,38,0.00,,---,99.99,VWS V14.01,2013-03-27 12:04:00,
2013-03-27 08:05:00,42.6,18.8,30.33,ENE,68,2.5,3.8,38,0.00,,---,99.99,VWS V14.01,2013-03-27 12:05:00,
2013-03-27 08:06:00,42.6,18.8,30.33,East,90,2.7,2.7,38,0.00,,---,99.99,VWS V14.01,2013-03-27 12:06:00,
2013-03-27 08:07:00,42.8,19.0,30.33,East,90,2.7,2.7,38,0.00,,---,99.99,VWS V14.01,2013-03-27 12:07:00,
2013-03-27 08:08:00,42.8,18.4,30.33,East,90,2.7,2.7,37,0.00,,---,99.99,VWS V14.01,2013-03-27 12:08:00,
2013-03-27 08:09:00,43.0,19.1,30.33,NNE,22,2.7,2.7,38,0.00,,---,99.99,VWS V14.01,2013-03-27 12:09:00,
2013-03-27 08:10:00,43.0,19.1,30.33,NNE,22,2.0,3.4,38,0.00,,---,99.99,VWS V14.01,2013-03-27 12:10:00,
2013-03-27 08:11:00,43.0,19.1,30.33,NNE,22,3.1,3.1,38,0.00,,---,99.99,VWS V14.01,2013-03-27 12:11:00,
2013-03-27 08:12:00,43.0,19.1,30.33,SE,135,1.3,1.3,38,0.00,,---,99.99,VWS V14.01,2013-03-27 12:12:00,
2013-03-27 08:13:00,43.0,19.1,30.33,SSE,158,3.4,3.4,38,0.00,,---,99.99,VWS V14.01,2013-03-27 12:13:00,
2013-03-27 08:14:00,43.0,19.1,30.33,NNE,22,2.0,3.4,38,0.00,,---,99.99,VWS V14.01,2013-03-27 12:14:00,
2013-03-27 08:15:00,43.0,19.1,30.33,NNW,338,2.7,3.1,38,0.00,,---,99.99,VWS V14.01,2013-03-27 12:15:00,
2013-03-27 08:16:00,43.5,17.7,30.33,NNE,22,2.7,8.5,35,0.00,,---,99.99,VWS V14.01,2013-03-27 12:16:00,
2013-03-27 08:17:00,43.5,17.7,30.33,NNE,22,1.6,1.6,35,0.00,,---,99.99,VWS V14.01,2013-03-27 12:17:00,
2013-03-27 08:18:00,43.7,17.9,30.33,NNE,22,1.6,1.6,35,0.00,,---,99.99,VWS V14.01,2013-03-27 12:18:00,
2013-03-27 08:19:00,43.9,18.0,30.33,NNE,22,1.6,1.6,35,0.00,,---,99.99,VWS V14.01,2013-03-27 12:19:00,
2013-03-27 08:20:00,44.4,18.5,30.33,WNW,292,3.4,3.4,35,0.00,,---,99.99,VWS V14.01,2013-03-27 12:20:00,
2013-03-27 08:21:00,44.8,17.5,30.33,North,0,1.1,2.9,33,0.00,,---,99.99,VWS V14.01,2013-03-27 12:21:00,
2013-03-27 08:22:00,44.8,17.5,30.33,NNW,338,1.3,5.4,33,0.00,,---,99.99,VWS V14.01,2013-03-27 12:22:00,
2013-03-27 08:23:00,44.8,17.5,30.33,North,0,3.6,6.3,33,0.00,,---,99.99,VWS V14.01,2013-03-27 12:23:00,
2013-03-27 08:24:00,46.0,17.1,30.33,ESE,112,0.0,3.6,31,0.00,,---,99.99,VWS V14.01,2013-03-27 12:24:00,
2013-03-27 08:25:00,46.2,17.3,30.33,North,0,6.0,6.5,31,0.00,,---,99.99,VWS V14.01,2013-03-27 12:25:00,
2013-03-27 08:26:00,46.6,17.6,30.33,SSW,202,1.3,6.0,31,0.00,,---,99.99,VWS V14.01,2013-03-27 12:26:00,
2013-03-27 08:27:00,46.6,17.6,30.33,ESE,112,2.5,2.5,31,0.00,,---,99.99,VWS V14.01,2013-03-27 12:27:00,
2013-03-27 08:28:00,47.1,18.1,30.33,ESE,112,2.5,2.5,31,0.00,,---,99.99,VWS V14.01,2013-03-27 12:28:00,
2013-03-27 08:29:00,47.3,17.5,30.33,North,0,4.9,6.5,30,0.00,,---,99.99,VWS V14.01,2013-03-27 12:29:00,
2013-03-27 08:30:00,47.3,17.5,30.33,North,0,4.9,6.5,30,0.00,,---,99.99,VWS V14.01,2013-03-27 12:30:00,
2013-03-27 08:31:00,47.5,16.8,30.33,NNW,338,4.3,4.9,29,0.00,,---,99.99,VWS V14.01,2013-03-27 12:31:00,
2013-03-27 08:32:00,47.7,17.0,30.33,NNW,338,5.8,5.8,29,0.00,,---,99.99,VWS V14.01,2013-03-27 12:32:00,
2013-03-27 08:33:00,47.7,17.0,30.33,North,0,4.3,4.3,29,0.00,,---,99.99,VWS V14.01,2013-03-27 12:33:00,
2013-03-27 08:34:00,47.7,17.0,30.33,North,0,2.9,4.3,29,0.00,,---,99.99,VWS V14.01,2013-03-27 12:34:00,
2013-03-27 08:35:00,48.0,17.3,30.33,NNW,338,1.6,1.6,29,0.00,,---,99.99,VWS V14.01,2013-03-27 12:35:00,
2013-03-27 08:36:00,48.0,17.3,30.33,NNW,338,1.6,1.6,29,0.00,,---,99.99,VWS V14.01,2013-03-27 12:36:00,
2013-03-27 08:37:00,48.6,17.0,30.33,NNW,338,1.6,1.6,28,0.00,,---,99.99,VWS V14.01,2013-03-27 12:37:00,
2013-03-27 08:38:00,48.9,17.3,30.33,NNW,338,1.6,1.6,28,0.00,,---,99.99,VWS V14.01,2013-03-27 12:38:00,
2013-03-27 08:39:00,48.9,17.3,30.33,NNW,338,1.6,1.6,28,0.00,,---,99.99,VWS V14.01,2013-03-27 12:39:00,
2013-03-27 08:40:00,48.7,17.1,30.33,NNW,338,1.6,1.6,28,0.00,,---,99.99,VWS V14.01,2013-03-27 12:40:00,
2013-03-27 08:41:00,48.7,17.1,30.33,NNW,338,1.6,1.6,28,0.00,,---,99.99,VWS V14.01,2013-03-27 12:41:00,
2013-03-27 08:42:00,48.9,17.3,30.33,NNW,338,1.6,1.6,28,0.00,,---,99.99,VWS V14.01,2013-03-27 12:42:00,
2013-03-27 08:43:00,48.9,16.4,30.33,NNW,338,1.6,1.6,27,0.00,,---,99.99,VWS V14.01,2013-03-27 12:43:00,
2013-03-27 08:44:00,48.9,16.4,30.33,NNW,338,1.6,1.6,27,0.00,,---,99.99,VWS V14.01,2013-03-27 12:44:00,
2013-03-27 08:45:00,48.9,16.4,30.33,NNW,338,1.6,1.6,27,0.00,,---,99.99,VWS V14.01,2013-03-27 12:45:00,
2013-03-27 08:46:00,49.1,16.6,30.33,NNW,338,1.6,1.6,27,0.00,,---,99.99,VWS V14.01,2013-03-27 12:46:00,
2013-03-27 08:47:00,48.9,16.4,30.33,NNW,338,1.6,1.6,27,0.00,,---,99.99,VWS V14.01,2013-03-27 12:47:00,
2013-03-27 08:48:00,48.9,16.4,30.33,NNW,338,1.6,1.6,27,0.00,,---,99.99,VWS V14.01,2013-03-27 12:48:00,
2013-03-27 08:49:00,48.9,16.4,30.33,NNW,338,1.6,1.6,27,0.00,,---,99.99,VWS V14.01,2013-03-27 12:49:00,
2013-03-27 08:50:00,48.9,16.4,30.33,NNW,338,1.6,1.6,27,0.00,,---,99.99,VWS V14.01,2013-03-27 12:50:00,
2013-03-27 08:51:00,48.9,16.4,30.33,NNW,338,1.6,1.6,27,0.00,,---,99.99,VWS V14.01,2013-03-27 12:51:00,
2013-03-27 08:52:00,48.9,16.4,30.33,NNW,338,1.6,1.6,27,0.00,,---,99.99,VWS V14.01,2013-03-27 12:52:00,
2013-03-27 08:53:00,48.9,16.4,30.33,NNW,338,1.6,1.6,27,0.00,,---,99.99,VWS V14.01,2013-03-27 12:53:00,
2013-03-27 08:54:00,49.8,17.2,30.33,NNW,338,1.6,1.6,27,0.00,,---,99.99,VWS V14.01,2013-03-27 12:54:00,
2013-03-27 08:55:00,49.8,17.2,30.33,NNW,338,1.6,1.6,27,0.00,,---,99.99,VWS V14.01,2013-03-27 12:55:00,
2013-03-27 08:56:00,49.8,17.2,30.33,NNW,338,1.6,1.6,27,0.00,,---,99.99,VWS V14.01,2013-03-27 12:56:00,
2013-03-27 08:57:00,50.0,16.5,30.33,NNW,338,1.6,1.6,26,0.00,,---,99.99,VWS V14.01,2013-03-27 12:57:00,
2013-03-27 08:58:00,50.2,16.6,30.33,NNW,338,1.6,1.6,26,0.00,,---,99.99,VWS V14.01,2013-03-27 12:58:00,
2013-03-27 08:59:00,50.2,16.6,30.33,NNW,338,1.6,1.6,26,0.00,,---,99.99,VWS V14.01,2013-03-27 12:59:00,
2013-03-27 09:00:00,50.0,16.5,30.33,NNW,338,1.6,1.6,26,0.00,,---,99.99,VWS V14.01,2013-03-27 13:00:00,
2013-03-27 09:01:00,50.2,16.6,30.33,NNW,338,1.6,1.6,26,0.00,,---,99.99,VWS V14.01,2013-03-27 13:01:00,
2013-03-27 09:02:00,50.5,17.0,30.33,NNW,338,1.6,1.6,26,0.00,,---,99.99,VWS V14.01,2013-03-27 13:02:00,
2013-03-27 09:03:00,50.5,17.0,30.33,NNW,338,1.6,1.6,26,0.00,,---,99.99,VWS V14.01,2013-03-27 13:03:00,
2013-03-27 09:04:00,50.4,16.8,30.33,NNW,338,1.6,1.6,26,0.00,,---,99.99,VWS V14.01,2013-03-27 13:04:00,
2013-03-27 09:05:00,50.4,16.8,30.33,NNW,338,1.6,1.6,26,0.00,,---,99.99,VWS V14.01,2013-03-27 13:05:00,
2013-03-27 09:06:00,50.4,16.8,30.33,NNW,338,1.6,1.6,26,0.00,,---,99.99,VWS V14.01,2013-03-27 13:06:00,
2013-03-27 09:07:00,50.4,16.8,30.33,NW,315,2.7,2.7,26,0.00,,---,99.99,VWS V14.01,2013-03-27 13:07:00,
2013-03-27 09:08:00,51.1,17.4,30.33,NW,315,2.7,2.7,26,0.00,,---,99.99,VWS V14.01,2013-03-27 13:08:00,
2013-03-27 09:09:00,51.4,17.7,30.33,NW,315,2.7,2.7,26,0.00,,---,99.99,VWS V14.01,2013-03-27 13:09:00,
2013-03-27 09:10:00,51.6,17.9,30.33,NW,315,2.7,2.7,26,0.00,,---,99.99,VWS V14.01,2013-03-27 13:10:00,
2013-03-27 09:11:00,51.6,17.9,30.33,NW,315,2.7,2.7,26,0.00,,---,99.99,VWS V14.01,2013-03-27 13:11:00,
2013-03-27 09:12:00,51.4,17.7,30.33,NNE,22,2.7,2.7,26,0.00,,---,99.99,VWS V14.01,2013-03-27 13:12:00,
2013-03-27 09:13:00,51.4,17.7,30.33,NNE,22,2.7,2.7,26,0.00,,---,99.99,VWS V14.01,2013-03-27 13:13:00,
2013-03-27 09:14:00,51.4,17.7,30.33,NNE,22,2.7,2.7,26,0.00,,---,99.99,VWS V14.01,2013-03-27 13:14:00,
2013-03-27 09:15:00,51.8,18.0,30.33,NNE,22,2.7,2.7,26,0.00,,---,99.99,VWS V14.01,2013-03-27 13:15:00,
2013-03-27 09:16:00,52.0,18.2,30.33,NNE,22,2.7,2.7,26,0.00,,---,99.99,VWS V14.01,2013-03-27 13:16:00,
2013-03-27 09:17:00,52.2,15.5,30.33,NNE,22,2.7,2.7,23,0.00,,---,99.99,VWS V14.01,2013-03-27 13:17:00,
2013-03-27 09:18:00,52.3,18.5,30.33,NNE,22,0.9,4.9,26,0.00,,---,99.99,VWS V14.01,2013-03-27 13:18:00,
2013-03-27 09:19:00,52.5,15.8,30.33,NNE,22,1.3,4.3,23,0.00,,---,99.99,VWS V14.01,2013-03-27 13:19:00,
2013-03-27 09:20:00,52.7,16.0,30.33,NNE,22,2.7,2.7,23,0.00,,---,99.99,VWS V14.01,2013-03-27 13:20:00,
2013-03-27 09:21:00,52.7,16.0,30.33,East,90,0.0,2.7,23,0.00,,---,99.99,VWS V14.01,2013-03-27 13:21:00,
2013-03-27 09:22:00,52.9,19.0,30.33,NNW,338,2.5,3.4,26,0.00,,---,99.99,VWS V14.01,2013-03-27 13:22:00,
2013-03-27 09:23:00,53.4,19.4,30.33,WSW,248,1.6,1.6,26,0.00,,---,99.99,VWS V14.01,2013-03-27 13:23:00,
2013-03-27 09:24:00,53.4,19.4,30.33,ENE,68,2.5,3.1,26,0.00,,---,99.99,VWS V14.01,2013-03-27 13:24:00,
2013-03-27 09:25:00,53.8,16.9,30.33,SE,135,3.1,3.1,23,0.00,,---,99.99,VWS V14.01,2013-03-27 13:25:00,
2013-03-27 09:26:00,53.6,16.7,30.33,NNW,338,2.9,3.6,23,0.00,,---,99.99,VWS V14.01,2013-03-27 13:26:00,
2013-03-27 09:27:00,53.8,16.9,30.33,North,0,2.9,2.9,23,0.00,,---,99.99,VWS V14.01,2013-03-27 13:27:00,
2013-03-27 09:28:00,54.1,17.2,30.36,WNW,292,3.6,3.6,23,0.00,,---,99.99,VWS V14.01,2013-03-27 13:28:00,
2013-03-27 09:29:00,54.1,17.2,30.36,WNW,292,4.3,5.6,23,0.00,,---,99.99,VWS V14.01,2013-03-27 13:29:00,
2013-03-27 09:30:00,54.1,17.2,30.36,East,90,3.1,5.6,23,0.00,,---,99.99,VWS V14.01,2013-03-27 13:30:00,
2013-03-27 09:31:00,54.1,17.2,30.36,North,0,0.9,2.0,23,0.00,,---,99.99,VWS V14.01,2013-03-27 13:31:00,
2013-03-27 09:32:00,54.1,17.2,30.36,North,0,2.5,2.5,23,0.00,,---,99.99,VWS V14.01,2013-03-27 13:32:00,
2013-03-27 09:33:00,54.3,17.3,30.36,West,270,3.4,3.4,23,0.00,,---,99.99,VWS V14.01,2013-03-27 13:33:00,
2013-03-27 09:34:00,54.5,17.5,30.36,NNW,338,1.1,1.1,23,0.00,,---,99.99,VWS V14.01,2013-03-27 13:34:00,
2013-03-27 09:35:00,54.7,17.6,30.36,ESE,112,2.9,3.6,23,0.00,,---,99.99,VWS V14.01,2013-03-27 13:35:00,
2013-03-27 09:36:00,54.7,17.6,30.36,NE,45,2.2,4.3,23,0.00,,---,99.99,VWS V14.01,2013-03-27 13:36:00,
2013-03-27 09:37:00,54.5,14.3,30.36,WNW,292,3.4,3.4,20,0.00,,---,99.99,VWS V14.01,2013-03-27 13:37:00,
2013-03-27 09:38:00,54.7,14.4,30.36,North,0,4.0,4.9,20,0.00,,---,99.99,VWS V14.01,2013-03-27 13:38:00,
2013-03-27 09:39:00,54.9,14.6,30.36,North,0,4.7,4.7,20,0.00,,---,99.99,VWS V14.01,2013-03-27 13:39:00,
2013-03-27 09:40:00,54.9,14.6,30.36,SSW,202,0.9,3.1,20,0.00,,---,99.99,VWS V14.01,2013-03-27 13:40:00,
2013-03-27 09:41:00,54.9,14.6,30.36,NNW,338,2.0,3.8,20,0.00,,---,99.99,VWS V14.01,2013-03-27 13:41:00,
2013-03-27 09:42:00,55.0,14.7,30.36,NW,315,1.1,3.8,20,0.00,,---,99.99,VWS V14.01,2013-03-27 13:42:00,
2013-03-27 09:43:00,55.2,14.9,30.33,NW,315,3.6,3.6,20,0.00,,---,99.99,VWS V14.01,2013-03-27 13:43:00,
2013-03-27 09:44:00,55.4,15.0,30.33,SSW,202,5.4,5.4,20,0.00,,---,99.99,VWS V14.01,2013-03-27 13:44:00,
2013-03-27 09:45:00,55.2,14.9,30.33,North,0,0.0,1.6,20,0.00,,---,99.99,VWS V14.01,2013-03-27 13:45:00,
2013-03-27 09:46:00,55.2,14.9,30.33,ENE,68,5.4,5.4,20,0.00,,---,99.99,VWS V14.01,2013-03-27 13:46:00,
2013-03-27 09:47:00,54.7,14.4,30.33,NNW,338,2.5,2.7,20,0.00,,---,99.99,VWS V14.01,2013-03-27 13:47:00,
2013-03-27 09:48:00,54.9,14.6,30.33,ENE,68,2.0,3.6,20,0.00,,---,99.99,VWS V14.01,2013-03-27 13:48:00,
2013-03-27 09:49:00,54.7,14.4,30.33,North,0,2.7,4.0,20,0.00,,---,99.99,VWS V14.01,2013-03-27 13:49:00,
2013-03-27 09:50:00,55.2,14.9,30.33,NNW,338,2.9,2.9,20,0.00,,---,99.99,VWS V14.01,2013-03-27 13:50:00,
2013-03-27 09:51:00,55.2,14.9,30.33,NNE,22,1.6,3.4,20,0.00,,---,99.99,VWS V14.01,2013-03-27 13:51:00,
2013-03-27 09:52:00,55.8,15.3,30.33,ESE,112,4.3,4.3,20,0.00,,---,99.99,VWS V14.01,2013-03-27 13:52:00,
2013-03-27 09:53:00,55.9,15.5,30.33,NNE,22,4.7,4.7,20,0.00,,---,99.99,VWS V14.01,2013-03-27 13:53:00,
2013-03-27 09:54:00,56.1,15.6,30.33,NNW,338,1.1,1.3,20,0.00,,---,99.99,VWS V14.01,2013-03-27 13:54:00,
2013-03-27 09:55:00,56.3,15.8,30.33,WNW,292,3.6,4.3,20,0.00,,---,99.99,VWS V14.01,2013-03-27 13:55:00,
2013-03-27 09:56:00,56.5,15.9,30.33,NNW,338,3.1,3.6,20,0.00,,---,99.99,VWS V14.01,2013-03-27 13:56:00,
2013-03-27 09:57:00,56.7,16.1,30.33,North,0,2.9,4.9,20,0.00,,---,99.99,VWS V14.01,2013-03-27 13:57:00,
2013-03-27 09:58:00,56.8,16.2,30.33,West,270,0.0,2.7,20,0.00,,---,99.99,VWS V14.01,2013-03-27 13:58:00,
2013-03-27 09:59:00,56.8,16.2,30.33,West,270,0.0,0.0,20,0.00,,---,99.99,VWS V14.01,2013-03-27 13:59:00,
2013-03-27 10:00:00,56.1,15.6,30.33,NNE,22,7.8,7.8,20,0.00,,---,99.99,VWS V14.01,2013-03-27 14:00:00,
2013-03-27 10:01:00,55.4,15.0,30.33,WNW,292,8.1,8.1,20,0.00,,---,99.99,VWS V14.01,2013-03-27 14:01:00,
2013-03-27 10:02:00,55.6,15.2,30.33,West,270,2.0,8.1,20,0.00,,---,99.99,VWS V14.01,2013-03-27 14:02:00,
2013-03-27 10:03:00,55.6,15.2,30.33,West,270,3.6,3.6,20,0.00,,---,99.99,VWS V14.01,2013-03-27 14:03:00,
2013-03-27 10:04:00,55.8,15.3,30.33,WNW,292,2.9,3.6,20,0.00,,---,99.99,VWS V14.01,2013-03-27 14:04:00,
2013-03-27 10:05:00,55.8,15.3,30.33,WNW,292,4.7,6.0,20,0.00,,---,99.99,VWS V14.01,2013-03-27 14:05:00,
2013-03-27 10:06:00,55.8,15.3,30.33,WSW,248,5.4,5.4,20,0.00,,---,99.99,VWS V14.01,2013-03-27 14:06:00,
2013-03-27 10:07:00,55.9,15.5,30.33,WSW,248,2.9,5.4,20,0.00,,---,99.99,VWS V14.01,2013-03-27 14:07:00,
2013-03-27 10:08:00,56.1,15.6,30.33,SE,135,4.0,4.0,20,0.00,,---,99.99,VWS V14.01,2013-03-27 14:08:00,
2013-03-27 10:09:00,56.1,15.6,30.33,NNW,338,2.9,2.9,20,0.00,,---,99.99,VWS V14.01,2013-03-27 14:09:00,
2013-03-27 10:10:00,56.7,16.1,30.33,WSW,248,2.7,3.6,20,0.00,,---,99.99,VWS V14.01,2013-03-27 14:10:00,
2013-03-27 10:11:00,57.0,16.4,30.33,North,0,1.1,1.1,20,0.00,,---,99.99,VWS V14.01,2013-03-27 14:11:00,
2013-03-27 10:12:00,57.0,16.4,30.33,WNW,292,5.8,5.8,20,0.00,,---,99.99,VWS V14.01,2013-03-27 14:12:00,
2013-03-27 10:13:00,57.0,16.4,30.33,SSE,158,2.2,2.2,20,0.00,,---,99.99,VWS V14.01,2013-03-27 14:13:00,
2013-03-27 10:14:00,57.0,16.4,30.33,NNE,22,4.9,4.9,20,0.00,,---,99.99,VWS V14.01,2013-03-27 14:14:00,
2013-03-27 10:15:00,57.4,15.5,30.33,NNW,338,3.4,3.4,19,0.00,,---,99.99,VWS V14.01,2013-03-27 14:15:00,
2013-03-27 10:16:00,57.4,15.5,30.33,WNW,292,3.4,3.4,19,0.00,,---,99.99,VWS V14.01,2013-03-27 14:16:00,
2013-03-27 10:17:00,57.7,15.8,30.33,NNW,338,1.3,1.3,19,0.00,,---,99.99,VWS V14.01,2013-03-27 14:17:00,
2013-03-27 10:18:00,57.9,15.9,30.33,WNW,292,4.3,4.3,19,0.00,,---,99.99,VWS V14.01,2013-03-27 14:18:00,
2013-03-27 10:19:00,57.7,13.2,30.33,North,0,5.6,5.6,17,0.00,,---,99.99,VWS V14.01,2013-03-27 14:19:00,
2013-03-27 10:20:00,57.7,13.2,30.33,NNE,22,2.5,3.1,17,0.00,,---,99.99,VWS V14.01,2013-03-27 14:20:00,
2013-03-27 10:21:00,57.6,13.1,30.33,North,0,2.2,3.1,17,0.00,,---,99.99,VWS V14.01,2013-03-27 14:21:00,
2013-03-27 10:22:00,57.9,15.9,30.33,ENE,68,1.6,2.5,19,0.00,,---,99.99,VWS V14.01,2013-03-27 14:22:00,
2013-03-27 10:23:00,57.9,15.9,30.33,NNW,338,1.6,1.6,19,0.00,,---,99.99,VWS V14.01,2013-03-27 14:23:00,
2013-03-27 10:24:00,58.1,13.5,30.33,NE,45,2.2,3.4,17,0.00,,---,99.99,VWS V14.01,2013-03-27 14:24:00,
2013-03-27 10:25:00,58.3,13.7,30.33,NNW,338,3.4,3.4,17,0.00,,---,99.99,VWS V14.01,2013-03-27 14:25:00,
2013-03-27 10:26:00,58.1,13.5,30.33,NNW,338,3.8,5.6,17,0.00,,---,99.99,VWS V14.01,2013-03-27 14:26:00,
2013-03-27 10:27:00,57.9,13.4,30.33,WSW,248,5.6,6.5,17,0.00,,---,99.99,VWS V14.01,2013-03-27 14:27:00,
2013-03-27 10:28:00,57.9,13.4,30.33,SSW,202,2.0,6.5,17,0.00,,---,99.99,VWS V14.01,2013-03-27 14:28:00,
2013-03-27 10:29:00,57.9,13.4,30.33,NNW,338,1.1,2.7,17,0.00,,---,99.99,VWS V14.01,2013-03-27 14:29:00,
2013-03-27 10:30:00,58.6,14.0,30.33,NNW,338,4.5,4.5,17,0.00,,---,99.99,VWS V14.01,2013-03-27 14:30:00,
2013-03-27 10:31:00,58.6,14.0,30.33,NNW,338,4.5,4.5,17,0.00,,---,99.99,VWS V14.01,2013-03-27 14:31:00,
2013-03-27 10:32:00,58.3,13.7,30.33,NNW,338,3.4,3.4,17,0.00,,---,99.99,VWS V14.01,2013-03-27 14:32:00,
2013-03-27 10:33:00,58.3,13.7,30.33,WNW,292,2.2,4.0,17,0.00,,---,99.99,VWS V14.01,2013-03-27 14:33:00,
2013-03-27 10:34:00,58.3,13.7,30.33,NNE,22,2.5,3.4,17,0.00,,---,99.99,VWS V14.01,2013-03-27 14:34:00,
2013-03-27 10:35:00,58.5,13.8,30.33,WNW,292,1.3,4.9,17,0.00,,---,99.99,VWS V14.01,2013-03-27 14:35:00,
2013-03-27 10:36:00,58.6,14.0,30.33,NNW,338,2.5,4.3,17,0.00,,---,99.99,VWS V14.01,2013-03-27 14:36:00,
2013-03-27 10:37:00,58.8,14.1,30.33,NNW,338,2.5,2.5,17,0.00,,---,99.99,VWS V14.01,2013-03-27 14:37:00,
2013-03-27 10:38:00,59.2,14.4,30.33,WNW,292,2.2,2.9,17,0.00,,---,99.99,VWS V14.01,2013-03-27 14:38:00,
2013-03-27 10:39:00,59.0,14.3,30.33,NNE,22,1.1,3.6,17,0.00,,---,99.99,VWS V14.01,2013-03-27 14:39:00,
2013-03-27 10:40:00,59.0,14.3,30.33,North,0,0.0,3.6,17,0.00,,---,99.99,VWS V14.01,2013-03-27 14:40:00,
2013-03-27 10:41:00,58.8,14.1,30.33,North,0,3.8,3.8,17,0.00,,---,99.99,VWS V14.01,2013-03-27 14:41:00,
2013-03-27 10:42:00,58.6,14.0,30.33,NNE,22,3.6,4.0,17,0.00,,---,99.99,VWS V14.01,2013-03-27 14:42:00,
2013-03-27 10:43:00,59.2,14.4,30.33,ENE,68,2.0,4.3,17,0.00,,---,99.99,VWS V14.01,2013-03-27 14:43:00,
2013-03-27 10:44:00,59.2,14.4,30.33,WNW,292,3.4,3.4,17,0.00,,---,99.99,VWS V14.01,2013-03-27 14:44:00,
2013-03-27 10:45:00,58.8,14.1,30.33,WSW,248,3.4,5.4,17,0.00,,---,99.99,VWS V14.01,2013-03-27 14:45:00,
2013-03-27 10:46:00,58.6,14.0,30.33,NNW,338,2.7,4.0,17,0.00,,---,99.99,VWS V14.01,2013-03-27 14:46:00,
2013-03-27 10:47:00,58.6,14.0,30.33,SW,225,2.0,2.7,17,0.00,,---,99.99,VWS V14.01,2013-03-27 14:47:00,
2013-03-27 10:48:00,59.0,14.3,30.33,NNW,338,2.9,3.4,17,0.00,,---,99.99,VWS V14.01,2013-03-27 14:48:00,
2013-03-27 10:49:00,59.2,14.4,30.33,WNW,292,2.9,4.0,17,0.00,,---,99.99,VWS V14.01,2013-03-27 14:49:00,
2013-03-27 10:50:00,59.7,14.9,30.33,North,0,2.7,2.7,17,0.00,,---,99.99,VWS V14.01,2013-03-27 14:50:00,
2013-03-27 10:51:00,59.7,14.9,30.33,North,0,4.3,4.3,17,0.00,,---,99.99,VWS V14.01,2013-03-27 14:51:00,
2013-03-27 10:52:00,59.5,14.7,30.33,NE,45,2.5,4.3,17,0.00,,---,99.99,VWS V14.01,2013-03-27 14:52:00,
2013-03-27 10:53:00,59.5,14.7,30.33,NNW,338,3.1,4.3,17,0.00,,---,99.99,VWS V14.01,2013-03-27 14:53:00,
2013-03-27 10:54:00,59.7,14.9,30.33,NNW,338,0.9,0.9,17,0.00,,---,99.99,VWS V14.01,2013-03-27 14:54:00,
2013-03-27 10:55:00,60.1,15.1,30.33,NNW,338,3.1,3.1,17,0.00,,---,99.99,VWS V14.01,2013-03-27 14:55:00,
2013-03-27 10:56:00,60.1,15.1,30.33,SSW,202,2.5,3.6,17,0.00,,---,99.99,VWS V14.01,2013-03-27 14:56:00,
2013-03-27 10:57:00,60.1,15.1,30.33,SSW,202,1.6,1.6,17,0.00,,---,99.99,VWS V14.01,2013-03-27 14:57:00,
2013-03-27 10:58:00,60.3,15.3,30.30,NNW,338,2.9,2.9,17,0.00,,---,99.99,VWS V14.01,2013-03-27 14:58:00,
2013-03-27 10:59:00,60.6,15.6,30.30,NW,315,0.0,3.4,17,0.00,,---,99.99,VWS V14.01,2013-03-27 14:59:00,
2013-03-27 11:00:00,60.6,15.6,30.30,NNW,338,2.9,2.9,17,0.00,,---,99.99,VWS V14.01,2013-03-27 15:00:00,
2013-03-27 11:01:00,61.0,14.5,30.30,SSW,202,4.0,4.0,16,0.00,,---,99.99,VWS V14.01,2013-03-27 15:01:00,
2013-03-27 11:02:00,60.3,15.3,30.30,NNW,338,5.6,5.6,17,0.00,,---,99.99,VWS V14.01,2013-03-27 15:02:00,
2013-03-27 11:03:00,60.3,15.3,30.30,NNW,338,2.0,2.9,17,0.00,,---,99.99,VWS V14.01,2013-03-27 15:03:00,
2013-03-27 11:04:00,60.4,15.4,30.30,NNW,338,3.6,3.6,17,0.00,,---,99.99,VWS V14.01,2013-03-27 15:04:00,
2013-03-27 11:05:00,60.3,15.3,30.30,NNE,22,2.9,3.8,17,0.00,,---,99.99,VWS V14.01,2013-03-27 15:05:00,
2013-03-27 11:06:00,60.3,15.3,30.30,WNW,292,1.6,3.8,17,0.00,,---,99.99,VWS V14.01,2013-03-27 15:06:00,
2013-03-27 11:07:00,60.3,15.3,30.30,East,90,4.3,4.3,17,0.00,,---,99.99,VWS V14.01,2013-03-27 15:07:00,
2013-03-27 11:08:00,60.3,15.3,30.30,South,180,2.9,4.3,17,0.00,,---,99.99,VWS V14.01,2013-03-27 15:08:00,
2013-03-27 11:09:00,60.4,15.4,30.30,NNW,338,2.7,3.4,17,0.00,,---,99.99,VWS V14.01,2013-03-27 15:09:00,
2013-03-27 11:10:00,60.6,15.6,30.30,NNW,338,4.3,4.3,17,0.00,,---,99.99,VWS V14.01,2013-03-27 15:10:00,
2013-03-27 11:11:00,61.0,14.5,30.30,North,0,2.0,4.3,16,0.00,,---,99.99,VWS V14.01,2013-03-27 15:11:00,
2013-03-27 11:12:00,60.6,15.6,30.33,NNE,22,3.6,5.4,17,0.00,,---,99.99,VWS V14.01,2013-03-27 15:12:00,
2013-03-27 11:13:00,60.6,15.6,30.33,NNW,338,2.5,3.8,17,0.00,,---,99.99,VWS V14.01,2013-03-27 15:13:00,
2013-03-27 11:14:00,60.8,18.3,30.33,NNW,338,3.4,3.4,19,0.00,,---,99.99,VWS V14.01,2013-03-27 15:14:00,
2013-03-27 11:15:00,60.6,15.6,30.33,North,0,2.5,3.6,17,0.00,,---,99.99,VWS V14.01,2013-03-27 15:15:00,
2013-03-27 11:16:00,61.0,18.5,30.33,North,0,3.4,3.4,19,0.00,,---,99.99,VWS V14.01,2013-03-27 15:16:00,
2013-03-27 11:17:00,61.0,14.5,30.33,ENE,68,1.1,4.3,16,0.00,,---,99.99,VWS V14.01,2013-03-27 15:17:00,
2013-03-27 11:18:00,60.8,14.4,30.33,ESE,112,3.6,4.3,16,0.00,,---,99.99,VWS V14.01,2013-03-27 15:18:00,
2013-03-27 11:19:00,60.8,14.4,30.33,NW,315,3.6,4.3,16,0.00,,---,99.99,VWS V14.01,2013-03-27 15:19:00,
2013-03-27 11:20:00,60.8,14.4,30.33,North,0,2.5,2.5,16,0.00,,---,99.99,VWS V14.01,2013-03-27 15:20:00,
2013-03-27 11:21:00,61.2,18.6,30.33,ENE,68,1.3,1.3,19,0.00,,---,99.99,VWS V14.01,2013-03-27 15:21:00,
2013-03-27 11:22:00,61.3,18.8,30.33,WSW,248,5.8,5.8,19,0.00,,---,99.99,VWS V14.01,2013-03-27 15:22:00,
2013-03-27 11:23:00,61.3,18.8,30.33,NNE,22,2.9,5.8,19,0.00,,---,99.99,VWS V14.01,2013-03-27 15:23:00,
2013-03-27 11:24:00,61.9,19.2,30.33,NW,315,3.1,4.3,19,0.00,,---,99.99,VWS V14.01,2013-03-27 15:24:00,
2013-03-27 11:25:00,61.7,19.0,30.33,NNE,22,2.9,5.4,19,0.00,,---,99.99,VWS V14.01,2013-03-27 15:25:00,
2013-03-27 11:26:00,61.5,18.9,30.33,SE,135,1.1,5.4,19,0.00,,---,99.99,VWS V14.01,2013-03-27 15:26:00,
2013-03-27 11:27:00,61.7,19.0,30.33,ENE,68,2.5,2.7,19,0.00,,---,99.99,VWS V14.01,2013-03-27 15:27:00,
2013-03-27 11:28:00,62.1,19.3,30.33,North,0,2.9,2.9,19,0.00,,---,99.99,VWS V14.01,2013-03-27 15:28:00,
2013-03-27 11:29:00,62.1,19.3,30.33,NNW,338,2.9,3.4,19,0.00,,---,99.99,VWS V14.01,2013-03-27 15:29:00,
2013-03-27 11:30:00,61.7,19.0,30.33,WSW,248,2.9,6.5,19,0.00,,---,99.99,VWS V14.01,2013-03-27 15:30:00,
2013-03-27 11:31:00,60.4,15.4,30.33,South,180,7.2,7.2,17,0.00,,---,99.99,VWS V14.01,2013-03-27 15:31:00,
2013-03-27 11:32:00,60.4,15.4,30.33,WNW,292,3.6,3.6,17,0.00,,---,99.99,VWS V14.01,2013-03-27 15:32:00,
2013-03-27 11:33:00,60.6,15.6,30.33,North,0,3.4,3.6,17,0.00,,---,99.99,VWS V14.01,2013-03-27 15:33:00,
2013-03-27 11:34:00,61.0,18.5,30.33,WNW,292,4.3,4.3,19,0.00,,---,99.99,VWS V14.01,2013-03-27 15:34:00,
2013-03-27 11:35:00,60.6,18.2,30.33,West,270,3.4,4.3,19,0.00,,---,99.99,VWS V14.01,2013-03-27 15:35:00,
2013-03-27 11:36:00,61.0,18.5,30.33,NNW,338,4.9,4.9,19,0.00,,---,99.99,VWS V14.01,2013-03-27 15:36:00,
2013-03-27 11:37:00,60.6,15.6,30.33,NW,315,3.1,7.2,17,0.00,,---,99.99,VWS V14.01,2013-03-27 15:37:00,
2013-03-27 11:38:00,60.6,15.6,30.33,NW,315,3.1,7.2,17,0.00,,---,99.99,VWS V14.01,2013-03-27 15:38:00,
2013-03-27 11:39:00,60.8,18.3,30.33,ENE,68,2.7,3.4,19,0.00,,---,99.99,VWS V14.01,2013-03-27 15:39:00,
2013-03-27 11:40:00,61.0,18.5,30.33,NW,315,2.7,2.7,19,0.00,,---,99.99,VWS V14.01,2013-03-27 15:40:00,
2013-03-27 11:41:00,61.0,18.5,30.33,NNW,338,3.1,4.0,19,0.00,,---,99.99,VWS V14.01,2013-03-27 15:41:00,
2013-03-27 11:42:00,61.0,18.5,30.33,NNW,338,1.6,3.6,19,0.00,,---,99.99,VWS V14.01,2013-03-27 15:42:00,
2013-03-27 11:43:00,61.3,18.8,30.33,NNW,338,2.0,2.9,19,0.00,,---,99.99,VWS V14.01,2013-03-27 15:43:00,
2013-03-27 11:44:00,61.3,18.8,30.33,NNE,22,0.9,5.4,19,0.00,,---,99.99,VWS V14.01,2013-03-27 15:44:00,
2013-03-27 11:45:00,61.5,18.9,30.33,NNW,338,0.0,2.7,19,0.00,,---,99.99,VWS V14.01,2013-03-27 15:45:00,
2013-03-27 11:46:00,61.5,18.9,30.33,ENE,68,3.8,3.8,19,0.00,,---,99.99,VWS V14.01,2013-03-27 15:46:00,
2013-03-27 11:47:00,61.5,18.9,30.33,ENE,68,2.0,3.8,19,0.00,,---,99.99,VWS V14.01,2013-03-27 15:47:00,
2013-03-27 11:48:00,61.5,18.9,30.33,ENE,68,3.1,3.8,19,0.00,,---,99.99,VWS V14.01,2013-03-27 15:48:00,
2013-03-27 11:49:00,61.5,18.9,30.33,NNW,338,2.9,4.9,19,0.00,,---,99.99,VWS V14.01,2013-03-27 15:49:00,
2013-03-27 11:50:00,61.2,14.6,30.33,WNW,292,2.0,2.0,16,0.00,,---,99.99,VWS V14.01,2013-03-27 15:50:00,
2013-03-27 11:51:00,61.3,14.8,30.33,NNE,22,4.9,4.9,16,0.00,,---,99.99,VWS V14.01,2013-03-27 15:51:00,
2013-03-27 11:52:00,61.2,18.6,30.33,NNW,338,2.7,4.9,19,0.00,,---,99.99,VWS V14.01,2013-03-27 15:52:00,
2013-03-27 11:53:00,61.3,14.8,30.33,NNW,338,2.0,4.9,16,0.00,,---,99.99,VWS V14.01,2013-03-27 15:53:00,
2013-03-27 11:54:00,61.5,18.9,30.33,West,270,2.2,2.2,19,0.00,,---,99.99,VWS V14.01,2013-03-27 15:54:00,
2013-03-27 11:55:00,61.7,19.0,30.33,NNW,338,1.6,1.6,19,0.00,,---,99.99,VWS V14.01,2013-03-27 15:55:00,
2013-03-27 11:56:00,61.5,18.9,30.33,WNW,292,5.4,5.4,19,0.00,,---,99.99,VWS V14.01,2013-03-27 15:56:00,
2013-03-27 11:57:00,61.7,15.1,30.33,NNW,338,3.6,5.4,16,0.00,,---,99.99,VWS V14.01,2013-03-27 15:57:00,
2013-03-27 11:58:00,61.9,19.2,30.33,NNW,338,2.2,3.6,19,0.00,,---,99.99,VWS V14.01,2013-03-27 15:58:00,
2013-03-27 11:59:00,61.7,19.0,30.33,WNW,292,1.6,5.6,19,0.00,,---,99.99,VWS V14.01,2013-03-27 15:59:00,
2013-03-27 12:00:00,61.9,19.2,30.33,NNW,338,2.7,3.6,19,0.00,,---,99.99,VWS V14.01,2013-03-27 16:00:00,
2013-03-27 12:01:00,61.9,19.2,30.33,North,0,3.4,3.6,19,0.00,,---,99.99,VWS V14.01,2013-03-27 16:01:00,
2013-03-27 12:02:00,61.7,19.0,30.33,WNW,292,3.6,4.3,19,0.00,,---,99.99,VWS V14.01,2013-03-27 16:02:00,
2013-03-27 12:03:00,61.7,15.1,30.33,NNW,338,2.5,5.6,16,0.00,,---,99.99,VWS V14.01,2013-03-27 16:03:00,
2013-03-27 12:04:00,61.9,19.2,30.33,North,0,2.5,5.6,19,0.00,,---,99.99,VWS V14.01,2013-03-27 16:04:00,
2013-03-27 12:05:00,61.9,19.2,30.33,NNW,338,2.0,2.0,19,0.00,,---,99.99,VWS V14.01,2013-03-27 16:05:00,
2013-03-27 12:06:00,61.7,19.0,30.33,North,0,3.4,3.4,19,0.00,,---,99.99,VWS V14.01,2013-03-27 16:06:00,
2013-03-27 12:07:00,61.9,19.2,30.33,NNW,338,2.9,3.4,19,0.00,,---,99.99,VWS V14.01,2013-03-27 16:07:00,
2013-03-27 12:08:00,61.9,19.2,30.33,WSW,248,2.7,3.1,19,0.00,,---,99.99,VWS V14.01,2013-03-27 16:08:00,
2013-03-27 12:09:00,61.5,18.9,30.33,East,90,3.8,3.8,19,0.00,,---,99.99,VWS V14.01,2013-03-27 16:09:00,
2013-03-27 12:10:00,61.2,18.6,30.33,NNW,338,2.7,3.4,19,0.00,,---,99.99,VWS V14.01,2013-03-27 16:10:00,
2013-03-27 12:11:00,61.7,19.0,30.33,NNE,22,0.0,3.4,19,0.00,,---,99.99,VWS V14.01,2013-03-27 16:11:00,
2013-03-27 12:12:00,61.9,19.2,30.33,NW,315,4.3,4.3,19,0.00,,---,99.99,VWS V14.01,2013-03-27 16:12:00,
2013-03-27 12:13:00,61.9,19.2,30.33,WNW,292,2.7,4.9,19,0.00,,---,99.99,VWS V14.01,2013-03-27 16:13:00,
2013-03-27 12:14:00,61.0,18.5,30.33,WNW,292,4.9,6.3,19,0.00,,---,99.99,VWS V14.01,2013-03-27 16:14:00,
2013-03-27 12:15:00,60.4,15.4,30.33,WNW,292,2.9,7.2,17,0.00,,---,99.99,VWS V14.01,2013-03-27 16:15:00,
2013-03-27 12:16:00,60.6,15.6,30.33,West,270,6.3,6.3,17,0.00,,---,99.99,VWS V14.01,2013-03-27 16:16:00,
2013-03-27 12:17:00,61.0,18.5,30.33,WSW,248,2.7,3.6,19,0.00,,---,99.99,VWS V14.01,2013-03-27 16:17:00,
2013-03-27 12:18:00,61.2,18.6,30.33,NNW,338,2.5,3.1,19,0.00,,---,99.99,VWS V14.01,2013-03-27 16:18:00,
2013-03-27 12:19:00,60.8,18.3,30.33,NNE,22,6.0,6.0,19,0.00,,---,99.99,VWS V14.01,2013-03-27 16:19:00,
2013-03-27 12:20:00,61.2,18.6,30.33,NNE,22,2.7,6.0,19,0.00,,---,99.99,VWS V14.01,2013-03-27 16:20:00,
2013-03-27 12:21:00,61.7,19.0,30.33,WNW,292,1.1,3.4,19,0.00,,---,99.99,VWS V14.01,2013-03-27 16:21:00,
2013-03-27 12:22:00,61.7,19.0,30.33,WNW,292,3.6,3.6,19,0.00,,---,99.99,VWS V14.01,2013-03-27 16:22:00,
2013-03-27 12:23:00,62.1,19.3,30.33,NNE,22,3.4,3.6,19,0.00,,---,99.99,VWS V14.01,2013-03-27 16:23:00,
2013-03-27 12:24:00,61.7,19.0,30.33,North,0,4.0,4.0,19,0.00,,---,99.99,VWS V14.01,2013-03-27 16:24:00,
2013-03-27 12:25:00,61.7,19.0,30.33,ENE,68,2.2,2.2,19,0.00,,---,99.99,VWS V14.01,2013-03-27 16:25:00,
2013-03-27 12:26:00,61.7,19.0,30.33,South,180,1.1,2.2,19,0.00,,---,99.99,VWS V14.01,2013-03-27 16:26:00,
2013-03-27 12:27:00,61.9,19.2,30.33,NNW,338,0.9,2.9,19,0.00,,---,99.99,VWS V14.01,2013-03-27 16:27:00,
2013-03-27 12:28:00,61.9,19.2,30.33,NNW,338,3.4,4.7,19,0.00,,---,99.99,VWS V14.01,2013-03-27 16:28:00,
2013-03-27 12:29:00,61.2,18.6,30.33,ESE,112,4.0,5.4,19,0.00,,---,99.99,VWS V14.01,2013-03-27 16:29:00,
2013-03-27 12:30:00,61.0,18.5,30.33,NNW,338,4.3,4.3,19,0.00,,---,99.99,VWS V14.01,2013-03-27 16:30:00,
2013-03-27 12:31:00,61.2,18.6,30.33,NNW,338,2.7,4.3,19,0.00,,---,99.99,VWS V14.01,2013-03-27 16:31:00,
2013-03-27 12:32:00,61.7,19.0,30.33,NNW,338,2.5,3.8,19,0.00,,---,99.99,VWS V14.01,2013-03-27 16:32:00,
2013-03-27 12:33:00,62.2,19.5,30.33,West,270,2.5,2.5,19,0.00,,---,99.99,VWS V14.01,2013-03-27 16:33:00,
2013-03-27 12:34:00,61.9,19.2,30.33,North,0,4.3,5.6,19,0.00,,---,99.99,VWS V14.01,2013-03-27 16:34:00,
2013-03-27 12:35:00,62.1,19.3,30.33,WNW,292,2.0,4.3,19,0.00,,---,99.99,VWS V14.01,2013-03-27 16:35:00,
2013-03-27 12:36:00,62.1,19.3,30.33,South,180,1.1,3.6,19,0.00,,---,99.99,VWS V14.01,2013-03-27 16:36:00,
2013-03-27 12:37:00,62.1,19.3,30.33,SSE,158,1.6,3.6,19,0.00,,---,99.99,VWS V14.01,2013-03-27 16:37:00,
2013-03-27 12:38:00,62.6,18.5,30.33,West,270,1.3,1.6,18,0.00,,---,99.99,VWS V14.01,2013-03-27 16:38:00,
2013-03-27 12:39:00,62.8,18.7,30.33,NNE,22,2.9,3.6,18,0.00,,---,99.99,VWS V14.01,2013-03-27 16:39:00,
2013-03-27 12:40:00,62.2,19.5,30.33,North,0,5.8,5.8,19,0.00,,---,99.99,VWS V14.01,2013-03-27 16:40:00,
2013-03-27 12:41:00,62.4,19.6,30.33,NNW,338,2.0,5.8,19,0.00,,---,99.99,VWS V14.01,2013-03-27 16:41:00,
2013-03-27 12:42:00,62.6,18.5,30.33,NNW,338,1.1,4.3,18,0.00,,---,99.99,VWS V14.01,2013-03-27 16:42:00,
2013-03-27 12:43:00,62.4,19.6,30.33,WNW,292,7.2,7.2,19,0.00,,---,99.99,VWS V14.01,2013-03-27 16:43:00,
2013-03-27 12:44:00,62.8,18.7,30.33,NNE,22,4.3,4.3,18,0.00,,---,99.99,VWS V14.01,2013-03-27 16:44:00,
2013-03-27 12:45:00,63.0,18.8,30.33,South,180,3.4,4.3,18,0.00,,---,99.99,VWS V14.01,2013-03-27 16:45:00,
2013-03-27 12:46:00,62.2,19.5,30.33,NNW,338,2.0,4.0,19,0.00,,---,99.99,VWS V14.01,2013-03-27 16:46:00,
2013-03-27 12:47:00,62.6,18.5,30.33,SSE,158,2.2,2.5,18,0.00,,---,99.99,VWS V14.01,2013-03-27 16:47:00,
2013-03-27 12:48:00,63.3,19.1,30.33,North,0,2.0,2.9,18,0.00,,---,99.99,VWS V14.01,2013-03-27 16:48:00,
2013-03-27 12:49:00,63.7,19.4,30.33,NNW,338,2.7,2.7,18,0.00,,---,99.99,VWS V14.01,2013-03-27 16:49:00,
2013-03-27 12:50:00,63.5,19.3,30.33,WSW,248,4.0,5.4,18,0.00,,---,99.99,VWS V14.01,2013-03-27 16:50:00,
2013-03-27 12:51:00,63.5,19.3,30.33,North,0,2.2,5.4,18,0.00,,---,99.99,VWS V14.01,2013-03-27 16:51:00,
2013-03-27 12:52:00,63.1,19.0,30.33,SSE,158,3.1,5.8,18,0.00,,---,99.99,VWS V14.01,2013-03-27 16:52:00,
2013-03-27 12:53:00,63.1,19.0,30.33,NW,315,5.4,7.8,18,0.00,,---,99.99,VWS V14.01,2013-03-27 16:53:00,
2013-03-27 12:54:00,62.2,19.5,30.33,WSW,248,5.8,5.8,19,0.00,,---,99.99,VWS V14.01,2013-03-27 16:54:00,
2013-03-27 12:55:00,62.1,19.3,30.33,NNW,338,3.8,7.6,19,0.00,,---,99.99,VWS V14.01,2013-03-27 16:55:00,
2013-03-27 12:56:00,61.2,18.6,30.33,WNW,292,7.8,7.8,19,0.00,,---,99.99,VWS V14.01,2013-03-27 16:56:00,
2013-03-27 12:57:00,60.4,18.0,30.33,NNW,338,8.7,8.7,19,0.00,,---,99.99,VWS V14.01,2013-03-27 16:57:00,
2013-03-27 12:58:00,60.3,17.9,30.33,NNE,22,4.0,5.8,19,0.00,,---,99.99,VWS V14.01,2013-03-27 16:58:00,
2013-03-27 12:59:00,61.3,18.8,30.33,NNW,338,3.1,3.4,19,0.00,,---,99.99,VWS V14.01,2013-03-27 16:59:00,
2013-03-27 13:00:00,61.3,18.8,30.33,ESE,112,1.6,1.6,19,0.00,,---,99.99,VWS V14.01,2013-03-27 17:00:00,
2013-03-27 13:01:00,61.9,19.2,30.33,WNW,292,1.3,2.9,19,0.00,,---,99.99,VWS V14.01,2013-03-27 17:01:00,
2013-03-27 13:02:00,61.9,19.2,30.33,NNW,338,5.8,6.7,19,0.00,,---,99.99,VWS V14.01,2013-03-27 17:02:00,
2013-03-27 13:03:00,61.2,18.6,30.33,West,270,7.2,7.2,19,0.00,,---,99.99,VWS V14.01,2013-03-27 17:03:00,
2013-03-27 13:04:00,61.2,18.6,30.33,WNW,292,3.8,7.6,19,0.00,,---,99.99,VWS V14.01,2013-03-27 17:04:00,
2013-03-27 13:05:00,61.2,18.6,30.33,WNW,292,4.7,4.7,19,0.00,,---,99.99,VWS V14.01,2013-03-27 17:05:00,
2013-03-27 13:06:00,60.1,17.7,30.33,WNW,292,5.8,10.5,19,0.00,,---,99.99,VWS V14.01,2013-03-27 17:06:00,
2013-03-27 13:07:00,60.1,17.7,30.33,NNW,338,4.0,4.3,19,0.00,,---,99.99,VWS V14.01,2013-03-27 17:07:00,
2013-03-27 13:08:00,60.8,18.3,30.33,WNW,292,6.3,6.3,19,0.00,,---,99.99,VWS V14.01,2013-03-27 17:08:00,
2013-03-27 13:09:00,61.0,18.5,30.33,NE,45,2.7,6.3,19,0.00,,---,99.99,VWS V14.01,2013-03-27 17:09:00,
2013-03-27 13:10:00,61.2,18.6,30.33,NNW,338,3.4,4.0,19,0.00,,---,99.99,VWS V14.01,2013-03-27 17:10:00,
2013-03-27 13:11:00,61.5,18.9,30.33,NNW,338,2.7,4.7,19,0.00,,---,99.99,VWS V14.01,2013-03-27 17:11:00,
2013-03-27 13:12:00,61.5,18.9,30.33,ENE,68,2.0,4.7,19,0.00,,---,99.99,VWS V14.01,2013-03-27 17:12:00,
2013-03-27 13:13:00,61.3,18.8,30.33,NNW,338,5.4,5.6,19,0.00,,---,99.99,VWS V14.01,2013-03-27 17:13:00,
2013-03-27 13:14:00,61.7,19.0,30.33,WNW,292,3.1,6.5,19,0.00,,---,99.99,VWS V14.01,2013-03-27 17:14:00,
2013-03-27 13:15:00,61.9,19.2,30.33,North,0,5.8,5.8,19,0.00,,---,99.99,VWS V14.01,2013-03-27 17:15:00,
2013-03-27 13:16:00,61.5,18.9,30.33,NNW,338,3.6,4.0,19,0.00,,---,99.99,VWS V14.01,2013-03-27 17:16:00,
2013-03-27 13:17:00,62.2,19.5,30.33,North,0,2.7,3.1,19,0.00,,---,99.99,VWS V14.01,2013-03-27 17:17:00,
2013-03-27 13:18:00,62.2,19.5,30.33,ENE,68,0.9,3.4,19,0.00,,---,99.99,VWS V14.01,2013-03-27 17:18:00,
2013-03-27 13:19:00,62.4,19.6,30.33,NNE,22,2.9,2.9,19,0.00,,---,99.99,VWS V14.01,2013-03-27 17:19:00,
2013-03-27 13:20:00,63.0,18.8,30.33,NNW,338,1.6,3.4,18,0.00,,---,99.99,VWS V14.01,2013-03-27 17:20:00,
2013-03-27 13:21:00,63.0,18.8,30.33,NNW,338,5.8,5.8,18,0.00,,---,99.99,VWS V14.01,2013-03-27 17:21:00,
2013-03-27 13:22:00,62.2,19.5,30.33,North,0,7.2,7.2,19,0.00,,---,99.99,VWS V14.01,2013-03-27 17:22:00,
2013-03-27 13:23:00,62.2,19.5,30.33,NNW,338,4.7,7.2,19,0.00,,---,99.99,VWS V14.01,2013-03-27 17:23:00,
2013-03-27 13:24:00,62.2,19.5,30.33,WNW,292,5.4,5.8,19,0.00,,---,99.99,VWS V14.01,2013-03-27 17:24:00,
2013-03-27 13:25:00,62.2,19.5,30.33,WNW,292,4.5,10.7,19,0.00,,---,99.99,VWS V14.01,2013-03-27 17:25:00,
2013-03-27 13:26:00,60.1,17.7,30.33,WNW,292,2.9,6.5,19,0.00,,---,99.99,VWS V14.01,2013-03-27 17:26:00,
2013-03-27 13:27:00,60.6,18.2,30.33,West,270,3.6,6.5,19,0.00,,---,99.99,VWS V14.01,2013-03-27 17:27:00,
2013-03-27 13:28:00,61.2,18.6,30.33,WSW,248,5.8,5.8,19,0.00,,---,99.99,VWS V14.01,2013-03-27 17:28:00,
2013-03-27 13:29:00,61.7,19.0,30.33,NNW,338,1.1,5.8,19,0.00,,---,99.99,VWS V14.01,2013-03-27 17:29:00,
2013-03-27 13:30:00,62.1,19.3,30.33,North,0,3.1,3.4,19,0.00,,---,99.99,VWS V14.01,2013-03-27 17:30:00,
2013-03-27 13:31:00,62.2,19.5,30.33,NNW,338,2.7,3.1,19,0.00,,---,99.99,VWS V14.01,2013-03-27 17:31:00,
2013-03-27 13:32:00,62.6,18.5,30.33,NNE,22,3.8,4.0,18,0.00,,---,99.99,VWS V14.01,2013-03-27 17:32:00,
2013-03-27 13:33:00,62.2,19.5,30.33,NNE,22,3.6,3.8,19,0.00,,---,99.99,VWS V14.01,2013-03-27 17:33:00,
2013-03-27 13:34:00,61.7,19.0,30.33,East,90,3.8,5.4,19,0.00,,---,99.99,VWS V14.01,2013-03-27 17:34:00,
2013-03-27 13:35:00,62.2,19.5,30.33,North,0,1.6,4.9,19,0.00,,---,99.99,VWS V14.01,2013-03-27 17:35:00,
2013-03-27 13:36:00,62.8,18.7,30.33,North,0,2.7,3.4,18,0.00,,---,99.99,VWS V14.01,2013-03-27 17:36:00,
2013-03-27 13:37:00,62.8,18.7,30.33,East,90,5.4,5.8,18,0.00,,---,99.99,VWS V14.01,2013-03-27 17:37:00,
2013-03-27 13:38:00,62.4,19.6,30.33,NNW,338,4.0,5.4,19,0.00,,---,99.99,VWS V14.01,2013-03-27 17:38:00,
2013-03-27 13:39:00,63.1,19.0,30.33,NNW,338,3.8,5.4,18,0.00,,---,99.99,VWS V14.01,2013-03-27 17:39:00,
2013-03-27 13:40:00,63.1,19.0,30.33,NNW,338,3.6,5.4,18,0.00,,---,99.99,VWS V14.01,2013-03-27 17:40:00,
2013-03-27 13:41:00,62.8,18.7,30.33,WNW,292,3.1,6.5,18,0.00,,---,99.99,VWS V14.01,2013-03-27 17:41:00,
2013-03-27 13:42:00,63.1,19.0,30.33,ENE,68,4.0,4.0,18,0.00,,---,99.99,VWS V14.01,2013-03-27 17:42:00,
2013-03-27 13:43:00,63.9,19.6,30.30,NNW,338,1.3,4.0,18,0.00,,---,99.99,VWS V14.01,2013-03-27 17:43:00,
2013-03-27 13:44:00,64.0,19.7,30.30,SSE,158,0.9,1.3,18,0.00,,---,99.99,VWS V14.01,2013-03-27 17:44:00,
2013-03-27 13:45:00,64.4,20.0,30.30,North,0,1.1,1.1,18,0.00,,---,99.99,VWS V14.01,2013-03-27 17:45:00,
2013-03-27 13:46:00,64.8,20.3,30.30,WNW,292,4.9,4.9,18,0.00,,---,99.99,VWS V14.01,2013-03-27 17:46:00,
2013-03-27 13:47:00,64.2,19.9,30.30,SE,135,3.4,4.9,18,0.00,,---,99.99,VWS V14.01,2013-03-27 17:47:00,
2013-03-27 13:48:00,64.4,20.0,30.30,NNW,338,4.0,4.0,18,0.00,,---,99.99,VWS V14.01,2013-03-27 17:48:00,
2013-03-27 13:49:00,64.2,19.9,30.30,NNW,338,2.5,5.8,18,0.00,,---,99.99,VWS V14.01,2013-03-27 17:49:00,
2013-03-27 13:50:00,64.4,20.0,30.30,NNE,22,2.9,3.4,18,0.00,,---,99.99,VWS V14.01,2013-03-27 17:50:00,
2013-03-27 13:51:00,64.8,20.3,30.30,NE,45,2.5,2.9,18,0.00,,---,99.99,VWS V14.01,2013-03-27 17:51:00,
2013-03-27 13:52:00,65.1,20.6,30.30,NW,315,1.3,2.5,18,0.00,,---,99.99,VWS V14.01,2013-03-27 17:52:00,
2013-03-27 13:53:00,64.9,20.4,30.30,WNW,292,6.5,6.5,18,0.00,,---,99.99,VWS V14.01,2013-03-27 17:53:00,
2013-03-27 13:54:00,64.4,20.0,30.30,North,0,2.7,2.7,18,0.00,,---,99.99,VWS V14.01,2013-03-27 17:54:00,
2013-03-27 13:55:00,64.2,19.9,30.30,NNW,338,3.4,5.6,18,0.00,,---,99.99,VWS V14.01,2013-03-27 17:55:00,
2013-03-27 13:56:00,64.2,19.9,30.30,NNW,338,4.9,10.3,18,0.00,,---,99.99,VWS V14.01,2013-03-27 17:56:00,
2013-03-27 13:57:00,63.1,19.0,30.30,NNW,338,8.1,10.3,18,0.00,,---,99.99,VWS V14.01,2013-03-27 17:57:00,
2013-03-27 13:58:00,63.0,18.8,30.30,NW,315,4.3,8.1,18,0.00,,---,99.99,VWS V14.01,2013-03-27 17:58:00,
2013-03-27 13:59:00,61.9,19.2,30.30,WNW,292,6.3,13.9,19,0.00,,---,99.99,VWS V14.01,2013-03-27 17:59:00,
2013-03-27 14:00:00,61.7,19.0,30.30,NNE,22,4.9,9.6,19,0.00,,---,0.08,VWS V14.01,2013-03-27 18:00:00,
2013-03-27 14:01:00,62.1,19.3,30.30,SW,225,1.6,4.9,19,0.00,,---,99.99,VWS V14.01,2013-03-27 18:01:00,
2013-03-27 14:02:00,63.0,18.8,30.30,NW,315,4.7,4.7,18,0.00,,---,99.99,VWS V14.01,2013-03-27 18:02:00,
2013-03-27 14:03:00,62.1,19.3,30.30,WNW,292,5.8,10.3,19,0.00,,---,99.99,VWS V14.01,2013-03-27 18:03:00,
2013-03-27 14:04:00,62.1,19.3,30.30,NW,315,2.5,5.6,19,0.00,,---,99.99,VWS V14.01,2013-03-27 18:04:00,
2013-03-27 14:05:00,62.2,19.5,30.30,NNE,22,4.0,5.6,19,0.00,,---,99.99,VWS V14.01,2013-03-27 18:05:00,
2013-03-27 14:06:00,62.4,19.6,30.30,ENE,68,4.9,4.9,19,0.00,,---,99.99,VWS V14.01,2013-03-27 18:06:00,
2013-03-27 14:07:00,62.2,19.5,30.30,WNW,292,8.5,9.6,19,0.00,,---,99.99,VWS V14.01,2013-03-27 18:07:00,
2013-03-27 14:08:00,61.9,19.2,30.30,West,270,9.6,9.6,19,0.00,,---,99.99,VWS V14.01,2013-03-27 18:08:00,
2013-03-27 14:09:00,62.2,19.5,30.30,NNW,338,3.4,9.6,19,0.00,,---,99.99,VWS V14.01,2013-03-27 18:09:00,
2013-03-27 14:10:00,62.8,18.7,30.30,NNW,338,5.8,5.8,18,0.00,,---,99.99,VWS V14.01,2013-03-27 18:10:00,
2013-03-27 14:11:00,62.8,18.7,30.30,NNW,338,1.3,5.8,18,0.00,,---,99.99,VWS V14.01,2013-03-27 18:11:00,
2013-03-27 14:12:00,62.8,18.7,30.30,NNE,22,3.1,7.2,18,0.00,,---,99.99,VWS V14.01,2013-03-27 18:12:00,
2013-03-27 14:13:00,63.0,18.8,30.27,WNW,292,3.8,7.2,18,0.00,,---,99.99,VWS V14.01,2013-03-27 18:13:00,
2013-03-27 14:14:00,63.0,18.8,30.27,WNW,292,8.7,8.7,18,0.00,,---,99.99,VWS V14.01,2013-03-27 18:14:00,
2013-03-27 14:15:00,62.4,19.6,30.27,NNW,338,6.0,8.7,19,0.00,,---,99.99,VWS V14.01,2013-03-27 18:15:00,
2013-03-27 14:16:00,62.1,19.3,30.27,WNW,292,4.9,7.4,19,0.00,,---,99.99,VWS V14.01,2013-03-27 18:16:00,
2013-03-27 14:17:00,62.6,18.5,30.27,NW,315,3.8,4.9,18,0.00,,---,99.99,VWS V14.01,2013-03-27 18:17:00,
2013-03-27 14:18:00,62.4,19.6,30.27,WNW,292,2.7,7.2,19,0.00,,---,99.99,VWS V14.01,2013-03-27 18:18:00,
2013-03-27 14:19:00,62.6,18.5,30.27,WNW,292,0.9,2.7,18,0.00,,---,99.99,VWS V14.01,2013-03-27 18:19:00,
2013-03-27 14:20:00,62.6,18.5,30.27,NW,315,7.2,7.2,18,0.00,,---,99.99,VWS V14.01,2013-03-27 18:20:00,
2013-03-27 14:21:00,62.8,18.7,30.27,NW,315,3.8,7.2,18,0.00,,---,99.99,VWS V14.01,2013-03-27 18:21:00,
2013-03-27 14:22:00,62.6,18.5,30.27,WNW,292,5.8,6.3,18,0.00,,---,99.99,VWS V14.01,2013-03-27 18:22:00,
2013-03-27 14:23:00,61.9,19.2,30.27,WNW,292,3.4,10.3,19,0.00,,---,99.99,VWS V14.01,2013-03-27 18:23:00,
2013-03-27 14:24:00,61.0,18.5,30.27,NNW,338,5.8,13.0,19,0.00,,---,99.99,VWS V14.01,2013-03-27 18:24:00,
2013-03-27 14:25:00,61.0,18.5,30.27,NNW,338,3.8,5.8,19,0.00,,---,99.99,VWS V14.01,2013-03-27 18:25:00,
2013-03-27 14:26:00,61.5,18.9,30.27,WNW,292,4.0,5.6,19,0.00,,---,99.99,VWS V14.01,2013-03-27 18:26:00,
2013-03-27 14:27:00,61.9,19.2,30.27,WNW,292,6.5,6.5,19,0.00,,---,99.99,VWS V14.01,2013-03-27 18:27:00,
2013-03-27 14:28:00,60.8,18.3,30.30,WNW,292,7.2,14.1,19,0.00,,---,99.99,VWS V14.01,2013-03-27 18:28:00,
2013-03-27 14:29:00,61.5,18.9,30.30,NW,315,6.0,7.2,19,0.00,,---,99.99,VWS V14.01,2013-03-27 18:29:00,
2013-03-27 14:30:00,61.9,19.2,30.30,North,0,2.7,6.0,19,0.00,,---,99.99,VWS V14.01,2013-03-27 18:30:00,
2013-03-27 14:31:00,61.7,19.0,30.30,SSE,158,6.5,6.5,19,0.00,,---,99.99,VWS V14.01,2013-03-27 18:31:00,
2013-03-27 14:32:00,61.2,18.6,30.30,WNW,292,5.8,10.1,19,0.00,,---,99.99,VWS V14.01,2013-03-27 18:32:00,
2013-03-27 14:33:00,61.3,18.8,30.30,NNW,338,3.6,8.1,19,0.00,,---,99.99,VWS V14.01,2013-03-27 18:33:00,
2013-03-27 14:34:00,61.9,19.2,30.30,NNE,22,2.5,3.6,19,0.00,,---,99.99,VWS V14.01,2013-03-27 18:34:00,
2013-03-27 14:35:00,62.6,18.5,30.30,WNW,292,2.5,5.8,18,0.00,,---,99.99,VWS V14.01,2013-03-27 18:35:00,
2013-03-27 14:36:00,62.6,18.5,30.30,ENE,68,6.3,10.1,18,0.00,,---,99.99,VWS V14.01,2013-03-27 18:36:00,
2013-03-27 14:37:00,62.2,19.5,30.30,NNW,338,3.8,10.1,19,0.00,,---,99.99,VWS V14.01,2013-03-27 18:37:00,
2013-03-27 14:38:00,62.8,18.7,30.30,NNE,22,3.4,3.8,18,0.00,,---,99.99,VWS V14.01,2013-03-27 18:38:00,
2013-03-27 14:39:00,63.3,19.1,30.30,WNW,292,5.6,5.6,18,0.00,,---,99.99,VWS V14.01,2013-03-27 18:39:00,
2013-03-27 14:40:00,63.1,19.0,30.30,WNW,292,2.7,5.6,18,0.00,,---,99.99,VWS V14.01,2013-03-27 18:40:00,
2013-03-27 14:41:00,63.3,19.1,30.30,North,0,4.9,6.5,18,0.00,,---,99.99,VWS V14.01,2013-03-27 18:41:00,
2013-03-27 14:42:00,63.3,19.1,30.30,NW,315,2.7,4.9,18,0.00,,---,99.99,VWS V14.01,2013-03-27 18:42:00,
2013-03-27 14:43:00,62.8,18.7,30.27,WNW,292,8.7,8.7,18,0.00,,---,99.99,VWS V14.01,2013-03-27 18:43:00,
2013-03-27 14:44:00,62.2,19.5,30.27,NNE,22,3.4,9.2,19,0.00,,---,99.99,VWS V14.01,2013-03-27 18:44:00,
2013-03-27 14:45:00,63.0,18.8,30.27,North,0,2.7,3.4,18,0.00,,---,99.99,VWS V14.01,2013-03-27 18:45:00,
2013-03-27 14:46:00,63.1,19.0,30.27,NNW,338,11.0,11.0,18,0.00,,---,99.99,VWS V14.01,2013-03-27 18:46:00,
2013-03-27 14:47:00,61.3,18.8,30.27,NNE,22,6.3,14.8,19,0.00,,---,99.99,VWS V14.01,2013-03-27 18:47:00,
2013-03-27 14:48:00,61.9,19.2,30.27,NNW,338,5.4,6.5,19,0.00,,---,99.99,VWS V14.01,2013-03-27 18:48:00,
2013-03-27 14:49:00,62.1,19.3,30.27,WNW,292,5.6,5.6,19,0.00,,---,99.99,VWS V14.01,2013-03-27 18:49:00,
2013-03-27 14:50:00,62.1,19.3,30.27,WNW,292,4.3,8.5,19,0.00,,---,99.99,VWS V14.01,2013-03-27 18:50:00,
2013-03-27 14:51:00,61.7,19.0,30.27,WNW,292,5.6,8.1,19,0.00,,---,99.99,VWS V14.01,2013-03-27 18:51:00,
2013-03-27 14:52:00,61.7,19.0,30.27,WNW,292,7.2,7.2,19,0.00,,---,99.99,VWS V14.01,2013-03-27 18:52:00,
2013-03-27 14:53:00,61.2,18.6,30.27,North,0,10.7,11.2,19,0.00,,---,99.99,VWS V14.01,2013-03-27 18:53:00,
2013-03-27 14:54:00,61.9,19.2,30.27,NNW,338,8.5,10.7,19,0.00,,---,99.99,VWS V14.01,2013-03-27 18:54:00,
2013-03-27 14:55:00,62.2,19.5,30.27,WSW,248,3.8,8.5,19,0.00,,---,99.99,VWS V14.01,2013-03-27 18:55:00,
2013-03-27 14:56:00,62.8,18.7,30.27,NNW,338,5.8,7.4,18,0.00,,---,99.99,VWS V14.01,2013-03-27 18:56:00,
2013-03-27 14:57:00,62.2,19.5,30.27,NNW,338,3.6,7.8,19,0.00,,---,99.99,VWS V14.01,2013-03-27 18:57:00,
2013-03-27 14:58:00,61.9,19.2,30.27,WSW,248,5.8,5.8,19,0.00,,---,99.99,VWS V14.01,2013-03-27 18:58:00,
2013-03-27 14:59:00,62.1,19.3,30.27,WNW,292,4.9,7.4,19,0.00,,---,99.99,VWS V14.01,2013-03-27 18:59:00,
2013-03-27 15:00:00,62.6,18.5,30.27,WNW,292,1.3,4.9,18,0.00,,---,0.08,VWS V14.01,2013-03-27 19:00:00,
2013-03-27 15:01:00,63.0,18.8,30.27,NNW,338,2.9,4.9,18,0.00,,---,99.99,VWS V14.01,2013-03-27 19:01:00,
2013-03-27 15:02:00,63.0,18.8,30.27,SSW,202,2.9,4.9,18,0.00,,---,99.99,VWS V14.01,2013-03-27 19:02:00,
2013-03-27 15:03:00,63.1,19.0,30.27,WNW,292,2.7,2.7,18,0.00,,---,99.99,VWS V14.01,2013-03-27 19:03:00,
2013-03-27 15:04:00,63.0,18.8,30.27,WNW,292,3.4,6.5,18,0.00,,---,99.99,VWS V14.01,2013-03-27 19:04:00,
2013-03-27 15:05:00,63.0,18.8,30.27,WNW,292,3.6,4.7,18,0.00,,---,99.99,VWS V14.01,2013-03-27 19:05:00,
2013-03-27 15:06:00,63.3,19.1,30.27,WNW,292,4.0,5.6,18,0.00,,---,99.99,VWS V14.01,2013-03-27 19:06:00,
2013-03-27 15:07:00,63.3,19.1,30.27,WNW,292,2.2,4.9,18,0.00,,---,99.99,VWS V14.01,2013-03-27 19:07:00,
2013-03-27 15:08:00,63.5,19.3,30.27,NNW,338,2.5,4.5,18,0.00,,---,99.99,VWS V14.01,2013-03-27 19:08:00,
2013-03-27 15:09:00,63.7,19.4,30.27,WNW,292,2.9,4.3,18,0.00,,---,99.99,VWS V14.01,2013-03-27 19:09:00,
2013-03-27 15:10:00,63.5,19.3,30.27,ENE,68,3.1,6.0,18,0.00,,---,99.99,VWS V14.01,2013-03-27 19:10:00,
2013-03-27 15:11:00,63.5,19.3,30.27,SSW,202,1.6,3.4,18,0.00,,---,99.99,VWS V14.01,2013-03-27 19:11:00,
2013-03-27 15:12:00,63.5,19.3,30.27,NNW,338,4.9,6.3,18,0.00,,---,99.99,VWS V14.01,2013-03-27 19:12:00,
2013-03-27 15:13:00,64.0,19.7,30.27,NW,315,3.4,4.9,18,0.00,,---,99.99,VWS V14.01,2013-03-27 19:13:00,
2013-03-27 15:14:00,64.0,19.7,30.27,WNW,292,5.8,7.4,18,0.00,,---,99.99,VWS V14.01,2013-03-27 19:14:00,
2013-03-27 15:15:00,63.1,19.0,30.27,WSW,248,4.7,4.7,18,0.00,,---,99.99,VWS V14.01,2013-03-27 19:15:00,
2013-03-27 15:16:00,63.3,19.1,30.27,NNE,22,2.5,4.7,18,0.00,,---,99.99,VWS V14.01,2013-03-27 19:16:00,
2013-03-27 15:17:00,63.5,19.3,30.27,NW,315,3.1,4.7,18,0.00,,---,99.99,VWS V14.01,2013-03-27 19:17:00,
2013-03-27 15:18:00,63.7,19.4,30.27,ENE,68,1.6,4.3,18,0.00,,---,99.99,VWS V14.01,2013-03-27 19:18:00,
2013-03-27 15:19:00,64.2,19.9,30.27,NNW,338,9.2,9.2,18,0.00,,---,99.99,VWS V14.01,2013-03-27 19:19:00,
2013-03-27 15:20:00,63.7,19.4,30.27,NNE,22,1.6,9.2,18,0.00,,---,99.99,VWS V14.01,2013-03-27 19:20:00,
2013-03-27 15:21:00,63.9,19.6,30.27,NNW,338,6.0,6.0,18,0.00,,---,99.99,VWS V14.01,2013-03-27 19:21:00,
2013-03-27 15:22:00,64.2,19.9,30.27,WNW,292,3.4,6.0,18,0.00,,---,99.99,VWS V14.01,2013-03-27 19:22:00,
2013-03-27 15:23:00,64.0,19.7,30.27,North,0,1.6,7.8,18,0.00,,---,99.99,VWS V14.01,2013-03-27 19:23:00,
2013-03-27 15:24:00,63.9,19.6,30.27,NNW,338,5.6,6.3,18,0.00,,---,99.99,VWS V14.01,2013-03-27 19:24:00,
2013-03-27 15:25:00,64.0,19.7,30.27,WNW,292,6.7,6.7,18,0.00,,---,99.99,VWS V14.01,2013-03-27 19:25:00,
2013-03-27 15:26:00,63.1,19.0,30.27,WNW,292,7.4,10.1,18,0.00,,---,99.99,VWS V14.01,2013-03-27 19:26:00,
2013-03-27 15:27:00,62.8,18.7,30.27,NW,315,6.5,7.4,18,0.00,,---,99.99,VWS V14.01,2013-03-27 19:27:00,
2013-03-27 15:28:00,63.0,18.8,30.27,WNW,292,1.3,6.5,18,0.00,,---,99.99,VWS V14.01,2013-03-27 19:28:00,
2013-03-27 15:29:00,63.1,19.0,30.27,North,0,3.4,3.4,18,0.00,,---,99.99,VWS V14.01,2013-03-27 19:29:00,
2013-03-27 15:30:00,63.1,19.0,30.27,WNW,292,4.9,4.9,18,0.00,,---,99.99,VWS V14.01,2013-03-27 19:30:00,
2013-03-27 15:31:00,63.1,19.0,30.27,North,0,3.8,6.0,18,0.00,,---,99.99,VWS V14.01,2013-03-27 19:31:00,
2013-03-27 15:32:00,63.0,18.8,30.27,WNW,292,2.5,4.9,18,0.00,,---,99.99,VWS V14.01,2013-03-27 19:32:00,
2013-03-27 15:33:00,63.0,18.8,30.27,NW,315,4.0,6.0,18,0.00,,---,99.99,VWS V14.01,2013-03-27 19:33:00,
2013-03-27 15:34:00,63.3,19.1,30.27,WNW,292,3.1,4.0,18,0.00,,---,99.99,VWS V14.01,2013-03-27 19:34:00,
2013-03-27 15:35:00,62.8,18.7,30.27,NNW,338,6.3,12.5,18,0.00,,---,99.99,VWS V14.01,2013-03-27 19:35:00,
2013-03-27 15:36:00,62.4,19.6,30.27,WNW,292,4.9,6.3,19,0.00,,---,99.99,VWS V14.01,2013-03-27 19:36:00,
2013-03-27 15:37:00,62.2,19.5,30.27,WNW,292,2.9,4.9,19,0.00,,---,99.99,VWS V14.01,2013-03-27 19:37:00,
2013-03-27 15:38:00,62.4,19.6,30.27,NNE,22,1.1,5.4,19,0.00,,---,99.99,VWS V14.01,2013-03-27 19:38:00,
2013-03-27 15:39:00,62.6,18.5,30.27,NW,315,6.0,6.0,18,0.00,,---,99.99,VWS V14.01,2013-03-27 19:39:00,
2013-03-27 15:40:00,62.8,18.7,30.27,WNW,292,2.9,6.5,18,0.00,,---,99.99,VWS V14.01,2013-03-27 19:40:00,
2013-03-27 15:41:00,62.8,18.7,30.27,NNW,338,10.3,10.3,18,0.00,,---,99.99,VWS V14.01,2013-03-27 19:41:00,
2013-03-27 15:42:00,62.2,19.5,30.27,NNW,338,6.9,10.3,19,0.00,,---,99.99,VWS V14.01,2013-03-27 19:42:00,
2013-03-27 15:43:00,61.7,19.0,30.27,West,270,2.0,6.9,19,0.00,,---,99.99,VWS V14.01,2013-03-27 19:43:00,
2013-03-27 15:44:00,61.9,19.2,30.27,NNW,338,6.5,7.6,19,0.00,,---,99.99,VWS V14.01,2013-03-27 19:44:00,
2013-03-27 15:45:00,61.3,18.8,30.27,ENE,68,3.6,11.9,19,0.00,,---,99.99,VWS V14.01,2013-03-27 19:45:00,
2013-03-27 15:46:00,61.9,19.2,30.27,North,0,2.7,3.8,19,0.00,,---,99.99,VWS V14.01,2013-03-27 19:46:00,
2013-03-27 15:47:00,61.5,18.9,30.27,WNW,292,6.0,6.0,19,0.00,,---,99.99,VWS V14.01,2013-03-27 19:47:00,
2013-03-27 15:48:00,61.7,19.0,30.27,WNW,292,5.4,6.0,19,0.00,,---,99.99,VWS V14.01,2013-03-27 19:48:00,
2013-03-27 15:49:00,62.1,19.3,30.27,ENE,68,2.9,5.4,19,0.00,,---,99.99,VWS V14.01,2013-03-27 19:49:00,
2013-03-27 15:50:00,62.4,19.6,30.27,NNW,338,6.3,7.6,19,0.00,,---,99.99,VWS V14.01,2013-03-27 19:50:00,
2013-03-27 15:51:00,61.3,18.8,30.27,WNW,292,4.3,11.0,19,0.00,,---,99.99,VWS V14.01,2013-03-27 19:51:00,
2013-03-27 15:52:00,61.2,18.6,30.27,SSW,202,4.7,10.5,19,0.00,,---,99.99,VWS V14.01,2013-03-27 19:52:00,
2013-03-27 15:53:00,61.2,18.6,30.27,NNE,22,3.8,4.7,19,0.00,,---,99.99,VWS V14.01,2013-03-27 19:53:00,
2013-03-27 15:54:00,61.5,18.9,30.27,North,0,2.5,5.8,19,0.00,,---,99.99,VWS V14.01,2013-03-27 19:54:00,
2013-03-27 15:55:00,61.7,19.0,30.27,West,270,2.0,2.9,19,0.00,,---,99.99,VWS V14.01,2013-03-27 19:55:00,
2013-03-27 15:56:00,61.7,19.0,30.27,NW,315,2.5,6.5,19,0.00,,---,99.99,VWS V14.01,2013-03-27 19:56:00,
2013-03-27 15:57:00,62.2,19.5,30.27,WNW,292,4.9,5.4,19,0.00,,---,99.99,VWS V14.01,2013-03-27 19:57:00,
2013-03-27 15:58:00,61.7,19.0,30.27,WNW,292,7.6,7.6,19,0.00,,---,99.99,VWS V14.01,2013-03-27 19:58:00,
2013-03-27 15:59:00,61.0,18.5,30.27,WNW,292,8.1,10.1,19,0.00,,---,99.99,VWS V14.01,2013-03-27 19:59:00,
2013-03-27 16:00:00,60.4,18.0,30.27,West,270,8.7,8.7,19,0.00,,---,99.99,VWS V14.01,2013-03-27 20:00:00,
2013-03-27 16:01:00,60.4,18.0,30.27,WNW,292,4.9,8.7,19,0.00,,---,99.99,VWS V14.01,2013-03-27 20:01:00,
2013-03-27 16:02:00,61.0,18.5,30.27,NNW,338,4.0,4.0,19,0.00,,---,99.99,VWS V14.01,2013-03-27 20:02:00,
2013-03-27 16:03:00,61.5,18.9,30.27,NW,315,11.0,11.0,19,0.00,,---,99.99,VWS V14.01,2013-03-27 20:03:00,
2013-03-27 16:04:00,61.5,18.9,30.27,NNE,22,10.3,11.0,19,0.00,,---,99.99,VWS V14.01,2013-03-27 20:04:00,
2013-03-27 16:05:00,60.4,18.0,30.27,WNW,292,8.5,10.3,19,0.00,,---,99.99,VWS V14.01,2013-03-27 20:05:00,
2013-03-27 16:06:00,60.8,18.3,30.27,North,0,4.0,8.7,19,0.00,,---,99.99,VWS V14.01,2013-03-27 20:06:00,
2013-03-27 16:07:00,61.0,18.5,30.27,WNW,292,3.1,6.9,19,0.00,,---,99.99,VWS V14.01,2013-03-27 20:07:00,
2013-03-27 16:08:00,61.3,18.8,30.27,ESE,112,2.9,3.1,19,0.00,,---,99.99,VWS V14.01,2013-03-27 20:08:00,
2013-03-27 16:09:00,61.3,18.8,30.27,WNW,292,5.4,10.5,19,0.00,,---,99.99,VWS V14.01,2013-03-27 20:09:00,
2013-03-27 16:10:00,61.2,18.6,30.27,WNW,292,3.8,5.4,19,0.00,,---,99.99,VWS V14.01,2013-03-27 20:10:00,
2013-03-27 16:11:00,61.5,18.9,30.27,NNW,338,2.9,4.0,19,0.00,,---,99.99,VWS V14.01,2013-03-27 20:11:00,
2013-03-27 16:12:00,61.7,19.0,30.27,WNW,292,3.4,4.0,19,0.00,,---,99.99,VWS V14.01,2013-03-27 20:12:00,
2013-03-27 16:13:00,60.8,18.3,30.27,NW,315,4.3,8.5,19,0.00,,---,99.99,VWS V14.01,2013-03-27 20:13:00,
2013-03-27 16:14:00,60.4,18.0,30.27,North,0,4.3,8.5,19,0.00,,---,99.99,VWS V14.01,2013-03-27 20:14:00,
2013-03-27 16:15:00,61.0,18.5,30.27,WNW,292,2.7,4.3,19,0.00,,---,99.99,VWS V14.01,2013-03-27 20:15:00,
2013-03-27 16:16:00,61.3,18.8,30.27,NW,315,8.1,8.1,19,0.00,,---,99.99,VWS V14.01,2013-03-27 20:16:00,
2013-03-27 16:17:00,61.3,18.8,30.27,WNW,292,3.4,7.6,19,0.00,,---,99.99,VWS V14.01,2013-03-27 20:17:00,
2013-03-27 16:18:00,60.6,18.2,30.27,NNW,338,3.1,10.1,19,0.00,,---,99.99,VWS V14.01,2013-03-27 20:18:00,
2013-03-27 16:19:00,60.6,18.2,30.27,WNW,292,6.3,9.2,19,0.00,,---,99.99,VWS V14.01,2013-03-27 20:19:00,
2013-03-27 16:20:00,60.4,18.0,30.27,WSW,248,5.8,9.2,19,0.00,,---,99.99,VWS V14.01,2013-03-27 20:20:00,
2013-03-27 16:21:00,60.8,18.3,30.27,NNW,338,3.6,5.8,19,0.00,,---,99.99,VWS V14.01,2013-03-27 20:21:00,
2013-03-27 16:22:00,61.0,20.8,30.27,NNW,338,4.3,4.3,21,0.00,,---,99.99,VWS V14.01,2013-03-27 20:22:00,
2013-03-27 16:23:00,61.3,21.1,30.27,ENE,68,2.7,4.3,21,0.00,,---,99.99,VWS V14.01,2013-03-27 20:23:00,
2013-03-27 16:24:00,61.3,21.1,30.27,WNW,292,3.8,6.0,21,0.00,,---,99.99,VWS V14.01,2013-03-27 20:24:00,
2013-03-27 16:25:00,61.7,21.4,30.27,NNW,338,3.1,3.8,21,0.00,,---,99.99,VWS V14.01,2013-03-27 20:25:00,
2013-03-27 16:26:00,61.7,21.4,30.27,NNW,338,2.5,4.7,21,0.00,,---,99.99,VWS V14.01,2013-03-27 20:26:00,
2013-03-27 16:27:00,61.9,21.5,30.27,North,0,5.6,5.6,21,0.00,,---,99.99,VWS V14.01,2013-03-27 20:27:00,
2013-03-27 16:28:00,62.1,21.7,30.24,NNE,22,2.9,5.6,21,0.00,,---,99.99,VWS V14.01,2013-03-27 20:28:00,
2013-03-27 16:29:00,61.7,21.4,30.24,NNE,22,4.3,7.8,21,0.00,,---,99.99,VWS V14.01,2013-03-27 20:29:00,
2013-03-27 16:30:00,61.5,21.2,30.24,North,0,6.9,6.9,21,0.00,,---,99.99,VWS V14.01,2013-03-27 20:30:00,
2013-03-27 16:31:00,61.3,21.1,30.24,WNW,292,1.6,6.9,21,0.00,,---,99.99,VWS V14.01,2013-03-27 20:31:00,
2013-03-27 16:32:00,61.3,21.1,30.24,NNW,338,3.8,4.7,21,0.00,,---,99.99,VWS V14.01,2013-03-27 20:32:00,
2013-03-27 16:33:00,61.5,21.2,30.24,NNW,338,3.6,5.6,21,0.00,,---,99.99,VWS V14.01,2013-03-27 20:33:00,
2013-03-27 16:34:00,61.3,21.1,30.24,North,0,4.3,7.6,21,0.00,,---,99.99,VWS V14.01,2013-03-27 20:34:00,
2013-03-27 16:35:00,61.9,19.2,30.27,WNW,292,4.3,11.0,19,0.00,,---,99.99,VWS V14.01,2013-03-27 20:35:00,
2013-03-27 16:36:00,61.2,20.9,30.24,NNW,338,3.1,7.2,21,0.00,,---,99.99,VWS V14.01,2013-03-27 20:36:00,
2013-03-27 16:37:00,61.2,20.9,30.24,NNW,338,2.5,5.4,21,0.00,,---,99.99,VWS V14.01,2013-03-27 20:37:00,
2013-03-27 16:38:00,61.2,20.9,30.24,NW,315,7.2,7.2,21,0.00,,---,99.99,VWS V14.01,2013-03-27 20:38:00,
2013-03-27 16:39:00,60.4,21.4,30.24,WNW,292,5.8,8.5,22,0.00,,---,99.99,VWS V14.01,2013-03-27 20:39:00,
2013-03-27 16:40:00,59.9,21.0,30.24,WNW,292,11.0,11.0,22,0.00,,---,99.99,VWS V14.01,2013-03-27 20:40:00,
2013-03-27 16:41:00,59.5,20.7,30.24,WNW,292,5.4,11.0,22,0.00,,---,99.99,VWS V14.01,2013-03-27 20:41:00,
2013-03-27 16:42:00,59.2,20.4,30.24,NNW,338,2.7,10.1,22,0.00,,---,99.99,VWS V14.01,2013-03-27 20:42:00,
2013-03-27 16:43:00,59.5,20.7,30.24,WNW,292,1.3,6.5,22,0.00,,---,99.99,VWS V14.01,2013-03-27 20:43:00,
2013-03-27 16:44:00,59.7,20.8,30.24,NNW,338,2.7,4.9,22,0.00,,---,99.99,VWS V14.01,2013-03-27 20:44:00,
2013-03-27 16:45:00,60.1,21.1,30.24,WNW,292,3.4,3.4,22,0.00,,---,99.99,VWS V14.01,2013-03-27 20:45:00,
2013-03-27 16:46:00,60.1,21.1,30.24,ENE,68,2.9,5.4,22,0.00,,---,99.99,VWS V14.01,2013-03-27 20:46:00,
2013-03-27 16:47:00,60.1,21.1,30.24,WNW,292,1.6,5.4,22,0.00,,---,99.99,VWS V14.01,2013-03-27 20:47:00,
2013-03-27 16:48:00,60.3,21.3,30.24,North,0,6.3,6.3,22,0.00,,---,99.99,VWS V14.01,2013-03-27 20:48:00,
2013-03-27 16:49:00,60.8,18.3,30.27,WNW,292,8.5,10.3,19,0.00,,---,99.99,VWS V14.01,2013-03-27 20:49:00,
2013-03-27 16:50:00,60.6,21.6,30.24,SSE,158,2.9,4.0,22,0.00,,---,99.99,VWS V14.01,2013-03-27 20:50:00,
2013-03-27 16:51:00,60.6,21.6,30.24,WSW,248,3.4,3.4,22,0.00,,---,99.99,VWS V14.01,2013-03-27 20:51:00,
2013-03-27 16:52:00,60.3,21.3,30.24,NW,315,11.9,11.9,22,0.00,,---,99.99,VWS V14.01,2013-03-27 20:52:00,
2013-03-27 16:53:00,60.4,21.4,30.24,West,270,1.6,11.9,22,0.00,,---,99.99,VWS V14.01,2013-03-27 20:53:00,
2013-03-27 16:54:00,60.4,21.4,30.24,WNW,292,4.9,5.6,22,0.00,,---,99.99,VWS V14.01,2013-03-27 20:54:00,
2013-03-27 16:55:00,60.4,21.4,30.24,ENE,68,3.6,6.3,22,0.00,,---,99.99,VWS V14.01,2013-03-27 20:55:00,
2013-03-27 16:56:00,60.6,21.6,30.24,North,0,3.6,3.6,22,0.00,,---,99.99,VWS V14.01,2013-03-27 20:56:00,
2013-03-27 16:57:00,60.1,21.1,30.24,NW,315,5.8,10.3,22,0.00,,---,99.99,VWS V14.01,2013-03-27 20:57:00,
2013-03-27 16:58:00,60.1,21.1,30.27,WNW,292,7.6,7.6,22,0.00,,---,99.99,VWS V14.01,2013-03-27 20:58:00,
2013-03-27 16:59:00,59.7,20.8,30.27,NNW,338,6.5,7.6,22,0.00,,---,99.99,VWS V14.01,2013-03-27 20:59:00,
2013-03-27 17:00:00,59.9,21.0,30.27,WNW,292,2.2,3.4,22,0.00,,---,99.99,VWS V14.01,2013-03-27 21:00:00,
2013-03-27 17:01:00,59.9,21.0,30.27,ENE,68,4.3,6.5,22,0.00,,---,99.99,VWS V14.01,2013-03-27 21:01:00,
2013-03-27 17:02:00,59.7,20.8,30.27,WSW,248,3.6,4.3,22,0.00,,---,99.99,VWS V14.01,2013-03-27 21:02:00,
2013-03-27 17:03:00,59.9,21.0,30.27,NNW,338,5.4,7.2,22,0.00,,---,99.99,VWS V14.01,2013-03-27 21:03:00,
2013-03-27 17:04:00,59.7,20.8,30.27,NNW,338,3.1,7.2,22,0.00,,---,99.99,VWS V14.01,2013-03-27 21:04:00,
2013-03-27 17:05:00,59.7,20.8,30.27,NW,315,5.8,9.8,22,0.00,,---,99.99,VWS V14.01,2013-03-27 21:05:00,
2013-03-27 17:06:00,59.5,20.7,30.27,NNW,338,3.1,5.8,22,0.00,,---,99.99,VWS V14.01,2013-03-27 21:06:00,
2013-03-27 17:07:00,59.5,20.7,30.27,WNW,292,8.7,8.7,22,0.00,,---,99.99,VWS V14.01,2013-03-27 21:07:00,
2013-03-27 17:08:00,59.5,20.7,30.27,NNE,22,3.1,8.7,22,0.00,,---,99.99,VWS V14.01,2013-03-27 21:08:00,
2013-03-27 17:09:00,59.7,20.8,30.27,North,0,2.9,3.8,22,0.00,,---,99.99,VWS V14.01,2013-03-27 21:09:00,
2013-03-27 17:10:00,59.7,20.8,30.27,WNW,292,5.8,5.8,22,0.00,,---,99.99,VWS V14.01,2013-03-27 21:10:00,
2013-03-27 17:11:00,59.5,20.7,30.27,WNW,292,4.3,5.8,22,0.00,,---,99.99,VWS V14.01,2013-03-27 21:11:00,
2013-03-27 17:12:00,59.5,22.7,30.27,NNW,338,4.7,4.7,24,0.00,,---,99.99,VWS V14.01,2013-03-27 21:12:00,
2013-03-27 17:13:00,59.7,22.9,30.27,WNW,292,3.1,4.7,24,0.00,,---,99.99,VWS V14.01,2013-03-27 21:13:00,
2013-03-27 17:14:00,59.4,22.6,30.27,West,270,4.0,4.0,24,0.00,,---,99.99,VWS V14.01,2013-03-27 21:14:00,
2013-03-27 17:15:00,59.0,22.3,30.27,North,0,5.4,6.3,24,0.00,,---,99.99,VWS V14.01,2013-03-27 21:15:00,
2013-03-27 17:16:00,58.8,22.1,30.27,WSW,248,4.3,6.5,24,0.00,,---,99.99,VWS V14.01,2013-03-27 21:16:00,
2013-03-27 17:17:00,58.6,22.0,30.27,West,270,3.1,5.8,24,0.00,,---,99.99,VWS V14.01,2013-03-27 21:17:00,
2013-03-27 17:18:00,57.9,21.4,30.27,NNW,338,7.8,7.8,24,0.00,,---,99.99,VWS V14.01,2013-03-27 21:18:00,
2013-03-27 17:19:00,57.7,21.2,30.27,NNW,338,5.6,7.8,24,0.00,,---,99.99,VWS V14.01,2013-03-27 21:19:00,
2013-03-27 17:20:00,57.7,21.2,30.27,ENE,68,1.1,5.6,24,0.00,,---,99.99,VWS V14.01,2013-03-27 21:20:00,
2013-03-27 17:21:00,57.7,21.2,30.27,North,0,2.0,2.0,24,0.00,,---,99.99,VWS V14.01,2013-03-27 21:21:00,
2013-03-27 17:22:00,57.2,20.8,30.27,WNW,292,5.6,9.2,24,0.00,,---,99.99,VWS V14.01,2013-03-27 21:22:00,
2013-03-27 17:23:00,57.0,21.6,30.27,NNW,338,5.6,5.8,25,0.00,,---,99.99,VWS V14.01,2013-03-27 21:23:00,
2013-03-27 17:24:00,57.0,21.6,30.27,NNE,22,3.8,5.6,25,0.00,,---,99.99,VWS V14.01,2013-03-27 21:24:00,
2013-03-27 17:25:00,56.8,21.4,30.27,North,0,2.5,5.4,25,0.00,,---,99.99,VWS V14.01,2013-03-27 21:25:00,
2013-03-27 17:26:00,56.8,21.4,30.27,West,270,3.4,6.5,25,0.00,,---,99.99,VWS V14.01,2013-03-27 21:26:00,
2013-03-27 17:27:00,56.7,21.3,30.27,WNW,292,3.8,3.8,25,0.00,,---,99.99,VWS V14.01,2013-03-27 21:27:00,
2013-03-27 17:28:00,56.3,21.0,30.27,North,0,7.6,7.6,25,0.00,,---,99.99,VWS V14.01,2013-03-27 21:28:00,
2013-03-27 17:29:00,55.9,20.6,30.27,WNW,292,2.7,7.6,25,0.00,,---,99.99,VWS V14.01,2013-03-27 21:29:00,
2013-03-27 17:30:00,55.9,21.6,30.27,West,270,3.6,3.6,26,0.00,,---,99.99,VWS V14.01,2013-03-27 21:30:00,
2013-03-27 17:31:00,55.6,21.3,30.27,NNW,338,7.4,7.4,26,0.00,,---,99.99,VWS V14.01,2013-03-27 21:31:00,
2013-03-27 17:32:00,55.6,21.3,30.27,WSW,248,7.8,7.8,26,0.00,,---,99.99,VWS V14.01,2013-03-27 21:32:00,
2013-03-27 17:33:00,55.4,21.1,30.27,West,270,6.3,7.8,26,0.00,,---,99.99,VWS V14.01,2013-03-27 21:33:00,
2013-03-27 17:34:00,55.0,20.8,30.27,WNW,292,4.0,6.3,26,0.00,,---,99.99,VWS V14.01,2013-03-27 21:34:00,
2013-03-27 17:35:00,55.0,21.7,30.27,WNW,292,6.5,6.5,27,0.00,,---,99.99,VWS V14.01,2013-03-27 21:35:00,
2013-03-27 17:36:00,54.9,21.5,30.27,NNE,22,2.5,6.5,27,0.00,,---,99.99,VWS V14.01,2013-03-27 21:36:00,
2013-03-27 17:37:00,55.0,21.7,30.27,NW,315,2.7,4.9,27,0.00,,---,99.99,VWS V14.01,2013-03-27 21:37:00,
2013-03-27 17:38:00,55.0,21.7,30.27,NNW,338,2.2,4.9,27,0.00,,---,99.99,VWS V14.01,2013-03-27 21:38:00,
2013-03-27 17:39:00,54.9,21.5,30.27,NW,315,10.5,10.5,27,0.00,,---,99.99,VWS V14.01,2013-03-27 21:39:00,
2013-03-27 17:40:00,54.5,21.2,30.27,North,0,4.7,10.5,27,0.00,,---,99.99,VWS V14.01,2013-03-27 21:40:00,
2013-03-27 17:41:00,54.7,21.4,30.27,WNW,292,4.0,4.7,27,0.00,,---,99.99,VWS V14.01,2013-03-27 21:41:00,
2013-03-27 17:42:00,54.7,21.4,30.27,NNW,338,2.2,4.3,27,0.00,,---,99.99,VWS V14.01,2013-03-27 21:42:00,
2013-03-27 17:43:00,54.7,21.4,30.27,WNW,292,6.5,6.5,27,0.00,,---,99.99,VWS V14.01,2013-03-27 21:43:00,
2013-03-27 17:44:00,54.7,21.4,30.27,West,270,6.3,6.5,27,0.00,,---,99.99,VWS V14.01,2013-03-27 21:44:00,
2013-03-27 17:45:00,54.5,21.2,30.27,NNW,338,6.5,6.5,27,0.00,,---,99.99,VWS V14.01,2013-03-27 21:45:00,
2013-03-27 17:46:00,54.5,22.1,30.27,NNW,338,3.8,6.5,28,0.00,,---,99.99,VWS V14.01,2013-03-27 21:46:00,
2013-03-27 17:47:00,54.5,22.1,30.27,SE,135,2.5,3.8,28,0.00,,---,99.99,VWS V14.01,2013-03-27 21:47:00,
2013-03-27 17:48:00,54.5,22.1,30.27,WNW,292,4.0,4.9,28,0.00,,---,99.99,VWS V14.01,2013-03-27 21:48:00,
2013-03-27 17:49:00,54.5,22.1,30.27,NNW,338,4.7,5.8,28,0.00,,---,99.99,VWS V14.01,2013-03-27 21:49:00,
2013-03-27 17:50:00,54.5,22.1,30.27,WNW,292,4.3,4.7,28,0.00,,---,99.99,VWS V14.01,2013-03-27 21:50:00,
2013-03-27 17:51:00,54.5,22.1,30.27,WNW,292,4.3,4.3,28,0.00,,---,99.99,VWS V14.01,2013-03-27 21:51:00,
2013-03-27 17:52:00,54.3,21.9,30.27,WNW,292,7.2,7.2,28,0.00,,---,99.99,VWS V14.01,2013-03-27 21:52:00,
2013-03-27 17:53:00,54.3,21.1,30.27,NNW,338,3.4,7.2,27,0.00,,---,99.99,VWS V14.01,2013-03-27 21:53:00,
2013-03-27 17:54:00,54.3,21.1,30.27,NNW,338,4.0,4.0,27,0.00,,---,99.99,VWS V14.01,2013-03-27 21:54:00,
2013-03-27 17:55:00,59.5,20.7,30.27,WNW,292,2.5,5.8,22,0.00,,---,99.99,VWS V14.01,2013-03-27 21:55:00,
2013-03-27 17:56:00,54.3,21.9,30.27,North,0,3.6,6.3,28,0.00,,---,99.99,VWS V14.01,2013-03-27 21:56:00,
2013-03-27 17:57:00,54.3,21.9,30.27,NW,315,7.8,7.8,28,0.00,,---,99.99,VWS V14.01,2013-03-27 21:57:00,
2013-03-27 17:58:00,54.0,21.6,30.27,NW,315,3.1,8.1,28,0.00,,---,99.99,VWS V14.01,2013-03-27 21:58:00,
2013-03-27 17:59:00,54.0,21.6,30.27,WNW,292,6.0,6.0,28,0.00,,---,99.99,VWS V14.01,2013-03-27 21:59:00,
2013-03-27 18:00:00,53.6,21.3,30.27,NNW,338,7.2,7.2,28,0.00,,---,0.08,VWS V14.01,2013-03-27 22:00:00,
2013-03-27 18:01:00,53.6,21.3,30.27,NNW,338,3.6,7.2,28,0.00,,---,99.99,VWS V14.01,2013-03-27 22:01:00,
2013-03-27 18:02:00,53.6,21.3,30.27,WNW,292,3.4,3.6,28,0.00,,---,99.99,VWS V14.01,2013-03-27 22:02:00,
2013-03-27 18:03:00,53.6,21.3,30.27,NNE,22,2.0,3.4,28,0.00,,---,99.99,VWS V14.01,2013-03-27 22:03:00,
2013-03-27 18:04:00,53.6,21.3,30.27,North,0,2.5,6.3,28,0.00,,---,99.99,VWS V14.01,2013-03-27 22:04:00,
2013-03-27 18:05:00,53.6,21.3,30.27,WSW,248,0.9,4.9,28,0.00,,---,99.99,VWS V14.01,2013-03-27 22:05:00,
2013-03-27 18:06:00,53.6,21.3,30.27,ENE,68,3.8,4.3,28,0.00,,---,99.99,VWS V14.01,2013-03-27 22:06:00,
2013-03-27 18:07:00,53.6,21.3,30.27,SSW,202,1.1,1.1,28,0.00,,---,99.99,VWS V14.01,2013-03-27 22:07:00,
2013-03-27 18:08:00,53.6,21.3,30.27,North,0,3.4,3.4,28,0.00,,---,99.99,VWS V14.01,2013-03-27 22:08:00,
2013-03-27 18:09:00,53.6,21.3,30.27,North,0,3.4,3.4,28,0.00,,---,99.99,VWS V14.01,2013-03-27 22:09:00,
2013-03-27 18:10:00,53.4,22.0,30.27,WNW,292,4.9,7.8,29,0.00,,---,99.99,VWS V14.01,2013-03-27 22:10:00,
2013-03-27 18:11:00,53.4,22.0,30.27,West,270,5.4,5.4,29,0.00,,---,99.99,VWS V14.01,2013-03-27 22:11:00,
2013-03-27 18:12:00,53.4,22.0,30.27,NNW,338,10.5,10.5,29,0.00,,---,99.99,VWS V14.01,2013-03-27 22:12:00,
2013-03-27 18:13:00,53.1,21.7,30.30,WNW,292,3.8,10.5,29,0.00,,---,99.99,VWS V14.01,2013-03-27 22:13:00,
2013-03-27 18:14:00,53.1,21.7,30.30,NNW,338,3.8,6.5,29,0.00,,---,99.99,VWS V14.01,2013-03-27 22:14:00,
2013-03-27 18:15:00,53.1,21.7,30.30,WNW,292,0.9,3.8,29,0.00,,---,99.99,VWS V14.01,2013-03-27 22:15:00,
2013-03-27 18:16:00,53.1,21.7,30.30,WNW,292,1.6,4.0,29,0.00,,---,99.99,VWS V14.01,2013-03-27 22:16:00,
2013-03-27 18:17:00,52.9,21.5,30.30,WNW,292,3.1,3.1,29,0.00,,---,99.99,VWS V14.01,2013-03-27 22:17:00,
2013-03-27 18:18:00,52.9,21.5,30.30,East,90,4.0,4.3,29,0.00,,---,99.99,VWS V14.01,2013-03-27 22:18:00,
2013-03-27 18:19:00,52.9,21.5,30.30,East,90,4.0,4.0,29,0.00,,---,99.99,VWS V14.01,2013-03-27 22:19:00,
2013-03-27 18:20:00,52.9,21.5,30.30,NNW,338,1.6,4.0,29,0.00,,---,99.99,VWS V14.01,2013-03-27 22:20:00,
2013-03-27 18:21:00,53.1,21.7,30.30,NNW,338,1.6,1.6,29,0.00,,---,99.99,VWS V14.01,2013-03-27 22:21:00,
2013-03-27 18:22:00,53.1,21.7,30.30,NW,315,4.0,4.0,29,0.00,,---,99.99,VWS V14.01,2013-03-27 22:22:00,
2013-03-27 18:23:00,52.9,21.5,30.30,NNW,338,3.6,4.7,29,0.00,,---,99.99,VWS V14.01,2013-03-27 22:23:00,
2013-03-27 18:24:00,52.9,21.5,30.30,WNW,292,3.4,3.6,29,0.00,,---,99.99,VWS V14.01,2013-03-27 22:24:00,
2013-03-27 18:25:00,52.9,21.5,30.30,SE,135,2.7,3.4,29,0.00,,---,99.99,VWS V14.01,2013-03-27 22:25:00,
2013-03-27 18:26:00,52.9,21.5,30.30,WNW,292,4.0,4.0,29,0.00,,---,99.99,VWS V14.01,2013-03-27 22:26:00,
2013-03-27 18:27:00,52.7,21.4,30.30,WNW,292,2.5,6.0,29,0.00,,---,99.99,VWS V14.01,2013-03-27 22:27:00,
2013-03-27 18:28:00,52.7,21.4,30.27,WNW,292,1.3,2.5,29,0.00,,---,99.99,VWS V14.01,2013-03-27 22:28:00,
2013-03-27 18:29:00,52.7,21.4,30.27,NW,315,1.6,1.6,29,0.00,,---,99.99,VWS V14.01,2013-03-27 22:29:00,
2013-03-27 18:30:00,52.7,21.4,30.27,SSE,158,2.0,2.0,29,0.00,,---,99.99,VWS V14.01,2013-03-27 22:30:00,
2013-03-27 18:31:00,52.7,21.4,30.27,North,0,2.5,2.5,29,0.00,,---,99.99,VWS V14.01,2013-03-27 22:31:00,
2013-03-27 18:32:00,52.7,21.4,30.27,NNW,338,5.6,5.6,29,0.00,,---,99.99,VWS V14.01,2013-03-27 22:32:00,
2013-03-27 18:33:00,52.7,21.4,30.27,NNW,338,4.7,5.6,29,0.00,,---,99.99,VWS V14.01,2013-03-27 22:33:00,
2013-03-27 18:34:00,52.3,21.8,30.27,WSW,248,3.6,4.7,30,0.00,,---,99.99,VWS V14.01,2013-03-27 22:34:00,
2013-03-27 18:35:00,52.3,21.8,30.27,WSW,248,3.6,3.6,30,0.00,,---,99.99,VWS V14.01,2013-03-27 22:35:00,
2013-03-27 18:36:00,52.3,21.8,30.27,WSW,248,3.6,3.6,30,0.00,,---,99.99,VWS V14.01,2013-03-27 22:36:00,
2013-03-27 18:37:00,52.2,21.7,30.27,North,0,0.0,3.6,30,0.00,,---,99.99,VWS V14.01,2013-03-27 22:37:00,
2013-03-27 18:38:00,52.2,21.7,30.27,WNW,292,1.1,1.1,30,0.00,,---,99.99,VWS V14.01,2013-03-27 22:38:00,
2013-03-27 18:39:00,52.2,21.7,30.27,West,270,2.7,2.7,30,0.00,,---,99.99,VWS V14.01,2013-03-27 22:39:00,
2013-03-27 18:40:00,52.0,22.3,30.27,West,270,3.6,3.6,31,0.00,,---,99.99,VWS V14.01,2013-03-27 22:40:00,
2013-03-27 18:41:00,52.0,21.5,30.27,West,270,3.6,3.6,30,0.00,,---,99.99,VWS V14.01,2013-03-27 22:41:00,
2013-03-27 18:42:00,51.8,21.4,30.27,NNW,338,1.1,3.6,30,0.00,,---,99.99,VWS V14.01,2013-03-27 22:42:00,
2013-03-27 18:43:00,51.8,21.4,30.27,NNW,338,1.1,1.1,30,0.00,,---,99.99,VWS V14.01,2013-03-27 22:43:00,
2013-03-27 18:44:00,51.8,21.4,30.27,West,270,2.7,3.1,30,0.00,,---,99.99,VWS V14.01,2013-03-27 22:44:00,
2013-03-27 18:45:00,51.8,21.4,30.27,West,270,2.7,2.7,30,0.00,,---,99.99,VWS V14.01,2013-03-27 22:45:00,
2013-03-27 18:46:00,51.6,22.7,30.27,NE,45,4.5,4.5,32,0.00,,---,99.99,VWS V14.01,2013-03-27 22:46:00,
2013-03-27 18:47:00,51.6,22.7,30.27,WNW,292,1.3,4.5,32,0.00,,---,99.99,VWS V14.01,2013-03-27 22:47:00,
2013-03-27 18:48:00,51.6,23.5,30.27,NNE,22,3.4,3.4,33,0.00,,---,99.99,VWS V14.01,2013-03-27 22:48:00,
2013-03-27 18:49:00,51.6,23.5,30.27,NNE,22,2.5,3.6,33,0.00,,---,99.99,VWS V14.01,2013-03-27 22:49:00,
2013-03-27 18:50:00,51.4,23.3,30.27,WNW,292,3.6,3.8,33,0.00,,---,99.99,VWS V14.01,2013-03-27 22:50:00,
2013-03-27 18:51:00,51.4,23.3,30.27,WNW,292,6.0,6.0,33,0.00,,---,99.99,VWS V14.01,2013-03-27 22:51:00,
2013-03-27 18:52:00,51.4,23.3,30.27,North,0,1.3,6.0,33,0.00,,---,99.99,VWS V14.01,2013-03-27 22:52:00,
2013-03-27 18:53:00,51.3,23.9,30.27,WNW,292,3.4,3.4,34,0.00,,---,99.99,VWS V14.01,2013-03-27 22:53:00,
2013-03-27 18:54:00,51.1,23.7,30.27,WNW,292,2.2,3.4,34,0.00,,---,99.99,VWS V14.01,2013-03-27 22:54:00,
2013-03-27 18:55:00,51.1,23.7,30.27,NNE,22,2.5,2.5,34,0.00,,---,99.99,VWS V14.01,2013-03-27 22:55:00,
2013-03-27 18:56:00,51.1,23.7,30.27,NNE,22,2.5,2.5,34,0.00,,---,99.99,VWS V14.01,2013-03-27 22:56:00,
2013-03-27 18:57:00,51.1,23.7,30.27,NW,315,2.9,2.9,34,0.00,,---,99.99,VWS V14.01,2013-03-27 22:57:00,
2013-03-27 18:58:00,50.9,24.2,30.27,West,270,1.6,2.9,35,0.00,,---,99.99,VWS V14.01,2013-03-27 22:58:00,
2013-03-27 18:59:00,50.9,24.2,30.27,West,270,1.6,1.6,35,0.00,,---,99.99,VWS V14.01,2013-03-27 22:59:00,
2013-03-27 19:00:00,50.9,23.5,30.27,WNW,292,1.3,1.6,34,0.00,,---,99.99,VWS V14.01,2013-03-27 23:00:00,
2013-03-27 19:01:00,50.7,24.1,30.27,WNW,292,1.3,1.3,35,0.00,,---,99.99,VWS V14.01,2013-03-27 23:01:00,
2013-03-27 19:02:00,50.7,24.1,30.27,WNW,292,2.7,2.7,35,0.00,,---,99.99,VWS V14.01,2013-03-27 23:02:00,
2013-03-27 19:03:00,50.7,23.4,30.27,WNW,292,2.7,2.7,34,0.00,,---,99.99,VWS V14.01,2013-03-27 23:03:00,
2013-03-27 19:04:00,50.7,23.4,30.27,WNW,292,2.7,2.7,34,0.00,,---,99.99,VWS V14.01,2013-03-27 23:04:00,
2013-03-27 19:05:00,50.5,23.9,30.27,WNW,292,2.7,2.7,35,0.00,,---,99.99,VWS V14.01,2013-03-27 23:05:00,
2013-03-27 19:06:00,50.5,23.2,30.27,WNW,292,2.7,2.7,34,0.00,,---,99.99,VWS V14.01,2013-03-27 23:06:00,
2013-03-27 19:07:00,50.5,23.2,30.27,NW,315,2.5,2.7,34,0.00,,---,99.99,VWS V14.01,2013-03-27 23:07:00,
2013-03-27 19:08:00,50.4,23.1,30.27,NW,315,2.5,2.5,34,0.00,,---,99.99,VWS V14.01,2013-03-27 23:08:00,
2013-03-27 19:09:00,50.4,23.1,30.27,NW,315,2.5,2.5,34,0.00,,---,99.99,VWS V14.01,2013-03-27 23:09:00,
2013-03-27 19:10:00,50.4,23.1,30.27,WNW,292,0.0,2.5,34,0.00,,---,99.99,VWS V14.01,2013-03-27 23:10:00,
2013-03-27 19:11:00,50.4,23.8,30.27,WNW,292,0.0,0.0,35,0.00,,---,99.99,VWS V14.01,2013-03-27 23:11:00,
2013-03-27 19:12:00,50.2,23.6,30.27,WNW,292,0.0,0.0,35,0.00,,---,99.99,VWS V14.01,2013-03-27 23:12:00,
2013-03-27 19:13:00,50.2,23.6,30.27,WNW,292,0.0,0.0,35,0.00,,---,99.99,VWS V14.01,2013-03-27 23:13:00,
2013-03-27 19:14:00,50.2,23.6,30.27,NNE,22,0.0,0.0,35,0.00,,---,99.99,VWS V14.01,2013-03-27 23:14:00,
2013-03-27 19:15:00,50.2,23.6,30.27,NNE,22,0.0,0.0,35,0.00,,---,99.99,VWS V14.01,2013-03-27 23:15:00,
2013-03-27 19:16:00,50.0,24.1,30.27,NNE,22,0.0,0.0,36,0.00,,---,99.99,VWS V14.01,2013-03-27 23:16:00,
2013-03-27 19:17:00,50.0,24.1,30.27,NNE,22,0.0,0.0,36,0.00,,---,99.99,VWS V14.01,2013-03-27 23:17:00,
2013-03-27 19:18:00,50.0,24.1,30.27,NNE,22,0.0,0.0,36,0.00,,---,99.99,VWS V14.01,2013-03-27 23:18:00,
2013-03-27 19:19:00,50.0,24.1,30.27,ENE,68,1.6,2.5,36,0.00,,---,99.99,VWS V14.01,2013-03-27 23:19:00,
2013-03-27 19:20:00,49.8,24.6,30.27,ENE,68,1.6,2.5,37,0.00,,---,99.99,VWS V14.01,2013-03-27 23:20:00,
2013-03-27 19:21:00,49.8,24.6,30.27,WNW,292,2.5,2.5,37,0.00,,---,99.99,VWS V14.01,2013-03-27 23:21:00,
2013-03-27 19:22:00,49.8,24.6,30.27,WNW,292,2.5,2.5,37,0.00,,---,99.99,VWS V14.01,2013-03-27 23:22:00,
2013-03-27 19:23:00,49.8,24.6,30.27,WNW,292,2.5,2.5,37,0.00,,---,99.99,VWS V14.01,2013-03-27 23:23:00,
2013-03-27 19:24:00,49.8,24.6,30.27,WNW,292,2.5,2.5,37,0.00,,---,99.99,VWS V14.01,2013-03-27 23:24:00,
2013-03-27 19:25:00,49.6,24.5,30.27,WNW,292,2.5,2.5,37,0.00,,---,99.99,VWS V14.01,2013-03-27 23:25:00,
2013-03-27 19:26:00,49.6,24.5,30.27,WNW,292,2.5,2.5,37,0.00,,---,99.99,VWS V14.01,2013-03-27 23:26:00,
2013-03-27 19:27:00,49.6,24.5,30.27,NNW,338,0.0,2.5,37,0.00,,---,99.99,VWS V14.01,2013-03-27 23:27:00,
2013-03-27 19:28:00,49.6,24.5,30.27,NNW,338,0.0,0.0,37,0.00,,---,99.99,VWS V14.01,2013-03-27 23:28:00,
2013-03-27 19:29:00,49.6,24.5,30.27,NNW,338,0.0,0.0,37,0.00,,---,99.99,VWS V14.01,2013-03-27 23:29:00,
2013-03-27 19:30:00,49.6,24.5,30.27,NNW,338,0.0,0.0,37,0.00,,---,99.99,VWS V14.01,2013-03-27 23:30:00,
2013-03-27 19:31:00,49.5,24.3,30.27,NNW,338,0.0,0.0,37,0.00,,---,99.99,VWS V14.01,2013-03-27 23:31:00,
2013-03-27 19:32:00,49.5,24.3,30.27,NNW,338,0.0,0.0,37,0.00,,---,99.99,VWS V14.01,2013-03-27 23:32:00,
2013-03-27 19:33:00,49.5,24.3,30.27,NNW,338,0.0,0.0,37,0.00,,---,99.99,VWS V14.01,2013-03-27 23:33:00,
2013-03-27 19:34:00,49.3,24.1,30.27,NNW,338,1.6,1.6,37,0.00,,---,99.99,VWS V14.01,2013-03-27 23:34:00,
2013-03-27 19:35:00,49.3,24.1,30.27,NNW,338,1.6,1.6,37,0.00,,---,99.99,VWS V14.01,2013-03-27 23:35:00,
2013-03-27 19:36:00,49.3,24.1,30.27,NNW,338,1.6,1.6,37,0.00,,---,99.99,VWS V14.01,2013-03-27 23:36:00,
2013-03-27 19:37:00,49.3,24.1,30.27,NNW,338,1.6,1.6,37,0.00,,---,99.99,VWS V14.01,2013-03-27 23:37:00,
2013-03-27 19:38:00,49.1,24.0,30.27,NNW,338,1.6,1.6,37,0.00,,---,99.99,VWS V14.01,2013-03-27 23:38:00,
2013-03-27 19:39:00,49.1,24.0,30.27,NNW,338,1.6,1.6,37,0.00,,---,99.99,VWS V14.01,2013-03-27 23:39:00,
2013-03-27 19:40:00,49.1,24.0,30.27,NNW,338,1.6,1.6,37,0.00,,---,99.99,VWS V14.01,2013-03-27 23:40:00,
2013-03-27 19:41:00,49.1,24.0,30.27,NNW,338,1.6,1.6,37,0.00,,---,99.99,VWS V14.01,2013-03-27 23:41:00,
2013-03-27 19:42:00,49.1,24.0,30.27,NNW,338,1.6,1.6,37,0.00,,---,99.99,VWS V14.01,2013-03-27 23:42:00,
2013-03-27 19:43:00,48.9,23.8,30.27,NNW,338,1.6,1.6,37,0.00,,---,99.99,VWS V14.01,2013-03-27 23:43:00,
2013-03-27 19:44:00,48.9,23.8,30.27,NNW,338,1.6,1.6,37,0.00,,---,99.99,VWS V14.01,2013-03-27 23:44:00,
2013-03-27 19:45:00,48.9,23.8,30.27,NNW,338,1.6,1.6,37,0.00,,---,99.99,VWS V14.01,2013-03-27 23:45:00,
2013-03-27 19:46:00,48.9,23.8,30.27,NNE,22,0.9,1.6,37,0.00,,---,99.99,VWS V14.01,2013-03-27 23:46:00,
2013-03-27 19:47:00,48.9,23.8,30.27,NNE,22,0.0,0.9,37,0.00,,---,99.99,VWS V14.01,2013-03-27 23:47:00,
2013-03-27 19:48:00,48.7,23.6,30.27,NNE,22,0.0,0.0,37,0.00,,---,99.99,VWS V14.01,2013-03-27 23:48:00,
2013-03-27 19:49:00,48.7,23.6,30.27,NNE,22,0.0,0.0,37,0.00,,---,99.99,VWS V14.01,2013-03-27 23:49:00,
2013-03-27 19:50:00,48.7,23.6,30.27,NNE,22,0.0,0.0,37,0.00,,---,99.99,VWS V14.01,2013-03-27 23:50:00,
2013-03-27 19:51:00,48.7,23.6,30.27,NNW,338,1.6,1.6,37,0.00,,---,99.99,VWS V14.01,2013-03-27 23:51:00,
2013-03-27 19:52:00,48.6,23.5,30.27,NNW,338,1.6,1.6,37,0.00,,---,99.99,VWS V14.01,2013-03-27 23:52:00,
2013-03-27 19:53:00,48.6,23.5,30.27,NNW,338,1.6,1.6,37,0.00,,---,99.99,VWS V14.01,2013-03-27 23:53:00,
2013-03-27 19:54:00,48.6,23.5,30.27,NNW,338,1.6,1.6,37,0.00,,---,99.99,VWS V14.01,2013-03-27 23:54:00,
2013-03-27 19:55:00,48.4,23.3,30.27,NNW,338,1.6,1.6,37,0.00,,---,99.99,VWS V14.01,2013-03-27 23:55:00,
2013-03-27 19:56:00,48.4,23.3,30.27,NNW,338,1.6,1.6,37,0.00,,---,99.99,VWS V14.01,2013-03-27 23:56:00,
2013-03-27 19:57:00,48.4,23.3,30.27,NNW,338,1.6,1.6,37,0.00,,---,99.99,VWS V14.01,2013-03-27 23:57:00,
2013-03-27 19:58:00,48.4,23.3,30.27,NNW,338,1.6,1.6,37,0.00,,---,99.99,VWS V14.01,2013-03-27 23:58:00,
2013-03-27 19:59:00,48.2,23.2,30.27,NNW,338,1.6,1.6,37,0.00,,---,99.99,VWS V14.01,2013-03-27 23:59:00,
2013-03-27 20:00:00,48.2,23.2,30.27,NNW,338,1.6,1.6,37,0.00,,---,99.99,VWS V14.01,2013-03-28 00:00:00,
2013-03-27 20:01:00,48.2,23.2,30.27,NNW,338,1.6,1.6,37,0.00,,---,99.99,VWS V14.01,2013-03-28 00:01:00,
2013-03-27 20:02:00,48.0,23.6,30.27,NNW,338,1.6,1.6,38,0.00,,---,99.99,VWS V14.01,2013-03-28 00:02:00,
2013-03-27 20:03:00,48.0,23.6,30.27,NNW,338,1.6,1.6,38,0.00,,---,99.99,VWS V14.01,2013-03-28 00:03:00,
2013-03-27 20:04:00,48.0,23.6,30.27,NNW,338,1.6,1.6,38,0.00,,---,99.99,VWS V14.01,2013-03-28 00:04:00,
2013-03-27 20:05:00,47.8,23.5,30.27,NNW,338,1.6,1.6,38,0.00,,---,99.99,VWS V14.01,2013-03-28 00:05:00,
2013-03-27 20:06:00,47.8,23.5,30.27,NNW,338,1.6,1.6,38,0.00,,---,99.99,VWS V14.01,2013-03-28 00:06:00,
2013-03-27 20:07:00,47.8,23.5,30.27,NNW,338,1.6,1.6,38,0.00,,---,99.99,VWS V14.01,2013-03-28 00:07:00,
2013-03-27 20:08:00,47.8,23.5,30.27,NNW,338,1.6,1.6,38,0.00,,---,99.99,VWS V14.01,2013-03-28 00:08:00,
2013-03-27 20:09:00,47.7,23.3,30.27,NNW,338,1.6,1.6,38,0.00,,---,99.99,VWS V14.01,2013-03-28 00:09:00,
2013-03-27 20:10:00,47.7,23.3,30.27,NNW,338,1.6,1.6,38,0.00,,---,99.99,VWS V14.01,2013-03-28 00:10:00,
2013-03-27 20:11:00,47.7,23.3,30.27,NNW,338,1.6,1.6,38,0.00,,---,99.99,VWS V14.01,2013-03-28 00:11:00,
2013-03-27 20:12:00,47.7,23.3,30.27,NW,315,2.0,2.0,38,99.99,,---,99.99,VWS V14.01,2013-03-28 00:12:00,
2013-03-27 20:13:00,47.7,23.9,30.27,NW,315,2.0,2.0,39,99.99,,---,99.99,VWS V14.01,2013-03-28 00:13:00,
2013-03-27 20:14:00,47.7,23.3,30.27,WNW,292,0.0,2.0,38,99.99,,---,99.99,VWS V14.01,2013-03-28 00:14:00,
2013-03-27 20:15:00,47.7,23.3,30.27,WNW,292,0.0,0.0,38,99.99,,---,99.99,VWS V14.01,2013-03-28 00:15:00,
2013-03-27 20:16:00,47.7,23.9,30.27,WNW,292,0.0,0.0,39,99.99,,---,99.99,VWS V14.01,2013-03-28 00:16:00,
2013-03-27 20:17:00,47.7,23.9,30.27,NNW,338,0.0,0.0,39,99.99,,---,99.99,VWS V14.01,2013-03-28 00:17:00,
2013-03-27 20:18:00,47.7,23.9,30.27,NNW,338,0.0,0.0,39,99.99,,---,99.99,VWS V14.01,2013-03-28 00:18:00,
2013-03-27 20:19:00,47.5,23.8,30.27,NNW,338,0.0,0.0,39,99.99,,---,99.99,VWS V14.01,2013-03-28 00:19:00,
2013-03-27 20:20:00,47.5,23.8,30.27,NNW,338,0.0,0.0,39,99.99,,---,99.99,VWS V14.01,2013-03-28 00:20:00,
2013-03-27 20:21:00,47.5,23.8,30.27,NNW,338,0.0,0.0,39,99.99,,---,99.99,VWS V14.01,2013-03-28 00:21:00,
2013-03-27 20:22:00,47.5,23.8,30.27,NNW,338,0.0,0.0,39,99.99,,---,99.99,VWS V14.01,2013-03-28 00:22:00,
2013-03-27 20:23:00,47.5,23.8,30.27,NNW,338,0.0,0.0,39,99.99,,---,99.99,VWS V14.01,2013-03-28 00:23:00,
2013-03-27 20:24:00,47.3,23.6,30.27,NNW,338,0.0,0.0,39,99.99,,---,99.99,VWS V14.01,2013-03-28 00:24:00,
2013-03-27 20:25:00,47.3,23.6,30.27,NNW,338,0.0,0.0,39,99.99,,---,99.99,VWS V14.01,2013-03-28 00:25:00,
2013-03-27 20:26:00,47.3,23.6,30.27,NNW,338,0.0,0.0,39,99.99,,---,99.99,VWS V14.01,2013-03-28 00:26:00,
2013-03-27 20:27:00,47.1,23.5,30.27,NNW,338,0.0,0.0,39,99.99,,---,99.99,VWS V14.01,2013-03-28 00:27:00,
2013-03-27 20:28:00,47.1,23.5,30.27,NNW,338,0.0,0.0,39,99.99,,---,99.99,VWS V14.01,2013-03-28 00:28:00,
2013-03-27 20:29:00,47.1,23.5,30.27,NNW,338,0.0,0.0,39,99.99,,---,99.99,VWS V14.01,2013-03-28 00:29:00,
2013-03-27 20:30:00,47.1,23.5,30.27,NNW,338,0.0,0.0,39,99.99,,---,99.99,VWS V14.01,2013-03-28 00:30:00,
2013-03-27 20:31:00,47.1,23.5,30.27,NNW,338,0.0,0.0,39,99.99,,---,99.99,VWS V14.01,2013-03-28 00:31:00,
2013-03-27 20:32:00,46.9,23.3,30.27,NNW,338,0.0,0.0,39,99.99,,---,99.99,VWS V14.01,2013-03-28 00:32:00,
2013-03-27 20:33:00,46.9,23.3,30.27,NNW,338,0.0,0.0,39,99.99,,---,99.99,VWS V14.01,2013-03-28 00:33:00,
2013-03-27 20:34:00,46.9,23.3,30.27,NNW,338,0.0,0.0,39,99.99,,---,99.99,VWS V14.01,2013-03-28 00:34:00,
2013-03-27 20:35:00,46.9,23.3,30.27,NNW,338,0.0,0.0,39,99.99,,---,99.99,VWS V14.01,2013-03-28 00:35:00,
2013-03-27 20:36:00,46.9,23.3,30.27,NNW,338,0.0,0.0,39,99.99,,---,99.99,VWS V14.01,2013-03-28 00:36:00,
2013-03-27 20:37:00,46.8,23.1,30.27,NNW,338,0.0,0.0,39,99.99,,---,99.99,VWS V14.01,2013-03-28 00:37:00,
2013-03-27 20:38:00,46.8,23.1,30.27,NNW,338,0.0,0.0,39,99.99,,---,99.99,VWS V14.01,2013-03-28 00:38:00,
2013-03-27 20:39:00,46.8,23.1,30.27,NNW,338,0.0,0.0,39,99.99,,---,99.99,VWS V14.01,2013-03-28 00:39:00,
2013-03-27 20:40:00,46.6,23.0,30.27,NNW,338,0.0,0.0,39,99.99,,---,99.99,VWS V14.01,2013-03-28 00:40:00,
2013-03-27 20:41:00,46.6,23.0,30.27,NNW,338,0.0,0.0,39,99.99,,---,99.99,VWS V14.01,2013-03-28 00:41:00,
2013-03-27 20:42:00,46.6,23.0,30.27,NNW,338,0.0,0.0,39,99.99,,---,99.99,VWS V14.01,2013-03-28 00:42:00,
2013-03-27 20:43:00,46.4,22.8,30.27,NNW,338,0.0,0.0,39,99.99,,---,99.99,VWS V14.01,2013-03-28 00:43:00,
2013-03-27 20:44:00,46.4,23.4,30.27,NNW,338,0.0,0.0,40,99.99,,---,99.99,VWS V14.01,2013-03-28 00:44:00,
2013-03-27 20:45:00,46.4,23.4,30.27,NNW,338,0.0,0.0,40,99.99,,---,99.99,VWS V14.01,2013-03-28 00:45:00,
2013-03-27 20:46:00,46.4,23.4,30.27,NNW,338,0.0,0.0,40,99.99,,---,99.99,VWS V14.01,2013-03-28 00:46:00,
2013-03-27 20:47:00,46.4,23.4,30.27,NNW,338,0.0,0.0,40,99.99,,---,99.99,VWS V14.01,2013-03-28 00:47:00,
2013-03-27 20:48:00,46.2,23.2,30.27,NNW,338,0.0,0.0,40,99.99,,---,99.99,VWS V14.01,2013-03-28 00:48:00,
2013-03-27 20:49:00,46.2,23.2,30.27,NNW,338,0.0,0.0,40,99.99,,---,99.99,VWS V14.01,2013-03-28 00:49:00,
2013-03-27 20:50:00,46.2,23.2,30.27,NNW,338,0.0,0.0,40,99.99,,---,99.99,VWS V14.01,2013-03-28 00:50:00,
2013-03-27 20:51:00,46.2,23.2,30.27,NNW,338,0.0,0.0,40,99.99,,---,99.99,VWS V14.01,2013-03-28 00:51:00,
2013-03-27 20:52:00,46.2,23.2,30.27,NNW,338,0.0,0.0,40,99.99,,---,99.99,VWS V14.01,2013-03-28 00:52:00,
2013-03-27 20:53:00,47.7,23.3,30.27,NNW,338,1.6,1.6,38,0.00,,---,99.99,VWS V14.01,2013-03-28 00:53:00,
2013-03-27 20:54:00,46.0,23.7,30.27,NNW,338,0.0,0.0,41,99.99,,---,99.99,VWS V14.01,2013-03-28 00:54:00,
2013-03-27 20:55:00,46.0,23.7,30.27,NNW,338,0.0,0.0,41,99.99,,---,99.99,VWS V14.01,2013-03-28 00:55:00,
2013-03-27 20:56:00,46.0,23.7,30.27,NNW,338,0.0,0.0,41,99.99,,---,99.99,VWS V14.01,2013-03-28 00:56:00,
2013-03-27 20:57:00,46.0,23.7,30.27,NNW,338,0.0,0.0,41,99.99,,---,99.99,VWS V14.01,2013-03-28 00:57:00,
2013-03-27 20:58:00,46.0,23.7,30.27,NNW,338,0.0,0.0,41,99.99,,---,99.99,VWS V14.01,2013-03-28 00:58:00,
2013-03-27 20:59:00,46.0,23.7,30.27,NNW,338,0.0,0.0,41,99.99,,---,99.99,VWS V14.01,2013-03-28 00:59:00,
2013-03-27 21:00:00,45.9,24.1,30.27,NNW,338,0.0,0.0,42,99.99,,---,0.08,VWS V14.01,2013-03-28 01:00:00,
2013-03-27 21:01:00,45.9,24.1,30.27,NNW,338,0.0,0.0,42,99.99,,---,99.99,VWS V14.01,2013-03-28 01:01:00,
2013-03-27 21:02:00,45.9,24.1,30.27,NNW,338,0.0,0.0,42,99.99,,---,99.99,VWS V14.01,2013-03-28 01:02:00,
2013-03-27 21:03:00,45.9,24.1,30.27,NNW,338,0.0,0.0,42,99.99,,---,99.99,VWS V14.01,2013-03-28 01:03:00,
2013-03-27 21:04:00,45.7,23.4,30.27,NNW,338,0.0,0.0,41,99.99,,---,99.99,VWS V14.01,2013-03-28 01:04:00,
2013-03-27 21:05:00,45.7,23.9,30.27,NNW,338,0.0,0.0,42,99.99,,---,99.99,VWS V14.01,2013-03-28 01:05:00,
2013-03-27 21:06:00,45.7,23.9,30.27,NNW,338,0.0,0.0,42,99.99,,---,99.99,VWS V14.01,2013-03-28 01:06:00,
2013-03-27 21:07:00,45.5,23.8,30.27,NNW,338,0.0,0.0,42,99.99,,---,99.99,VWS V14.01,2013-03-28 01:07:00,
2013-03-27 21:08:00,45.5,23.8,30.27,NNW,338,0.0,0.0,42,99.99,,---,99.99,VWS V14.01,2013-03-28 01:08:00,
2013-03-27 21:09:00,45.5,23.8,30.27,NNW,338,0.0,0.0,42,99.99,,---,99.99,VWS V14.01,2013-03-28 01:09:00,
2013-03-27 21:10:00,45.5,23.8,30.27,NNW,338,0.0,0.0,42,99.99,,---,99.99,VWS V14.01,2013-03-28 01:10:00,
2013-03-27 21:11:00,45.5,23.8,30.27,NNW,338,0.0,0.0,42,99.99,,---,99.99,VWS V14.01,2013-03-28 01:11:00,
2013-03-27 21:12:00,45.5,23.8,30.27,NNW,338,0.0,0.0,42,99.99,,---,99.99,VWS V14.01,2013-03-28 01:12:00,
2013-03-27 21:13:00,45.5,23.8,30.27,NNW,338,0.0,0.0,42,0.00,,---,99.99,VWS V14.01,2013-03-28 01:13:00,
2013-03-27 21:14:00,45.5,23.8,30.27,NNW,338,0.0,0.0,42,0.00,,---,99.99,VWS V14.01,2013-03-28 01:14:00,
2013-03-27 21:15:00,45.1,24.0,30.27,NNW,338,0.0,0.0,43,0.00,,---,99.99,VWS V14.01,2013-03-28 01:15:00,
2013-03-27 21:16:00,45.1,24.0,30.27,NNW,338,0.0,0.0,43,0.00,,---,99.99,VWS V14.01,2013-03-28 01:16:00,
2013-03-27 21:17:00,45.0,23.8,30.27,NNW,338,0.0,0.0,43,0.00,,---,99.99,VWS V14.01,2013-03-28 01:17:00,
2013-03-27 21:18:00,45.0,23.8,30.27,NNW,338,0.0,0.0,43,0.00,,---,99.99,VWS V14.01,2013-03-28 01:18:00,
2013-03-27 21:19:00,45.0,23.8,30.27,NNW,338,0.0,0.0,43,0.00,,---,99.99,VWS V14.01,2013-03-28 01:19:00,
2013-03-27 21:20:00,45.0,23.8,30.27,NNW,338,0.0,0.0,43,0.00,,---,99.99,VWS V14.01,2013-03-28 01:20:00,
2013-03-27 21:21:00,45.1,24.0,30.27,NNW,338,0.0,0.0,43,0.00,,---,99.99,VWS V14.01,2013-03-28 01:21:00,
2013-03-27 21:22:00,45.1,24.0,30.27,NNW,338,0.0,0.0,43,0.00,,---,99.99,VWS V14.01,2013-03-28 01:22:00,
2013-03-27 21:23:00,45.1,24.0,30.27,NNW,338,0.0,0.0,43,0.00,,---,99.99,VWS V14.01,2013-03-28 01:23:00,
2013-03-27 21:24:00,45.1,24.0,30.27,NNW,338,0.0,0.0,43,0.00,,---,99.99,VWS V14.01,2013-03-28 01:24:00,
2013-03-27 21:25:00,45.1,24.0,30.27,NNW,338,0.0,0.0,43,0.00,,---,99.99,VWS V14.01,2013-03-28 01:25:00,
2013-03-27 21:26:00,45.1,24.0,30.27,NNW,338,0.0,0.0,43,0.00,,---,99.99,VWS V14.01,2013-03-28 01:26:00,
2013-03-27 21:27:00,45.1,24.0,30.27,NNW,338,0.0,0.0,43,0.00,,---,99.99,VWS V14.01,2013-03-28 01:27:00,
2013-03-27 21:28:00,45.1,24.0,30.27,NNW,338,0.0,0.0,43,0.00,,---,99.99,VWS V14.01,2013-03-28 01:28:00,
2013-03-27 21:29:00,45.1,24.0,30.27,NNW,338,0.0,0.0,43,0.00,,---,99.99,VWS V14.01,2013-03-28 01:29:00,
2013-03-27 21:30:00,45.1,24.0,30.27,NNW,338,0.0,0.0,43,0.00,,---,99.99,VWS V14.01,2013-03-28 01:30:00,
2013-03-27 21:31:00,45.1,24.0,30.27,NNW,338,0.0,0.0,43,0.00,,---,99.99,VWS V14.01,2013-03-28 01:31:00,
2013-03-27 21:32:00,45.1,24.0,30.27,NNW,338,0.0,0.0,43,0.00,,---,99.99,VWS V14.01,2013-03-28 01:32:00,
2013-03-27 21:33:00,46.2,23.2,30.27,NNW,338,0.0,0.0,40,99.99,,---,99.99,VWS V14.01,2013-03-28 01:33:00,
2013-03-27 21:34:00,45.1,24.0,30.27,NNW,338,0.0,0.0,43,0.00,,---,99.99,VWS V14.01,2013-03-28 01:34:00,
2013-03-27 21:35:00,45.1,24.0,30.27,NNW,338,0.0,0.0,43,0.00,,---,99.99,VWS V14.01,2013-03-28 01:35:00,
2013-03-27 21:36:00,45.1,24.0,30.27,NNW,338,0.0,0.0,43,0.00,,---,99.99,VWS V14.01,2013-03-28 01:36:00,
2013-03-27 21:37:00,45.1,24.0,30.27,NNW,338,0.0,0.0,43,0.00,,---,99.99,VWS V14.01,2013-03-28 01:37:00,
2013-03-27 21:38:00,45.1,24.0,30.27,NNW,338,0.0,0.0,43,0.00,,---,99.99,VWS V14.01,2013-03-28 01:38:00,
2013-03-27 21:39:00,45.1,24.0,30.27,NNW,338,0.0,0.0,43,0.00,,---,99.99,VWS V14.01,2013-03-28 01:39:00,
2013-03-27 21:40:00,45.1,24.0,30.27,NNW,338,0.0,0.0,43,0.00,,---,99.99,VWS V14.01,2013-03-28 01:40:00,
2013-03-27 21:41:00,45.1,24.0,30.27,NNW,338,0.0,0.0,43,0.00,,---,99.99,VWS V14.01,2013-03-28 01:41:00,
2013-03-27 21:42:00,45.1,24.0,30.27,NNW,338,0.0,0.0,43,0.00,,---,99.99,VWS V14.01,2013-03-28 01:42:00,
2013-03-27 21:43:00,45.1,24.0,30.30,NNW,338,0.0,0.0,43,0.00,,---,99.99,VWS V14.01,2013-03-28 01:43:00,
2013-03-27 21:44:00,45.1,24.0,30.30,NNW,338,0.0,0.0,43,0.00,,---,99.99,VWS V14.01,2013-03-28 01:44:00,
2013-03-27 21:45:00,45.1,24.0,30.30,NNW,338,0.0,0.0,43,0.00,,---,99.99,VWS V14.01,2013-03-28 01:45:00,
2013-03-27 21:46:00,45.1,24.0,30.30,NNW,338,0.0,0.0,43,0.00,,---,99.99,VWS V14.01,2013-03-28 01:46:00,
2013-03-27 21:47:00,45.1,24.0,30.30,NNW,338,0.0,0.0,43,0.00,,---,99.99,VWS V14.01,2013-03-28 01:47:00,
2013-03-27 21:48:00,45.1,24.0,30.30,NNW,338,0.0,0.0,43,0.00,,---,99.99,VWS V14.01,2013-03-28 01:48:00,
2013-03-27 21:49:00,45.1,24.0,30.30,NNW,338,0.0,0.0,43,0.00,,---,99.99,VWS V14.01,2013-03-28 01:49:00,
2013-03-27 21:50:00,45.1,24.0,30.30,NNW,338,0.0,0.0,43,0.00,,---,99.99,VWS V14.01,2013-03-28 01:50:00,
2013-03-27 21:51:00,45.1,24.0,30.30,NNW,338,0.0,0.0,43,0.00,,---,99.99,VWS V14.01,2013-03-28 01:51:00,
2013-03-27 21:52:00,45.1,24.0,30.30,NNW,338,0.0,0.0,43,0.00,,---,99.99,VWS V14.01,2013-03-28 01:52:00,
2013-03-27 21:53:00,45.1,24.0,30.30,NNW,338,0.0,0.0,43,0.00,,---,99.99,VWS V14.01,2013-03-28 01:53:00,
2013-03-27 21:54:00,45.1,24.0,30.30,NNW,338,0.0,0.0,43,0.00,,---,99.99,VWS V14.01,2013-03-28 01:54:00,
2013-03-27 21:55:00,45.1,24.0,30.30,NNW,338,0.0,0.0,43,0.00,,---,99.99,VWS V14.01,2013-03-28 01:55:00,
2013-03-27 21:56:00,45.1,24.0,30.30,NNW,338,0.0,0.0,43,0.00,,---,99.99,VWS V14.01,2013-03-28 01:56:00,
2013-03-27 21:57:00,45.1,24.0,30.30,NNW,338,0.0,0.0,43,0.00,,---,99.99,VWS V14.01,2013-03-28 01:57:00,
2013-03-27 21:58:00,45.1,24.0,30.27,NNW,338,0.0,0.0,43,0.00,,---,99.99,VWS V14.01,2013-03-28 01:58:00,
2013-03-27 21:59:00,45.1,24.0,30.27,NNW,338,0.0,0.0,43,0.00,,---,99.99,VWS V14.01,2013-03-28 01:59:00,
2013-03-27 22:00:00,45.1,24.0,30.27,NNW,338,0.0,0.0,43,0.00,,---,99.99,VWS V14.01,2013-03-28 02:00:00,
2013-03-27 22:01:00,45.1,24.0,30.27,NNW,338,0.0,0.0,43,0.00,,---,99.99,VWS V14.01,2013-03-28 02:01:00,
2013-03-27 22:02:00,45.1,24.0,30.27,NNW,338,0.0,0.0,43,0.00,,---,99.99,VWS V14.01,2013-03-28 02:02:00,
2013-03-27 22:03:00,45.1,24.0,30.27,NNW,338,0.0,0.0,43,0.00,,---,99.99,VWS V14.01,2013-03-28 02:03:00,
2013-03-27 22:04:00,45.1,24.0,30.27,NNW,338,0.0,0.0,43,0.00,,---,99.99,VWS V14.01,2013-03-28 02:04:00,
2013-03-27 22:05:00,45.1,24.0,30.27,NNW,338,0.0,0.0,43,0.00,,---,99.99,VWS V14.01,2013-03-28 02:05:00,
2013-03-27 22:06:00,45.1,24.0,30.27,NNW,338,0.0,0.0,43,0.00,,---,99.99,VWS V14.01,2013-03-28 02:06:00,
2013-03-27 22:07:00,45.1,24.0,30.27,NNW,338,0.0,0.0,43,0.00,,---,99.99,VWS V14.01,2013-03-28 02:07:00,
2013-03-27 22:08:00,45.1,24.0,30.27,NNW,338,0.0,0.0,43,0.00,,---,99.99,VWS V14.01,2013-03-28 02:08:00,
2013-03-27 22:09:00,45.1,24.0,30.27,NNW,338,0.0,0.0,43,0.00,,---,99.99,VWS V14.01,2013-03-28 02:09:00,
2013-03-27 22:10:00,45.1,24.0,30.27,NNW,338,0.0,0.0,43,0.00,,---,99.99,VWS V14.01,2013-03-28 02:10:00,
2013-03-27 22:11:00,45.1,24.0,30.27,NNW,338,0.0,0.0,43,0.00,,---,99.99,VWS V14.01,2013-03-28 02:11:00,
2013-03-27 22:12:00,45.1,24.0,30.27,NNW,338,0.0,0.0,43,0.00,,---,99.99,VWS V14.01,2013-03-28 02:12:00,
2013-03-27 22:13:00,45.1,24.0,30.27,NNW,338,0.0,0.0,43,0.00,,---,99.99,VWS V14.01,2013-03-28 02:13:00,
2013-03-27 22:14:00,45.1,24.0,30.27,NNW,338,0.0,0.0,43,0.00,,---,99.99,VWS V14.01,2013-03-28 02:14:00,
2013-03-27 22:15:00,45.1,24.0,30.27,NNW,338,0.0,0.0,43,0.00,,---,99.99,VWS V14.01,2013-03-28 02:15:00,
2013-03-27 22:16:00,45.1,24.0,30.27,NNW,338,0.0,0.0,43,0.00,,---,99.99,VWS V14.01,2013-03-28 02:16:00,
2013-03-27 22:17:00,45.1,24.0,30.27,NNW,338,0.0,0.0,43,0.00,,---,99.99,VWS V14.01,2013-03-28 02:17:00,
2013-03-27 22:18:00,45.1,24.0,30.27,NNW,338,0.0,0.0,43,0.00,,---,99.99,VWS V14.01,2013-03-28 02:18:00,
2013-03-27 22:19:00,45.1,24.0,30.27,NNW,338,0.0,0.0,43,0.00,,---,99.99,VWS V14.01,2013-03-28 02:19:00,
2013-03-27 22:20:00,45.1,24.0,30.27,NNW,338,0.0,0.0,43,0.00,,---,99.99,VWS V14.01,2013-03-28 02:20:00,
2013-03-27 22:21:00,45.1,24.0,30.27,NNW,338,0.0,0.0,43,0.00,,---,99.99,VWS V14.01,2013-03-28 02:21:00,
2013-03-27 22:22:00,45.1,24.0,30.27,NNW,338,0.0,0.0,43,0.00,,---,99.99,VWS V14.01,2013-03-28 02:22:00,
2013-03-27 22:23:00,45.1,24.0,30.27,NNW,338,0.0,0.0,43,0.00,,---,99.99,VWS V14.01,2013-03-28 02:23:00,
2013-03-27 22:24:00,45.1,24.0,30.27,NNW,338,0.0,0.0,43,0.00,,---,99.99,VWS V14.01,2013-03-28 02:24:00,
2013-03-27 22:25:00,45.1,24.0,30.27,NNW,338,0.0,0.0,43,0.00,,---,99.99,VWS V14.01,2013-03-28 02:25:00,
2013-03-27 22:26:00,45.1,24.0,30.27,NNW,338,0.0,0.0,43,0.00,,---,99.99,VWS V14.01,2013-03-28 02:26:00,
2013-03-27 22:27:00,45.1,24.0,30.27,NNW,338,0.0,0.0,43,0.00,,---,99.99,VWS V14.01,2013-03-28 02:27:00,
2013-03-27 22:28:00,45.1,24.0,30.27,NNW,338,0.0,0.0,43,0.00,,---,99.99,VWS V14.01,2013-03-28 02:28:00,
2013-03-27 22:29:00,45.1,24.0,30.27,NNW,338,0.0,0.0,43,0.00,,---,99.99,VWS V14.01,2013-03-28 02:29:00,
2013-03-27 22:30:00,45.1,24.0,30.27,NNW,338,0.0,0.0,43,0.00,,---,99.99,VWS V14.01,2013-03-28 02:30:00,
2013-03-27 22:31:00,45.1,24.0,30.27,NNW,338,0.0,0.0,43,0.00,,---,99.99,VWS V14.01,2013-03-28 02:31:00,
2013-03-27 22:32:00,45.1,24.0,30.27,NNW,338,0.0,0.0,43,0.00,,---,99.99,VWS V14.01,2013-03-28 02:32:00,
2013-03-27 22:33:00,45.1,24.0,30.27,NNW,338,0.0,0.0,43,0.00,,---,99.99,VWS V14.01,2013-03-28 02:33:00,
2013-03-27 22:34:00,45.1,24.0,30.27,NNW,338,0.0,0.0,43,0.00,,---,99.99,VWS V14.01,2013-03-28 02:34:00,
2013-03-27 22:35:00,45.1,24.0,30.27,NNW,338,0.0,0.0,43,0.00,,---,99.99,VWS V14.01,2013-03-28 02:35:00,
2013-03-27 22:36:00,45.1,24.0,30.27,NNW,338,0.0,0.0,43,0.00,,---,99.99,VWS V14.01,2013-03-28 02:36:00,
2013-03-27 22:37:00,45.1,24.0,30.27,NNW,338,0.0,0.0,43,0.00,,---,99.99,VWS V14.01,2013-03-28 02:37:00,
2013-03-27 22:38:00,45.1,24.0,30.27,NNW,338,0.0,0.0,43,0.00,,---,99.99,VWS V14.01,2013-03-28 02:38:00,
2013-03-27 22:39:00,45.1,24.0,30.27,NNW,338,0.0,0.0,43,0.00,,---,99.99,VWS V14.01,2013-03-28 02:39:00,
2013-03-27 22:40:00,45.1,24.0,30.27,NNW,338,0.0,0.0,43,0.00,,---,99.99,VWS V14.01,2013-03-28 02:40:00,
2013-03-27 22:41:00,45.1,24.0,30.27,NNW,338,0.0,0.0,43,0.00,,---,99.99,VWS V14.01,2013-03-28 02:41:00,
2013-03-27 22:42:00,45.1,24.0,30.27,NNW,338,0.0,0.0,43,0.00,,---,99.99,VWS V14.01,2013-03-28 02:42:00,
2013-03-27 22:43:00,45.1,24.0,30.30,NNW,338,0.0,0.0,43,0.00,,---,99.99,VWS V14.01,2013-03-28 02:43:00,
2013-03-27 22:44:00,45.1,24.0,30.30,NNW,338,0.0,0.0,43,0.00,,---,99.99,VWS V14.01,2013-03-28 02:44:00,
2013-03-27 22:45:00,45.1,24.0,30.30,NNW,338,0.0,0.0,43,0.00,,---,99.99,VWS V14.01,2013-03-28 02:45:00,
2013-03-27 22:46:00,45.1,24.0,30.30,NNW,338,0.0,0.0,43,0.00,,---,99.99,VWS V14.01,2013-03-28 02:46:00,
2013-03-27 22:47:00,45.1,24.0,30.30,NNW,338,0.0,0.0,43,0.00,,---,99.99,VWS V14.01,2013-03-28 02:47:00,
2013-03-27 22:48:00,45.1,24.0,30.30,NNW,338,0.0,0.0,43,0.00,,---,99.99,VWS V14.01,2013-03-28 02:48:00,
2013-03-27 22:49:00,45.1,24.0,30.30,NNW,338,0.0,0.0,43,0.00,,---,99.99,VWS V14.01,2013-03-28 02:49:00,
2013-03-27 22:50:00,45.1,24.0,30.30,NNW,338,0.0,0.0,43,0.00,,---,99.99,VWS V14.01,2013-03-28 02:50:00,
2013-03-27 22:51:00,45.1,24.0,30.30,NNW,338,0.0,0.0,43,0.00,,---,99.99,VWS V14.01,2013-03-28 02:51:00,
2013-03-27 22:52:00,45.1,24.0,30.30,NNW,338,0.0,0.0,43,0.00,,---,99.99,VWS V14.01,2013-03-28 02:52:00,
2013-03-27 22:53:00,45.1,24.0,30.30,NNW,338,0.0,0.0,43,0.00,,---,99.99,VWS V14.01,2013-03-28 02:53:00,
2013-03-27 22:54:00,45.1,24.0,30.30,NNW,338,0.0,0.0,43,0.00,,---,99.99,VWS V14.01,2013-03-28 02:54:00,
2013-03-27 22:55:00,45.1,24.0,30.30,NNW,338,0.0,0.0,43,0.00,,---,99.99,VWS V14.01,2013-03-28 02:55:00,
2013-03-27 22:56:00,45.1,24.0,30.30,NNW,338,0.0,0.0,43,0.00,,---,99.99,VWS V14.01,2013-03-28 02:56:00,
2013-03-27 22:57:00,45.1,24.0,30.30,NNW,338,0.0,0.0,43,0.00,,---,99.99,VWS V14.01,2013-03-28 02:57:00,
2013-03-27 22:58:00,45.1,24.0,30.30,NNW,338,0.0,0.0,43,0.00,,---,99.99,VWS V14.01,2013-03-28 02:58:00,
2013-03-27 22:59:00,45.1,24.0,30.27,NNW,338,0.0,0.0,43,0.00,,---,99.99,VWS V14.01,2013-03-28 02:59:00,
2013-03-27 23:00:00,45.1,24.0,30.30,NNW,338,0.0,0.0,43,0.00,,---,0.08,VWS V14.01,2013-03-28 03:00:00,
2013-03-27 23:01:00,45.1,24.0,30.30,NNW,338,0.0,0.0,43,0.00,,---,99.99,VWS V14.01,2013-03-28 03:01:00,
2013-03-27 23:02:00,45.1,24.0,30.30,NNW,338,0.0,0.0,43,0.00,,---,99.99,VWS V14.01,2013-03-28 03:02:00,
2013-03-27 23:03:00,45.1,24.0,30.30,NNW,338,0.0,0.0,43,0.00,,---,99.99,VWS V14.01,2013-03-28 03:03:00,
2013-03-27 23:04:00,45.1,24.0,30.30,NNW,338,0.0,0.0,43,0.00,,---,99.99,VWS V14.01,2013-03-28 03:04:00,
2013-03-27 23:05:00,45.1,24.0,30.30,NNW,338,0.0,0.0,43,0.00,,---,99.99,VWS V14.01,2013-03-28 03:05:00,
2013-03-27 23:06:00,45.1,24.0,30.30,NNW,338,0.0,0.0,43,0.00,,---,99.99,VWS V14.01,2013-03-28 03:06:00,
2013-03-27 23:07:00,45.1,24.0,30.30,NNW,338,0.0,0.0,43,0.00,,---,99.99,VWS V14.01,2013-03-28 03:07:00,
2013-03-27 23:08:00,45.1,24.0,30.30,NNW,338,0.0,0.0,43,0.00,,---,99.99,VWS V14.01,2013-03-28 03:08:00,
2013-03-27 23:09:00,45.1,24.0,30.30,NNW,338,0.0,0.0,43,0.00,,---,99.99,VWS V14.01,2013-03-28 03:09:00,
2013-03-27 23:10:00,45.1,24.0,30.30,NNW,338,0.0,0.0,43,0.00,,---,99.99,VWS V14.01,2013-03-28 03:10:00,
2013-03-27 23:11:00,45.1,24.0,30.30,NNW,338,0.0,0.0,43,0.00,,---,99.99,VWS V14.01,2013-03-28 03:11:00,
2013-03-27 23:12:00,45.1,24.0,30.30,NNW,338,0.0,0.0,43,0.00,,---,99.99,VWS V14.01,2013-03-28 03:12:00,
2013-03-27 23:13:00,45.1,24.0,30.27,NNW,338,0.0,0.0,43,0.00,,---,99.99,VWS V14.01,2013-03-28 03:13:00,
2013-03-27 23:14:00,45.1,24.0,30.27,NNW,338,0.0,0.0,43,0.00,,---,99.99,VWS V14.01,2013-03-28 03:14:00,
2013-03-27 23:15:00,45.1,24.0,30.27,NNW,338,0.0,0.0,43,0.00,,---,99.99,VWS V14.01,2013-03-28 03:15:00,
2013-03-27 23:16:00,45.1,24.0,30.27,NNW,338,0.0,0.0,43,0.00,,---,99.99,VWS V14.01,2013-03-28 03:16:00,
2013-03-27 23:17:00,45.1,24.0,30.27,NNW,338,0.0,0.0,43,0.00,,---,99.99,VWS V14.01,2013-03-28 03:17:00,
2013-03-27 23:18:00,45.1,24.0,30.27,NNW,338,0.0,0.0,43,0.00,,---,99.99,VWS V14.01,2013-03-28 03:18:00,
2013-03-27 23:19:00,45.1,24.0,30.27,NNW,338,0.0,0.0,43,0.00,,---,99.99,VWS V14.01,2013-03-28 03:19:00,
2013-03-27 23:20:00,45.1,24.0,30.27,NNW,338,0.0,0.0,43,0.00,,---,99.99,VWS V14.01,2013-03-28 03:20:00,
2013-03-27 23:21:00,45.1,24.0,30.27,NNW,338,0.0,0.0,43,0.00,,---,99.99,VWS V14.01,2013-03-28 03:21:00,
2013-03-27 23:22:00,45.1,24.0,30.27,NNW,338,0.0,0.0,43,0.00,,---,99.99,VWS V14.01,2013-03-28 03:22:00,
2013-03-27 23:23:00,45.1,24.0,30.27,NNW,338,0.0,0.0,43,0.00,,---,99.99,VWS V14.01,2013-03-28 03:23:00,
2013-03-27 23:24:00,45.1,24.0,30.27,NNW,338,0.0,0.0,43,0.00,,---,99.99,VWS V14.01,2013-03-28 03:24:00,
2013-03-27 23:25:00,45.1,24.0,30.27,NNW,338,0.0,0.0,43,0.00,,---,99.99,VWS V14.01,2013-03-28 03:25:00,
2013-03-27 23:26:00,45.1,24.0,30.27,NNW,338,0.0,0.0,43,0.00,,---,99.99,VWS V14.01,2013-03-28 03:26:00,
2013-03-27 23:27:00,45.1,24.0,30.27,NNW,338,0.0,0.0,43,0.00,,---,99.99,VWS V14.01,2013-03-28 03:27:00,
2013-03-27 23:28:00,45.1,24.0,30.27,NNW,338,0.0,0.0,43,0.00,,---,99.99,VWS V14.01,2013-03-28 03:28:00,
2013-03-27 23:29:00,45.1,24.0,30.27,NNW,338,0.0,0.0,43,0.00,,---,99.99,VWS V14.01,2013-03-28 03:29:00,
2013-03-27 23:30:00,45.1,24.0,30.27,NNW,338,0.0,0.0,43,0.00,,---,99.99,VWS V14.01,2013-03-28 03:30:00,
2013-03-27 23:31:00,45.1,24.0,30.27,NNW,338,0.0,0.0,43,0.00,,---,99.99,VWS V14.01,2013-03-28 03:31:00,
2013-03-27 23:32:00,45.1,24.0,30.27,NNW,338,0.0,0.0,43,0.00,,---,99.99,VWS V14.01,2013-03-28 03:32:00,
2013-03-27 23:33:00,45.1,24.0,30.27,NNW,338,0.0,0.0,43,0.00,,---,99.99,VWS V14.01,2013-03-28 03:33:00,
2013-03-27 23:34:00,45.1,24.0,30.27,NNW,338,0.0,0.0,43,0.00,,---,99.99,VWS V14.01,2013-03-28 03:34:00,
2013-03-27 23:35:00,45.1,24.0,30.27,NNW,338,0.0,0.0,43,0.00,,---,99.99,VWS V14.01,2013-03-28 03:35:00,
2013-03-27 23:36:00,45.1,24.0,30.27,NNW,338,0.0,0.0,43,0.00,,---,99.99,VWS V14.01,2013-03-28 03:36:00,
2013-03-27 23:37:00,45.1,24.0,30.27,NNW,338,0.0,0.0,43,0.00,,---,99.99,VWS V14.01,2013-03-28 03:37:00,
2013-03-27 23:38:00,45.1,24.0,30.27,NNW,338,0.0,0.0,43,0.00,,---,99.99,VWS V14.01,2013-03-28 03:38:00,
2013-03-27 23:39:00,45.1,24.0,30.27,NNW,338,0.0,0.0,43,0.00,,---,99.99,VWS V14.01,2013-03-28 03:39:00,
2013-03-27 23:40:00,45.1,24.0,30.27,NNW,338,0.0,0.0,43,0.00,,---,99.99,VWS V14.01,2013-03-28 03:40:00,
2013-03-27 23:41:00,45.1,24.0,30.27,NNW,338,0.0,0.0,43,0.00,,---,99.99,VWS V14.01,2013-03-28 03:41:00,
2013-03-27 23:42:00,45.1,24.0,30.27,NNW,338,0.0,0.0,43,0.00,,---,99.99,VWS V14.01,2013-03-28 03:42:00,
2013-03-27 23:43:00,45.1,24.0,30.27,NNW,338,0.0,0.0,43,0.00,,---,99.99,VWS V14.01,2013-03-28 03:43:00,
2013-03-27 23:44:00,45.1,24.0,30.27,NNW,338,0.0,0.0,43,0.00,,---,99.99,VWS V14.01,2013-03-28 03:44:00,
2013-03-27 23:45:00,45.1,24.0,30.27,NNW,338,0.0,0.0,43,0.00,,---,99.99,VWS V14.01,2013-03-28 03:45:00,
2013-03-27 23:46:00,45.1,24.0,30.27,NNW,338,0.0,0.0,43,0.00,,---,99.99,VWS V14.01,2013-03-28 03:46:00,
2013-03-27 23:47:00,45.1,24.0,30.27,NNW,338,0.0,0.0,43,0.00,,---,99.99,VWS V14.01,2013-03-28 03:47:00,
2013-03-27 23:48:00,45.1,24.0,30.27,NNW,338,0.0,0.0,43,0.00,,---,99.99,VWS V14.01,2013-03-28 03:48:00,
2013-03-27 23:49:00,45.1,24.0,30.27,NNW,338,0.0,0.0,43,0.00,,---,99.99,VWS V14.01,2013-03-28 03:49:00,
2013-03-27 23:50:00,45.1,24.0,30.27,NNW,338,0.0,0.0,43,0.00,,---,99.99,VWS V14.01,2013-03-28 03:50:00,
2013-03-27 23:51:00,45.1,24.0,30.27,NNW,338,0.0,0.0,43,0.00,,---,99.99,VWS V14.01,2013-03-28 03:51:00,
2013-03-27 23:52:00,45.1,24.0,30.27,NNW,338,0.0,0.0,43,0.00,,---,99.99,VWS V14.01,2013-03-28 03:52:00,
2013-03-27 23:53:00,45.1,24.0,30.27,NNW,338,0.0,0.0,43,0.00,,---,99.99,VWS V14.01,2013-03-28 03:53:00,
2013-03-27 23:54:00,45.1,24.0,30.27,NNW,338,0.0,0.0,43,0.00,,---,99.99,VWS V14.01,2013-03-28 03:54:00,
2013-03-27 23:55:00,45.1,24.0,30.27,NNW,338,0.0,0.0,43,0.00,,---,99.99,VWS V14.01,2013-03-28 03:55:00,
2013-03-27 23:56:00,45.1,24.0,30.27,NNW,338,0.0,0.0,43,0.00,,---,99.99,VWS V14.01,2013-03-28 03:56:00,
2013-03-27 23:57:00,45.1,24.0,30.27,NNW,338,0.0,0.0,43,0.00,,---,99.99,VWS V14.01,2013-03-28 03:57:00,
2013-03-27 23:58:00,45.1,24.0,30.27,NNW,338,0.0,0.0,43,0.00,,---,99.99,VWS V14.01,2013-03-28 03:58:00,
2013-03-27 23:59:00,45.1,24.0,30.27,NNW,338,0.0,0.0,43,0.00,,---,99.99,VWS V14.01,2013-03-28 03:59:00,